Date StartTime U_cm/s V_cm/s W_cm/s Ustd_cm/s Vstd_cm/s Wstd_cm/s Uvar_(cm/s)^2 Vvar_(cm/s)^2 Wvar_(cm/s)^2 KE_(m/s)^2 TurbulentKE_(m/s)^2 HorizWindSpeed_cm/s FrictionSpeec_cm/s DragCoef SpeedOfSound_m/s SonicTemperature_C Pressure_mb 
02/01/2014  00:00:00     -102.036      -34.996      -10.318       39.218       34.394       20.184     1538.077     1182.958      407.391        0.743        0.156      107.871       19.330        0.032      330.240       -2.515      860.394
02/01/2014  00:01:00      -89.663      -39.110       -4.898       44.078       38.319       24.075     1942.849     1468.310      579.616        0.679        0.200       97.821       24.539        0.063      330.236       -2.519      860.401
02/01/2014  00:02:00      -52.303      -44.055        7.074       51.313       44.687       24.309     2632.982     1996.959      590.909        0.497        0.261       68.385       27.602        0.163      330.238       -2.518      860.394
02/01/2014  00:03:00     -139.873      -12.359      -20.856       34.011       29.326       19.142     1156.734      860.036      366.412        1.127        0.119      140.418       14.601        0.011      330.216       -2.551      860.385
02/01/2014  00:04:00     -132.353      -39.673      -13.186       30.019       29.725       17.741      901.113      883.582      314.760        1.068        0.105      138.171       16.951        0.015      330.181       -2.610      860.381
02/01/2014  00:05:00      -99.211      -32.856        1.643       36.721       26.772       18.029     1348.436      716.740      325.040        0.666        0.120      104.510       17.408        0.028      330.214       -2.555      860.373
02/01/2014  00:06:00     -109.303      -41.642        3.634       33.495       26.915       21.328     1121.914      724.441      454.885        0.800        0.115      116.967       21.705        0.034      330.240       -2.515      860.373
02/01/2014  00:07:00      -64.061      -37.557        0.369       43.367       27.877       18.703     1880.733      777.147      349.811        0.426        0.150       74.258       22.163        0.089      330.278       -2.451      860.382
02/01/2014  00:08:00      -89.854      -20.159       -7.208       27.069       19.263       13.813      732.709      371.047      190.788        0.491        0.065       92.088       10.738        0.014      330.249       -2.498      860.402
02/01/2014  00:09:00     -114.845      -18.440       -7.406       32.302       16.312       15.421     1043.408      266.090      237.810        0.757        0.077      116.315       14.377        0.015      330.211       -2.562      860.408
02/01/2014  00:10:00      -95.937      -30.854       -6.570       30.613       17.153       17.715      937.137      294.220      313.827        0.587        0.077      100.777       18.240        0.033      330.198       -2.583      860.417
02/01/2014  00:11:00      -83.433       -3.605      -10.241       39.944       37.280       17.649     1595.518     1389.793      311.478        0.519        0.165       83.511       17.716        0.045      330.200       -2.581      860.425
02/01/2014  00:12:00     -131.895        8.844      -12.219       27.393       30.108       13.323      750.351      906.467      177.498        0.973        0.092      132.191        7.392        0.003      330.173       -2.627      860.442
02/01/2014  00:13:00     -149.745       -3.614      -19.461       31.215       21.034       12.452      974.390      442.419      155.063        1.219        0.079      149.789        9.081        0.004      330.177       -2.618      860.448
02/01/2014  00:14:00     -122.337      -36.106      -12.859       29.105       26.344       22.123      847.088      694.021      489.425        0.923        0.102      127.554       14.953        0.014      330.127       -2.700      860.451
02/01/2014  00:15:00     -111.362      -19.602       -8.154       22.860       34.300       19.606      522.594     1176.518      384.377        0.747        0.104      113.074        7.559        0.004      330.149       -2.664      860.444
02/01/2014  00:16:00      -88.595      -25.846      -12.979       38.197       34.537       21.738     1458.985     1192.836      472.557        0.590        0.156       92.288       18.939        0.042      330.142       -2.675      860.442
02/01/2014  00:17:00     -109.746      -27.671       -6.534       39.755       38.431       23.400     1580.437     1476.924      547.550        0.823        0.180      113.181       23.145        0.042      330.139       -2.681      860.456
02/01/2014  00:18:00      -97.843      -31.145       -6.042       22.715       28.195       15.187      515.980      794.953      230.650        0.606        0.077      102.680        7.245        0.005      330.188       -2.599      860.463
02/01/2014  00:19:00     -100.007      -55.048      -10.446       36.327       25.260       22.609     1319.634      638.085      511.160        0.780        0.123      114.156       18.399        0.026      330.145       -2.671      860.467
02/01/2014  00:20:00      -95.218      -45.369      -13.336       35.705       27.725       18.148     1274.822      768.681      329.368        0.684        0.119      105.475       17.315        0.027      330.216       -2.552      860.478
02/01/2014  00:21:00      -87.654      -49.048      -13.874       44.034       21.256       16.104     1938.976      451.799      259.329        0.647        0.133      100.443       18.069        0.032      330.148       -2.666      860.492
02/01/2014  00:22:00      -96.676      -46.676       -8.867       32.252       28.241       18.893     1040.159      797.569      356.951        0.690        0.110      107.354       17.349        0.026      330.148       -2.666      860.510
02/01/2014  00:23:00      -72.331      -14.184       -3.653       33.736       24.382       16.772     1138.133      594.481      281.308        0.373        0.101       73.709        7.502        0.010      330.137       -2.682      860.507
02/01/2014  00:24:00     -112.035       -0.744      -14.074       31.801       23.242       18.138     1011.275      540.189      328.995        0.732        0.094      112.037       18.473        0.027      330.059       -2.810      860.497
02/01/2014  00:25:00      -52.757       -8.184        0.525       42.603       26.061       17.891     1815.047      679.185      320.099        0.283        0.141       53.388       20.903        0.153      329.988       -2.928      860.487
02/01/2014  00:26:00      -60.879        3.470      -12.065       20.049       24.609       12.763      401.951      605.596      162.902        0.252        0.059       60.978       11.267        0.034      330.087       -2.766      860.478
02/01/2014  00:27:00      -49.315      -12.272      -10.568       24.948       13.423       10.561      622.400      180.164      111.525        0.180        0.046       50.819        9.071        0.032      330.139       -2.680      860.463
02/01/2014  00:28:00      -52.983      -22.837      -12.641       13.253       12.625       10.931      175.652      159.400      119.489        0.197        0.023       57.695        2.978        0.003      330.241       -2.512      860.464
02/01/2014  00:29:00      -43.954       -6.261      -14.533       21.288       21.324       12.104      453.194      454.693      146.505        0.162        0.053       44.398        8.281        0.035      330.270       -2.464      860.462
02/01/2014  00:30:00      -61.468        5.113        0.748       24.687       20.367       16.659      609.433      414.832      277.524        0.255        0.065       61.680        9.845        0.025      330.355       -2.326      860.466
02/01/2014  00:31:00      -59.937        2.672       -5.780       21.799       20.751       13.470      475.200      430.608      181.437        0.236        0.054       59.996        9.630        0.026      330.393       -2.263      860.479
02/01/2014  00:32:00      -64.727      -20.195       -9.515       16.386       13.700       11.788      268.508      187.683      138.967        0.264        0.030       67.804        8.608        0.016      330.394       -2.262      860.496
02/01/2014  00:33:00      -73.244      -26.232       -7.049       14.103       12.898        7.391      198.883      166.350       54.620        0.326        0.021       77.800        5.391        0.005      330.359       -2.320      860.498
02/01/2014  00:34:00      -73.509      -25.382       -8.420       17.701       21.657       11.576      313.316      469.046      134.014        0.352        0.046       77.767        9.121        0.014      330.389       -2.269      860.497
02/01/2014  00:35:00      -59.873      -22.884       -7.659       18.354       14.697       12.069      336.869      216.008      145.660        0.243        0.035       64.097       11.075        0.030      330.387       -2.272      860.502
02/01/2014  00:36:00      -78.400      -21.029       -6.024       18.695       16.962       10.765      349.521      287.694      115.887        0.369        0.038       81.172        6.762        0.007      330.333       -2.362      860.495
02/01/2014  00:37:00      -69.468      -19.761      -10.463       14.751       17.332        9.613      217.605      300.410       92.413        0.297        0.031       72.224        7.498        0.011      330.279       -2.449      860.496
02/01/2014  00:38:00      -61.320      -11.544       -6.818       22.695       15.892       13.498      515.081      252.566      182.205        0.244        0.047       62.397       12.027        0.037      330.175       -2.621      860.492
02/01/2014  00:39:00      -86.757      -12.479       -9.736       23.658       18.433       13.675      559.685      339.781      186.998        0.443        0.054       87.650       10.840        0.015      330.097       -2.750      860.493
02/01/2014  00:40:00      -99.524      -12.008      -12.416       41.575       23.548       19.305     1728.497      554.498      372.679        0.643        0.133      100.246       20.717        0.043      330.045       -2.832      860.495
02/01/2014  00:41:00     -117.514       -5.831      -19.217       27.418       19.601       17.964      751.735      384.198      322.699        0.784        0.073      117.659       11.016        0.009      329.970       -2.957      860.496
02/01/2014  00:42:00     -100.798       -3.370      -10.654       42.809       20.760       18.595     1832.576      430.981      345.784        0.645        0.130      100.855       18.968        0.035      329.904       -3.065      860.489
02/01/2014  00:43:00     -100.732      -12.916      -12.253       41.483       15.684       14.121     1720.830      245.990      199.393        0.631        0.108      101.556       14.383        0.020      329.934       -3.016      860.482
02/01/2014  00:44:00      -90.423      -18.082       -7.216       25.449       19.149       14.200      647.657      366.698      201.629        0.489        0.061       92.213       14.271        0.024      329.990       -2.923      860.483
02/01/2014  00:45:00      -75.064      -38.195       -3.394       23.442       20.108       12.971      549.531      404.324      168.255        0.411        0.056       84.223       12.574        0.022      330.037       -2.846      860.486
02/01/2014  00:46:00      -65.878      -22.598       -4.557       40.297       15.065       19.225     1623.845      226.948      369.595        0.355        0.111       69.646       20.797        0.089      330.066       -2.800      860.484
02/01/2014  00:47:00      -72.035      -28.165       -3.289       21.564       25.871       14.419      464.988      669.283      207.906        0.367        0.067       77.346       11.853        0.023      330.055       -2.818      860.482
02/01/2014  00:48:00      -31.058      -28.232        4.169       36.735       10.970       11.405     1349.476      120.335      130.064        0.169        0.080       41.972        6.976        0.028      330.129       -2.695      860.481
02/01/2014  00:49:00      -36.682      -35.684       -7.518       29.883       18.887       14.968      893.008      356.713      224.038        0.207        0.074       51.175       10.856        0.045      330.169       -2.629      860.490
02/01/2014  00:50:00      -98.013      -30.518      -12.035       14.912       16.699        9.354      222.355      278.871       87.502        0.564        0.029      102.655        6.102        0.004      330.108       -2.730      860.492
02/01/2014  00:51:00      -80.361      -18.562       -9.840       13.807       19.892       11.448      190.624      395.692      131.045        0.381        0.036       82.476        9.743        0.014      330.184       -2.607      860.497
02/01/2014  00:52:00      -80.627      -25.376      -10.641       12.197       16.398        9.655      148.756      268.885       93.215        0.388        0.026       84.526        5.963        0.005      330.200       -2.581      860.506
02/01/2014  00:53:00      -70.036      -11.899       -8.105       19.635       13.296        8.663      385.524      176.795       75.054        0.287        0.032       71.039        5.708        0.006      330.193       -2.589      860.503
02/01/2014  00:54:00      -63.742       -9.908       -4.102       20.590       19.213        9.336      423.945      369.137       87.159        0.253        0.044       64.508        7.887        0.015      330.226       -2.537      860.503
02/01/2014  00:55:00      -53.335      -23.050       -6.595       22.640       14.060       11.829      512.551      197.675      139.935        0.213        0.043       58.103       12.628        0.047      330.153       -2.656      860.502
02/01/2014  00:56:00      -38.468      -34.985       -4.817       16.421       11.475       14.936      269.643      131.669      223.087        0.168        0.031       51.997        9.786        0.035      330.183       -2.608      860.494
02/01/2014  00:57:00      -48.147      -26.554       -8.324       17.878       11.276       11.222      319.629      127.149      125.926        0.183        0.029       54.984       10.178        0.034      330.121       -2.708      860.491
02/01/2014  00:58:00      -14.792      -26.759        3.171       23.357       13.990       13.623      545.555      195.719      185.591        0.094        0.046       30.575       11.161        0.133      330.140       -2.677      860.494
02/01/2014  00:59:00      -38.511      -27.911        0.445       23.022       12.482        8.610      529.991      155.807       74.127        0.151        0.038       47.562        4.464        0.009      330.083       -2.773      860.509
02/01/2014  01:00:00      -51.723      -11.909       -0.818       13.431       11.182        8.214      180.383      125.039       67.464        0.160        0.019       53.076        2.787        0.003      330.137       -2.684      860.519
02/01/2014  01:01:00      -42.167      -24.082       -3.275       15.935       11.763       14.086      253.923      138.373      198.419        0.148        0.030       48.559       10.023        0.043      330.099       -2.745      860.534
02/01/2014  01:02:00      -18.798      -32.102       -5.208       15.452       17.725        9.107      238.755      314.180       82.937        0.102        0.032       37.201        4.391        0.014      330.136       -2.686      860.551
02/01/2014  01:03:00      -31.247      -22.485        0.646       15.005       10.074       10.113      225.139      101.489      102.276        0.096        0.021       38.496        5.595        0.021      330.089       -2.763      860.556
02/01/2014  01:04:00      -33.880      -11.949       -9.714       18.720       14.673        7.626      350.450      215.295       58.151        0.100        0.031       35.925        4.630        0.017      330.098       -2.748      860.561
02/01/2014  01:05:00      -19.286      -12.793        5.245       18.417       15.630       11.853      339.193      244.307      140.488        0.064        0.036       23.143        8.956        0.150      330.123       -2.707      860.560
02/01/2014  01:06:00      -35.221      -35.199       -6.034       22.781       13.571       10.537      518.965      184.164      111.025        0.166        0.041       49.795        2.385        0.002      330.122       -2.708      860.569
02/01/2014  01:07:00      -58.700      -28.055      -10.142       10.489       10.571        8.475      110.021      111.747       71.819        0.231        0.015       65.059        4.658        0.005      330.101       -2.742      860.574
02/01/2014  01:08:00      -53.723      -25.772       -7.553       19.569       15.747       11.927      382.929      247.982      142.259        0.219        0.039       59.585        9.593        0.026      330.103       -2.739      860.582
02/01/2014  01:09:00      -59.685      -43.830        4.414       30.636       19.885       17.630      938.542      395.432      310.815        0.357        0.082       74.049       15.522        0.044      330.009       -2.890      860.596
02/01/2014  01:10:00      -69.825      -32.465       -8.949       20.526       18.868       14.324      421.311      356.019      205.175        0.350        0.049       77.003        9.858        0.016      330.047       -2.831      860.611
02/01/2014  01:11:00      -38.699      -13.438       -0.770       26.350       14.715       13.470      694.313      216.542      181.444        0.139        0.055       40.965        6.212        0.023      330.040       -2.843      860.618
02/01/2014  01:12:00      -26.569      -35.538        0.110       28.256       30.166       19.796      798.379      910.012      391.873        0.203        0.105       44.372       12.436        0.079      330.047       -2.830      860.624
02/01/2014  01:13:00      -56.568      -46.510        7.975       62.708       53.026       30.447     3932.300     2811.758      927.029        0.655        0.384       73.233       34.594        0.223      330.007       -2.895      860.632
02/01/2014  01:14:00      -88.449      -75.592        4.043       46.861       33.745       28.171     2195.976     1138.755      793.599        0.884        0.206      116.351       26.083        0.050      329.977       -2.946      860.634
02/01/2014  01:15:00      -94.072      -73.501       -3.701       34.679       26.069       26.240     1202.617      679.584      688.547        0.842        0.129      119.381       21.072        0.031      329.891       -3.087      860.644
02/01/2014  01:16:00      -89.219      -72.643       -4.845       30.107       20.441       21.217      906.404      417.821      450.181        0.752        0.089      115.053       19.254        0.028      329.905       -3.064      860.655
02/01/2014  01:17:00      -85.062      -69.881       -8.016       33.125       21.311       15.290     1097.256      454.176      233.783        0.698        0.089      110.086       14.898        0.018      329.896       -3.078      860.665
02/01/2014  01:18:00      -76.811      -71.350      -14.072       37.674       33.142       15.781     1419.361     1098.363      249.031        0.698        0.138      104.837       15.692        0.022      329.847       -3.157      860.677
02/01/2014  01:19:00      -86.907      -53.195       -1.364       37.888       25.985       20.845     1435.469      675.224      434.496        0.646        0.127      101.895       21.116        0.043      329.882       -3.102      860.683
02/01/2014  01:20:00      -78.007      -59.868        0.192       35.896       34.185       27.340     1288.556     1168.624      747.488        0.644        0.160       98.332       23.579        0.057      329.827       -3.190      860.692
02/01/2014  01:21:00     -110.363      -86.188       -0.402       43.883       48.935       29.733     1925.723     2394.661      884.026        1.241        0.260      140.029       29.707        0.045      329.799       -3.235      860.697
02/01/2014  01:22:00     -118.870     -101.980       -5.894       34.189       37.357       21.442     1168.915     1395.579      459.745        1.379        0.151      156.621       20.443        0.017      329.844       -3.161      860.698
02/01/2014  01:23:00     -106.325     -103.075       -4.984       35.047       30.533       23.203     1228.311      932.267      538.361        1.233        0.135      148.086       19.837        0.018      329.847       -3.157      860.702
02/01/2014  01:24:00      -99.295      -98.253       -8.568       29.825       28.666       18.632      889.543      821.743      347.150        1.082        0.103      139.689       16.435        0.014      329.881       -3.102      860.702
02/01/2014  01:25:00      -65.124      -72.762       -3.066       52.867       28.168       22.480     2794.954      793.434      505.370        0.682        0.205       97.650       23.433        0.058      329.942       -3.003      860.709
02/01/2014  01:26:00      -36.275      -44.136        5.797       43.626       23.886       22.603     1903.189      570.536      510.906        0.314        0.149       57.130       16.738        0.086      329.996       -2.914      860.714
02/01/2014  01:27:00      -43.719      -53.901       10.198       39.762       35.719       23.093     1581.038     1275.882      533.301        0.415        0.170       69.402       26.621        0.147      329.997       -2.912      860.718
02/01/2014  01:28:00      -27.193      -24.180       10.218       28.818       31.681       18.662      830.488     1003.657      348.255        0.181        0.109       36.388       16.235        0.199      329.976       -2.946      860.714
02/01/2014  01:29:00      -55.701      -32.382        2.438       20.554       18.948       14.354      422.475      359.013      206.035        0.257        0.049       64.429       12.478        0.038      329.895       -3.079      860.719
02/01/2014  01:30:00      -34.031      -17.327        1.499       25.852       15.291       15.920      668.339      233.807      253.440        0.131        0.058       38.188        9.691        0.064      329.910       -3.054      860.720
02/01/2014  01:31:00        6.276       -9.739       12.762       14.786        8.794        8.193      218.618       77.337       67.119        0.033        0.018       11.586        7.511        0.420      329.943       -3.000      860.717
02/01/2014  01:32:00      -11.965       -3.976       -4.222        8.509        7.144        6.273       72.406       51.036       39.346        0.017        0.008       12.608        1.356        0.012      329.904       -3.064      860.721
02/01/2014  01:33:00      -37.355        9.206       -9.771       16.124        8.750       10.002      259.972       76.566      100.030        0.101        0.022       38.473        7.870        0.042      329.801       -3.233      860.716
02/01/2014  01:34:00      -63.852       20.408       -8.734       16.261       10.342        9.942      264.436      106.949       98.835        0.252        0.024       67.034        5.722        0.007      329.753       -3.311      860.707
02/01/2014  01:35:00      -63.561       19.200      -10.355       11.996        9.822        7.895      143.894       96.475       62.325        0.241        0.015       66.398        5.352        0.006      329.825       -3.194      860.700
02/01/2014  01:36:00      -63.329        5.552       -5.194        9.795       11.266        7.587       95.935      126.913       57.569        0.217        0.014       63.571        4.371        0.005      329.860       -3.138      860.699
02/01/2014  01:37:00      -61.290       -2.584       -7.500       13.253       11.625        9.202      175.646      135.150       84.684        0.211        0.020       61.345        7.005        0.013      329.889       -3.088      860.697
02/01/2014  01:38:00      -42.272       -4.654       -4.564       24.762       12.519       10.050      613.151      156.732      100.996        0.135        0.044       42.527       11.024        0.067      329.851       -3.149      860.703
02/01/2014  01:39:00      -51.184      -13.919       -3.942       17.936       14.459        8.976      321.710      209.066       80.575        0.172        0.031       53.043        7.929        0.022      329.830       -3.185      860.705
02/01/2014  01:40:00      -59.873      -15.342       -6.015       14.712       14.117        9.289      216.449      199.277       86.281        0.218        0.025       61.808        6.572        0.011      329.819       -3.204      860.725
02/01/2014  01:41:00      -71.901      -19.524      -15.135        8.019        9.252        6.826       64.298       85.600       46.597        0.299        0.010       74.505        3.554        0.002      329.676       -3.437      860.750
02/01/2014  01:42:00      -87.257      -28.373      -14.476       19.083       11.368       10.247      364.161      129.233      104.992        0.461        0.030       91.754        4.268        0.002      329.636       -3.503      860.762
02/01/2014  01:43:00      -99.668      -10.414      -10.255       18.593       18.612       10.611      345.704      346.420      112.602        0.548        0.040      100.211        8.221        0.007      329.542       -3.656      860.772
02/01/2014  01:44:00     -102.999      -10.061       -7.803       23.276       17.586       13.054      541.791      309.265      170.404        0.590        0.051      103.489        9.625        0.009      329.529       -3.677      860.786
02/01/2014  01:45:00      -85.399        2.754       -9.094       31.086       24.110       16.067      966.321      581.298      258.134        0.459        0.090       85.444       15.137        0.031      329.510       -3.708      860.795
02/01/2014  01:46:00      -42.111      -15.592        1.362       29.589       29.314       18.390      875.500      859.312      338.207        0.205        0.104       44.905       16.502        0.135      329.527       -3.681      860.802
02/01/2014  01:47:00      -52.132      -12.353        1.391       21.372       25.060       17.504      456.752      627.979      306.401        0.213        0.070       53.576       11.568        0.047      329.507       -3.714      860.808
02/01/2014  01:48:00      -55.593      -26.664        0.304       31.375       27.578       16.824      984.363      760.554      283.062        0.291        0.101       61.657       13.883        0.051      329.536       -3.667      860.812
02/01/2014  01:49:00      -66.757        8.444       -6.383       33.696       19.951       15.609     1135.397      398.031      243.645        0.317        0.089       67.289       12.329        0.034      329.496       -3.731      860.805
02/01/2014  01:50:00      -85.727       -3.912       -9.670       21.636       20.290       14.266      468.118      411.674      203.522        0.427        0.054       85.816        8.664        0.010      329.501       -3.721      860.807
02/01/2014  01:51:00      -66.639        1.017       -2.989       25.046       19.826       15.931      627.307      393.068      253.783        0.286        0.064       66.646       13.810        0.043      329.534       -3.671      860.802
02/01/2014  01:52:00      -47.499        5.913       -5.759       20.641       17.390       13.889      426.049      302.422      192.897        0.162        0.046       47.866        8.611        0.032      329.560       -3.627      860.803
02/01/2014  01:53:00      -47.214      -16.840       -1.903       21.774       16.994       10.206      474.127      288.780      104.168        0.169        0.043       50.127       11.020        0.048      329.625       -3.521      860.802
02/01/2014  01:54:00        1.483      -10.318        4.530       13.031       10.184       13.681      169.804      103.713      187.179        0.029        0.023       10.425       10.247        0.966      329.620       -3.530      860.802
02/01/2014  01:55:00       -3.146       -5.656       -5.775       13.954       12.962       10.468      194.723      168.022      109.572        0.027        0.024        6.472       11.882        3.370      329.684       -3.424      860.803
02/01/2014  01:56:00       -7.714        9.880       -1.055       10.097       11.855        8.303      101.942      140.543       68.935        0.023        0.016       12.534        5.243        0.175      329.719       -3.367      860.797
02/01/2014  01:57:00       10.202       30.920        5.844        9.686       16.172        9.214       93.825      261.523       84.893        0.077        0.022       32.559        9.438        0.084      329.806       -3.225      860.795
02/01/2014  01:58:00       29.606       47.917       -3.758        8.382       10.696        4.667       70.250      114.399       21.777        0.170        0.010       56.325        4.653        0.007      329.910       -3.056      860.795
02/01/2014  01:59:00       45.959       37.279        2.426       12.866       10.692        9.179      165.538      114.320       84.249        0.194        0.018       59.178        6.290        0.011      329.850       -3.152      860.791
02/01/2014  02:00:00       61.374       40.213        6.276        6.175        7.310        6.645       38.125       53.430       44.159        0.278        0.007       73.375        3.075        0.002      329.913       -3.050      860.795
02/01/2014  02:01:00       60.284       27.906        3.334        9.680        8.533        6.981       93.707       72.811       48.730        0.232        0.011       66.429        5.465        0.007      329.944       -2.997      860.792
02/01/2014  02:02:00       68.931       38.909        5.090       10.922        7.266        6.507      119.298       52.799       42.342        0.325        0.011       79.154        3.671        0.002      330.018       -2.877      860.790
02/01/2014  02:03:00       44.084       39.703       -0.737       13.091       12.643       10.962      171.363      159.851      120.175        0.199        0.023       59.328        6.637        0.013      329.803       -3.230      860.792
02/01/2014  02:04:00       40.510       35.406       -3.037       14.360       13.542       11.462      206.207      183.376      131.388        0.171        0.026       53.802        8.589        0.025      329.831       -3.184      860.793
02/01/2014  02:05:00       24.379       40.068        2.316        8.742       14.297        8.262       76.424      204.395       68.262        0.128        0.017       46.902        7.898        0.028      329.846       -3.158      860.789
02/01/2014  02:06:00       32.423       40.015       -4.070        5.619       15.045        4.082       31.570      226.359       16.663        0.147        0.014       51.502        3.946        0.006      329.976       -2.948      860.798
02/01/2014  02:07:00       31.490       25.622       -0.149       12.906        9.024        8.079      166.560       81.435       65.271        0.098        0.016       40.597        4.003        0.010      329.988       -2.928      860.803
02/01/2014  02:08:00       12.240       18.468       -1.352        9.863       13.410        4.735       97.270      179.840       22.423        0.040        0.015       22.156        5.124        0.053      330.004       -2.899      860.806
02/01/2014  02:09:00       -1.101        1.882        5.422        4.822        4.251        5.595       23.256       18.069       31.304        0.005        0.004        2.180        3.312        2.308      330.002       -2.906      860.801
02/01/2014  02:10:00      -15.409       -8.763        1.631        7.905        8.380        6.888       62.486       70.223       47.440        0.025        0.009       17.726        3.783        0.046      329.766       -3.291      860.802
02/01/2014  02:11:00      -23.713        2.194        2.466        7.512        8.813        7.107       56.429       77.665       50.510        0.038        0.009       23.814        3.643        0.023      329.791       -3.248      860.804
02/01/2014  02:12:00        7.175       24.274       18.832       14.769       13.065        9.665      218.111      170.681       93.418        0.074        0.024       25.312        7.537        0.089      329.863       -3.132      860.804
02/01/2014  02:13:00       -1.191       -1.478        8.912        7.996       10.090        9.933       63.937      101.808       98.664        0.017        0.013        1.898        6.046       10.143      329.835       -3.178      860.805
02/01/2014  02:14:00      -14.367      -28.502        2.178       20.015       11.037       12.618      400.586      121.823      159.223        0.085        0.034       31.918        6.131        0.037      329.969       -2.958      860.800
02/01/2014  02:15:00      -79.494      -37.978        0.400       22.750       18.774       15.506      517.583      352.460      240.442        0.444        0.056       88.101        9.996        0.013      329.638       -3.500      860.800
02/01/2014  02:16:00      -51.165      -50.947        9.746       39.251       33.604       25.560     1540.609     1129.231      653.297        0.432        0.166       72.204       24.065        0.111      329.734       -3.343      860.804
02/01/2014  02:17:00      -31.238      -37.251       17.730       50.437       42.928       26.234     2543.865     1842.778      688.204        0.388        0.254       48.615       29.824        0.376      329.690       -3.414      860.802
02/01/2014  02:18:00     -104.084      -80.075        3.344       62.205       41.123       31.941     3869.417     1691.097     1020.254        1.192        0.329      131.322       38.479        0.086      329.571       -3.608      860.800
02/01/2014  02:19:00     -128.688     -109.821       -8.394       32.431       41.006       25.199     1051.789     1681.489      635.005        1.603        0.168      169.179       18.613        0.012      329.569       -3.613      860.796
02/01/2014  02:20:00     -122.682     -113.116      -12.812       41.856       38.258       23.842     1751.935     1463.652      568.442        1.590        0.189      166.872       18.250        0.012      329.542       -3.658      860.791
02/01/2014  02:21:00     -110.053      -97.501       -4.606       32.641       35.321       23.610     1065.460     1247.587      557.444        1.225        0.144      147.030       16.829        0.013      329.544       -3.653      860.784
02/01/2014  02:22:00      -62.008      -77.921       -2.099       42.886       40.031       19.491     1839.215     1602.496      379.912        0.687        0.191       99.583       22.551        0.051      329.646       -3.486      860.787
02/01/2014  02:23:00      -70.134      -77.036       -2.780       28.489       30.642       20.344      811.627      938.911      413.895        0.651        0.108      104.180       17.529        0.028      329.653       -3.475      860.788
02/01/2014  02:24:00      -83.748      -46.601      -14.562       12.674       32.895       13.111      160.633     1082.106      171.901        0.541        0.071       95.840       12.378        0.017      329.595       -3.569      860.799
02/01/2014  02:25:00      -69.137       -7.952       -6.274       18.974       21.710       14.214      360.009      471.310      202.033        0.296        0.052       69.592       12.747        0.034      329.493       -3.737      860.811
02/01/2014  02:26:00      -78.232      -37.673      -11.554       15.583       12.620       10.636      242.824      159.260      113.125        0.409        0.026       86.830        5.508        0.004      329.454       -3.802      860.825
02/01/2014  02:27:00      -85.292      -17.814       -1.962       13.222       18.977       11.547      174.811      360.108      133.336        0.413        0.033       87.133        7.832        0.008      329.407       -3.879      860.836
02/01/2014  02:28:00      -77.865      -28.573       -4.206       20.313       28.018       10.152      412.637      785.026      103.073        0.410        0.065       82.942        5.429        0.004      329.463       -3.787      860.836
02/01/2014  02:29:00      -94.966      -22.651       -6.463       17.272       17.851       13.298      298.314      318.657      176.833        0.518        0.040       97.630        9.514        0.009      329.436       -3.831      860.824
02/01/2014  02:30:00      -84.621       -4.425       -5.087       33.422       18.007       16.299     1117.017      324.262      265.651        0.446        0.085       84.737       19.482        0.053      329.378       -3.925      860.808
02/01/2014  02:31:00      -59.588       -4.781        0.106       31.288       25.676       17.552      978.964      659.233      308.073        0.276        0.097       59.779       17.828        0.089      329.346       -3.977      860.806
02/01/2014  02:32:00      -79.841       -3.895       -8.787       37.373       24.075       16.961     1396.719      579.620      287.664        0.437        0.113       79.936       17.505        0.048      329.268       -4.104      860.807
02/01/2014  02:33:00     -110.867       -9.435       -6.658       30.504       22.497       19.898      930.479      506.113      395.939        0.713        0.092      111.267       16.870        0.023      329.247       -4.138      860.813
02/01/2014  02:34:00      -73.967       -6.664       -3.799       33.612       38.496       19.428     1129.749     1481.940      377.450        0.426        0.149       74.266       14.308        0.037      329.197       -4.221      860.822
02/01/2014  02:35:00      -91.648       -6.930       -6.175       37.458       28.059       25.465     1403.078      787.296      648.467        0.566        0.142       91.909       25.769        0.079      329.291       -4.067      860.827
02/01/2014  02:36:00     -100.882      -36.475       -6.972       20.089       21.051       13.683      403.582      443.159      187.221        0.629        0.052      107.274       12.208        0.013      329.365       -3.947      860.825
02/01/2014  02:37:00      -82.178      -45.125       -9.557       20.842       22.058       12.443      434.371      486.559      154.837        0.498        0.054       93.753        7.902        0.007      329.370       -3.939      860.834
02/01/2014  02:38:00      -80.001      -43.569       -7.927       36.943       16.134       14.929     1364.783      260.317      222.871        0.510        0.092       91.096       12.797        0.020      329.378       -3.924      860.846
02/01/2014  02:39:00     -110.620      -36.791      -12.955       13.739       18.827       10.202      188.752      354.474      104.072        0.720        0.032      116.578        6.262        0.003      329.338       -3.990      860.846
02/01/2014  02:40:00      -81.261      -25.629       -1.455       24.415       20.096       11.546      596.114      403.836      133.316        0.420        0.057       85.207        8.470        0.010      329.353       -3.966      860.847
02/01/2014  02:41:00     -100.849      -24.469       -3.186       23.584       20.807       15.294      556.202      432.925      233.904        0.600        0.061      103.775       12.442        0.014      329.417       -3.861      860.844
02/01/2014  02:42:00      -99.330      -20.868       -0.689       18.278       21.474       14.218      334.070      461.138      202.160        0.565        0.050      101.498       10.972        0.012      329.413       -3.866      860.845
02/01/2014  02:43:00      -95.048      -20.626       -8.795       19.005       15.461       14.781      361.205      239.029      218.465        0.518        0.041       97.260       11.431        0.014      329.372       -3.936      860.845
02/01/2014  02:44:00      -78.144      -13.815        0.991       28.656       19.607       13.188      821.177      384.439      173.919        0.384        0.069       79.355       14.292        0.032      329.359       -3.957      860.840
02/01/2014  02:45:00      -56.637      -13.527        4.286       25.895       16.206       12.685      670.546      262.640      160.906        0.225        0.055       58.230       12.316        0.045      329.418       -3.859      860.832
02/01/2014  02:46:00      -63.746      -16.632       -0.490       16.990       16.922       12.078      288.648      286.346      145.881        0.253        0.036       65.881        9.117        0.019      329.421       -3.856      860.826
02/01/2014  02:47:00      -79.774      -13.241       -6.112       17.493       17.785       12.355      305.994      316.307      152.650        0.368        0.039       80.865        5.501        0.005      329.408       -3.875      860.824
02/01/2014  02:48:00      -67.481       -9.026       -1.576       18.974       22.569       12.658      360.001      509.356      160.234        0.283        0.051       68.082       10.077        0.022      329.434       -3.834      860.832
02/01/2014  02:49:00     -103.825      -21.062       -6.069       22.821       19.992       14.572      520.805      399.668      212.345        0.620        0.057      105.940       11.703        0.012      329.405       -3.880      860.831
02/01/2014  02:50:00     -125.967      -41.457       -2.965       18.749       15.307       14.251      351.533      234.318      203.082        0.919        0.039      132.613        9.758        0.005      329.385       -3.914      860.823
02/01/2014  02:51:00     -122.919      -51.636      -12.557       10.167       14.682       12.849      103.363      215.560      165.106        0.921        0.024      133.324        5.480        0.002      329.327       -4.009      860.814
02/01/2014  02:52:00     -113.945      -21.097      -12.057       26.493       22.136       16.100      701.880      490.015      259.203        0.751        0.073      115.881       11.838        0.010      329.313       -4.031      860.808
02/01/2014  02:53:00     -106.243      -30.975       -0.637       28.587       25.556       17.782      817.239      653.123      316.195        0.702        0.089      110.667       16.713        0.023      329.323       -4.016      860.810
02/01/2014  02:54:00     -115.699      -40.684       -6.614       19.902       25.449       14.735      396.091      647.650      217.119        0.817        0.063      122.643       11.152        0.008      329.301       -4.049      860.802
02/01/2014  02:55:00     -112.252      -28.984       -5.408       24.545       23.505       16.938      602.467      552.500      286.892        0.746        0.072      115.933       16.428        0.020      329.255       -4.126      860.808
02/01/2014  02:56:00     -110.547      -14.790       -8.034       22.461       20.539       12.827      504.480      421.832      164.538        0.680        0.055      111.532       11.375        0.010      329.253       -4.128      860.805
02/01/2014  02:57:00      -86.969      -11.949        0.698       32.970       18.627       20.702     1087.005      346.949      428.579        0.478        0.093       87.786       21.258        0.059      329.225       -4.175      860.808
02/01/2014  02:58:00     -113.230        2.268       -5.355       29.656       19.554       18.325      879.482      382.359      335.808        0.723        0.080      113.253       18.888        0.028      329.165       -4.273      860.806
02/01/2014  02:59:00      -96.554       -8.981       -6.358       39.402       20.389       21.794     1552.523      415.712      474.987        0.594        0.122       96.971       22.480        0.054      329.210       -4.199      860.808
02/01/2014  03:00:00     -122.031      -23.366      -10.536       36.503       20.680       13.916     1332.505      427.661      193.657        0.875        0.098      124.248       12.995        0.011      329.209       -4.199      860.793
02/01/2014  03:01:00     -101.766      -18.589       -2.028       34.269       31.533       22.048     1174.350      994.330      486.117        0.668        0.133      103.450       20.466        0.039      329.156       -4.287      860.804
02/01/2014  03:02:00     -106.045      -15.734       -4.721       31.790       25.845       22.101     1010.601      667.971      488.466        0.684        0.108      107.206       19.899        0.034      329.106       -4.369      860.800
02/01/2014  03:03:00      -91.345      -11.474       -3.984       30.612       28.236       18.731      937.073      797.291      350.840        0.529        0.104       92.062       12.843        0.019      329.031       -4.492      860.794
02/01/2014  03:04:00      -99.915      -19.080       -7.314       35.164       26.401       15.953     1236.517      697.004      254.507        0.629        0.109      101.720       15.193        0.022      329.022       -4.508      860.794
02/01/2014  03:05:00      -76.622        2.014       -8.092       23.469       24.637       18.816      550.811      607.003      354.057        0.373        0.076       76.648       13.655        0.032      329.026       -4.499      860.797
02/01/2014  03:06:00      -92.790       13.718       -7.051       28.441       26.101       17.811      808.874      681.267      317.237        0.533        0.090       93.799       10.426        0.012      329.120       -4.346      860.815
02/01/2014  03:07:00      -62.559       -5.629       -3.798       20.539       21.349       13.066      421.868      455.785      170.733        0.250        0.052       62.812        9.889        0.025      329.160       -4.281      860.815
02/01/2014  03:08:00      -92.197      -14.926       -4.919       27.307       30.755       16.661      745.661      945.876      277.585        0.536        0.098       93.398        6.699        0.005      329.203       -4.212      860.813
02/01/2014  03:09:00     -115.110      -15.665       -9.866       32.487       20.489       17.542     1055.431      419.780      307.731        0.769        0.089      116.171       17.511        0.023      329.084       -4.405      860.815
02/01/2014  03:10:00     -113.240       -1.157       -9.748       32.538       18.355       15.749     1058.706      336.904      248.025        0.728        0.082      113.246       16.531        0.021      329.045       -4.468      860.812
02/01/2014  03:11:00     -101.235      -36.349      -11.665       20.808       18.363       13.829      432.976      337.186      191.240        0.633        0.048      107.563        8.271        0.006      329.066       -4.436      860.813
02/01/2014  03:12:00      -94.938      -18.190       -5.372       20.034       18.255       16.202      401.357      333.244      262.509        0.518        0.050       96.665       12.617        0.017      329.031       -4.491      860.819
02/01/2014  03:13:00      -78.612      -17.456       -8.706       23.680       15.540       10.078      560.757      241.487      101.566        0.373        0.045       80.526        8.814        0.012      329.094       -4.389      860.816
02/01/2014  03:14:00      -93.351        3.026       -8.261       22.534       14.440       15.124      507.783      208.518      228.732        0.487        0.047       93.400       13.346        0.020      329.131       -4.327      860.808
02/01/2014  03:15:00      -96.346       -4.483      -12.418       21.461       19.460       15.619      460.559      378.703      243.964        0.527        0.054       96.450       10.795        0.013      329.116       -4.353      860.798
02/01/2014  03:16:00      -83.995        1.234      -16.337       30.921       27.751       21.538      956.098      770.092      463.885        0.476        0.110       84.004       18.174        0.047      329.143       -4.309      860.792
02/01/2014  03:17:00      -98.399       25.645       -8.693       31.335       26.983       17.679      981.911      728.068      312.535        0.622        0.101      101.686        7.347        0.005      329.124       -4.340      860.792
02/01/2014  03:18:00      -83.155        0.621       -1.463       34.997       28.786       19.236     1224.786      828.656      370.038        0.467        0.121       83.157       17.127        0.042      329.102       -4.376      860.799
02/01/2014  03:19:00      -68.658      -14.768        2.631       36.815       29.512       19.246     1355.365      870.944      370.420        0.377        0.130       70.229       17.818        0.064      329.093       -4.389      860.797
02/01/2014  03:20:00      -97.330      -26.211      -12.960       25.741       30.302       17.660      662.624      918.192      311.872        0.611        0.095      100.798       16.308        0.026      329.014       -4.519      860.801
02/01/2014  03:21:00      -76.576      -13.296       -5.642       28.999       31.429       19.865      840.957      987.754      394.634        0.415        0.111       77.721       13.383        0.030      329.013       -4.520      860.809
02/01/2014  03:22:00      -99.020      -27.914       -4.037       27.991       37.443       18.863      783.487     1402.001      355.816        0.657        0.127      102.879       14.941        0.021      329.026       -4.501      860.823
02/01/2014  03:23:00      -79.253      -31.173       -2.247       38.225       25.110       19.097     1461.175      630.502      364.680        0.486        0.123       85.164       20.540        0.058      328.993       -4.555      860.826
02/01/2014  03:24:00      -93.330      -12.714       -1.374       28.102       20.886       19.588      789.725      436.216      383.701        0.524        0.080       94.192       18.551        0.039      328.964       -4.601      860.836
02/01/2014  03:25:00     -114.654      -17.118      -10.618       11.577       10.261       11.751      134.035      105.282      138.089        0.696        0.019      115.925        4.869        0.002      329.013       -4.521      860.834
02/01/2014  03:26:00      -69.428      -43.168        2.399       33.189       27.284       16.631     1101.514      744.441      276.595        0.441        0.106       81.754       14.038        0.029      329.077       -4.417      860.833
02/01/2014  03:27:00      -77.775      -47.813       -2.662       30.372       22.077       17.517      922.452      487.395      306.846        0.503        0.086       91.297       11.668        0.016      329.026       -4.500      860.822
02/01/2014  03:28:00      -90.924      -40.818       -4.047       20.208       16.160       13.323      408.377      261.153      177.494        0.540        0.042       99.666        6.225        0.004      328.995       -4.551      860.815
02/01/2014  03:29:00      -85.005      -52.114      -10.624       29.357       16.419       14.652      861.834      269.586      214.677        0.570        0.067       99.709        7.931        0.006      329.059       -4.445      860.806
02/01/2014  03:30:00      -84.860      -53.802       -6.474       30.749       17.110       15.459      945.490      292.752      238.995        0.581        0.074      100.478       14.684        0.021      329.061       -4.442      860.789
02/01/2014  03:31:00      -97.228      -54.885       -7.640       30.225       23.324       14.401      913.523      543.993      207.390        0.709        0.083      111.649       10.981        0.010      329.010       -4.526      860.782
02/01/2014  03:32:00     -111.866      -31.238      -12.048       29.314       24.512       14.041      859.296      600.840      197.162        0.765        0.083      116.146       11.042        0.009      328.969       -4.592      860.789
02/01/2014  03:33:00     -114.697      -35.905      -12.189       29.094       18.888       12.346      846.463      356.769      152.428        0.797        0.068      120.186       10.859        0.008      328.899       -4.707      860.804
02/01/2014  03:34:00      -89.335      -20.359       -3.330       22.951       22.365       17.559      526.727      500.193      308.318        0.487        0.067       91.625       12.971        0.020      328.936       -4.645      860.821
02/01/2014  03:35:00      -64.827      -46.236       -3.363       33.985       24.032       15.762     1154.955      577.531      248.453        0.417        0.099       79.626       13.961        0.031      329.016       -4.516      860.837
02/01/2014  03:36:00      -97.975      -33.103       -9.047       26.906       28.368       14.398      723.929      804.749      207.301        0.626        0.087      103.416       10.098        0.010      328.954       -4.618      860.856
02/01/2014  03:37:00      -89.079      -34.056       -0.525       22.658       24.501       16.342      513.380      600.309      267.073        0.524        0.069       95.367       10.373        0.012      328.913       -4.683      860.876
02/01/2014  03:38:00     -110.355      -46.819       -3.113       22.580       22.545       18.929      509.848      508.275      358.293        0.788        0.069      119.876        9.224        0.006      328.872       -4.751      860.896
02/01/2014  03:39:00     -100.883      -31.378       -3.880       33.042       24.141       14.349     1091.785      582.775      205.882        0.653        0.094      105.650       11.318        0.011      328.913       -4.685      860.916
02/01/2014  03:40:00     -107.611      -26.350       -1.343       20.902       21.346       15.258      436.887      455.634      232.811        0.670        0.056      110.790       12.645        0.013      328.922       -4.669      860.935
02/01/2014  03:41:00     -100.004      -23.227       -0.119       24.491       25.190       15.183      599.795      634.535      230.530        0.600        0.073      102.666       11.183        0.012      328.939       -4.641      860.948
02/01/2014  03:42:00      -77.523      -26.714        0.266       38.008       20.978       18.137     1444.627      440.093      328.957        0.447        0.111       81.997       15.934        0.038      328.975       -4.584      860.949
02/01/2014  03:43:00      -71.568      -20.326        0.945       24.541       25.925       14.741      602.264      672.119      217.299        0.351        0.075       74.398       15.310        0.042      329.035       -4.484      860.948
02/01/2014  03:44:00      -62.007      -21.283        7.087       33.399       20.500       17.547     1115.509      420.240      307.894        0.310        0.092       65.558       17.095        0.068      329.046       -4.468      860.942
02/01/2014  03:45:00      -78.849      -20.888       -3.279       21.529       21.118       14.823      463.495      445.964      219.710        0.390        0.056       81.569       11.135        0.019      329.099       -4.380      860.935
02/01/2014  03:46:00      -68.945      -30.159       -2.577       15.413       15.983       13.961      237.551      255.467      194.906        0.318        0.034       75.252        9.909        0.017      329.086       -4.400      860.932
02/01/2014  03:47:00      -74.193      -24.335       -8.760       22.929       17.404       11.285      525.722      302.902      127.351        0.356        0.048       78.082        6.296        0.007      329.081       -4.410      860.937
02/01/2014  03:48:00      -97.918       -6.369       -2.864       31.878       23.421       15.987     1016.179      548.543      255.595        0.573        0.091       98.125       13.681        0.019      328.957       -4.614      860.944
02/01/2014  03:49:00     -109.794      -13.835      -10.655       23.805       19.545       14.955      566.678      381.989      223.651        0.677        0.059      110.662       13.157        0.014      328.945       -4.633      860.961
02/01/2014  03:50:00     -110.358      -18.733      -11.775       25.339       18.560       16.776      642.054      344.467      281.428        0.697        0.063      111.936       16.238        0.021      328.909       -4.691      860.976
02/01/2014  03:51:00     -115.413      -19.857       -7.489       23.036       15.438       14.382      530.636      238.339      206.841        0.737        0.049      117.109       13.694        0.014      328.954       -4.617      860.986
02/01/2014  03:52:00     -107.416      -17.327       -5.473       26.828       24.063       15.958      719.720      579.044      254.651        0.671        0.078      108.804       13.962        0.016      328.951       -4.622      860.983
02/01/2014  03:53:00     -104.826       -6.084       -6.318       27.305       24.383       16.464      745.569      594.550      271.058        0.634        0.081      105.003       17.490        0.028      328.865       -4.763      860.986
02/01/2014  03:54:00     -101.925       -1.282       -3.256       28.039       18.473       19.064      786.169      341.242      363.434        0.595        0.075      101.933       16.174        0.025      328.859       -4.772      860.987
02/01/2014  03:55:00     -112.657       -7.924      -10.529       20.978       17.823       14.118      440.076      317.666      199.306        0.691        0.048      112.935       10.245        0.008      328.803       -4.864      860.980
02/01/2014  03:56:00     -101.319       -9.617       -5.365       18.397       19.435       12.872      338.466      377.726      165.677        0.563        0.044      101.775        5.798        0.003      328.803       -4.864      860.971
02/01/2014  03:57:00      -86.931       -9.021       -8.712       21.270       14.278       14.827      452.392      203.868      219.844        0.430        0.044       87.398       12.211        0.020      328.815       -4.844      860.965
02/01/2014  03:58:00     -104.488      -18.331      -16.225       11.301       12.552        8.287      127.715      157.546       68.681        0.594        0.018      106.084        3.982        0.001      328.764       -4.927      860.966
02/01/2014  03:59:00     -111.713      -21.306      -10.869       19.639       16.356       16.702      385.696      267.511      278.957        0.699        0.047      113.726       14.765        0.017      328.848       -4.791      860.961
02/01/2014  04:00:00      -99.701      -29.266      -12.496       15.854       18.552       11.873      251.347      344.190      140.964        0.584        0.037      103.908        7.412        0.005      328.857       -4.777      860.955
02/01/2014  04:01:00     -134.062      -52.644       -3.415       25.059       21.437       15.285      627.953      459.536      233.639        1.104        0.066      144.028       15.165        0.011      328.882       -4.737      860.954
02/01/2014  04:02:00     -121.747      -37.201        5.803       32.933       30.119       21.396     1084.561      907.169      457.776        0.934        0.122      127.303       20.768        0.027      328.859       -4.773      860.953
02/01/2014  04:03:00      -82.573      -56.503        3.775       37.209       22.342       19.837     1384.481      499.153      393.525        0.615        0.114      100.055       14.778        0.022      328.950       -4.624      860.950
02/01/2014  04:04:00      -85.686      -49.574        1.644       41.020       30.745       21.796     1682.601      945.241      475.055        0.645        0.155       98.993       21.367        0.047      328.955       -4.616      860.957
02/01/2014  04:05:00      -74.767      -54.287       -4.051       47.106       26.690       19.898     2218.967      712.374      395.919        0.594        0.166       92.397        9.677        0.011      328.996       -4.549      860.966
02/01/2014  04:06:00      -89.730      -67.633       -3.301       37.413       35.157       20.675     1399.762     1236.005      427.444        0.785        0.153      112.364       18.009        0.026      328.931       -4.656      860.974
02/01/2014  04:07:00      -79.305      -85.657       -1.897       42.935       43.395       21.612     1843.382     1883.161      467.091        0.891        0.210      116.732       15.786        0.018      328.906       -4.697      860.981
02/01/2014  04:08:00     -101.293     -106.678       -4.174       31.201       41.198       22.247      973.494     1697.285      494.950        1.241        0.158      147.107       19.063        0.017      328.914       -4.682      860.997
02/01/2014  04:09:00      -97.542      -78.781       -6.495       52.912       31.536       24.067     2799.730      994.551      579.197        1.007        0.219      125.382       18.645        0.022      328.963       -4.601      861.003
02/01/2014  04:10:00     -108.644      -99.399       -3.020       38.294       37.316       29.283     1466.400     1392.520      857.505        1.270        0.186      147.254       18.455        0.016      328.942       -4.637      861.021
02/01/2014  04:11:00      -92.242      -98.957       -6.658       35.215       52.262       25.513     1240.086     2731.302      650.911        1.148        0.231      135.281       17.996        0.018      328.950       -4.624      861.050
02/01/2014  04:12:00     -123.095     -100.331      -12.153       43.548       31.567       31.100     1896.460      996.484      967.223        1.461        0.193      158.804       19.434        0.015      328.923       -4.668      861.078
02/01/2014  04:13:00      -92.697      -97.016       -7.431       44.275       37.563       21.204     1960.298     1410.962      449.605        1.094        0.191      134.183        8.172        0.004      328.951       -4.622      861.107
02/01/2014  04:14:00     -123.068     -115.490      -13.734       23.377       40.565       20.508      546.507     1645.505      420.579        1.564        0.131      168.771       18.743        0.012      328.889       -4.724      861.125
02/01/2014  04:15:00     -112.398     -106.348      -14.581       34.439       38.681       23.913     1186.071     1496.188      571.820        1.370        0.163      154.736       18.461        0.014      328.865       -4.762      861.150
02/01/2014  04:16:00     -103.761     -107.334       -4.618       55.690       49.171       28.996     3101.358     2417.836      840.743        1.433        0.318      149.288       30.843        0.043      328.867       -4.760      861.165
02/01/2014  04:17:00     -131.384     -120.616      -15.076       50.087       59.299       22.701     2508.746     3516.325      515.325        1.929        0.327      178.353       23.523        0.017      328.795       -4.877      861.180
02/01/2014  04:18:00      -84.035      -89.003        8.163       42.946       44.120       27.639     1844.396     1946.535      763.910        0.980        0.228      122.407       27.670        0.051      328.810       -4.852      861.183
02/01/2014  04:19:00      -92.429     -101.857        0.100       41.445       48.147       25.130     1717.667     2318.152      631.506        1.179        0.233      137.543       25.878        0.035      328.863       -4.767      861.189
02/01/2014  04:20:00     -136.758     -105.888      -16.805       51.062       39.784       33.306     2607.370     1582.776     1109.321        1.775        0.265      172.960       32.645        0.036      328.791       -4.885      861.196
02/01/2014  04:21:00     -139.018     -119.190      -11.024       59.493       48.639       30.101     3539.424     2365.743      906.045        2.023        0.341      183.118       18.240        0.010      328.793       -4.881      861.208
02/01/2014  04:22:00      -89.414      -78.183        4.308       58.967       38.874       28.942     3477.058     1511.209      837.621        0.997        0.291      118.775       18.693        0.025      328.836       -4.810      861.231
02/01/2014  04:23:00      -81.527      -51.292        6.606       68.133       44.154       35.349     4642.039     1949.570     1249.522        0.858        0.392       96.320       35.709        0.137      328.842       -4.800      861.246
02/01/2014  04:24:00      -32.482      -41.715       15.579       54.915       45.687       34.235     3015.654     2087.267     1172.015        0.466        0.314       52.870       31.482        0.355      328.851       -4.785      861.257
02/01/2014  04:25:00      -60.666      -47.364        2.016       68.612       50.634       28.205     4707.643     2563.841      795.506        0.700        0.403       76.966       38.387        0.249      328.850       -4.787      861.262
02/01/2014  04:26:00     -141.786     -111.318      -11.790       47.017       37.053       30.713     2210.612     1372.937      943.293        1.858        0.226      180.263       21.317        0.014      328.799       -4.871      861.266
02/01/2014  04:27:00     -119.287     -112.768       -5.717       51.378       48.423       25.478     2639.704     2344.829      649.104        1.631        0.282      164.152       29.009        0.031      328.828       -4.824      861.277
02/01/2014  04:28:00     -125.093     -134.224       -8.177       45.454       39.401       26.726     2066.110     1552.413      714.285        1.903        0.217      183.478       24.982        0.019      328.815       -4.846      861.289
02/01/2014  04:29:00     -125.935     -103.033      -12.843       61.922       44.306       28.635     3834.349     1963.040      819.990        1.663        0.331      162.713       12.525        0.006      328.817       -4.842      861.290
02/01/2014  04:30:00      -89.494      -64.172       -7.922       53.395       50.136       26.275     2851.014     2513.666      690.363        0.912        0.303      110.124       16.746        0.023      328.716       -5.006      861.306
02/01/2014  04:31:00     -139.154      -97.508      -13.564       49.861       47.640       24.802     2486.082     2269.541      615.151        1.721        0.269      169.917       19.913        0.014      328.702       -5.029      861.318
02/01/2014  04:32:00     -100.567      -69.871      -11.830       41.138       42.241       21.163     1692.371     1784.343      447.861        0.953        0.196      122.457       18.125        0.022      328.702       -5.029      861.333
02/01/2014  04:33:00     -112.654      -91.795       -0.318       43.944       29.924       22.645     1931.066      895.471      512.796        1.223        0.167      145.318       21.649        0.022      328.697       -5.037      861.338
02/01/2014  04:34:00     -115.798     -108.138      -11.755       26.426       26.714       20.489      698.335      713.619      419.808        1.354        0.092      158.440       15.980        0.010      328.704       -5.026      861.347
02/01/2014  04:35:00      -98.599      -90.646       -7.031       28.974       41.706       19.674      839.515     1739.391      387.051        1.048        0.148      133.934       15.209        0.013      328.760       -4.934      861.343
02/01/2014  04:36:00     -112.391      -87.840       -5.559       37.765       33.392       27.273     1426.161     1115.024      743.844        1.183        0.164      142.644       27.624        0.038      328.744       -4.959      861.338
02/01/2014  04:37:00      -96.143     -119.996       -8.390       29.266       29.385       17.922      856.514      863.470      321.195        1.288        0.102      153.761       16.362        0.011      328.828       -4.822      861.343
02/01/2014  04:38:00     -104.597      -87.282       -7.541       34.834       33.858       23.639     1213.426     1146.385      558.810        1.077        0.146      136.230       20.201        0.022      328.834       -4.813      861.346
02/01/2014  04:39:00      -76.587      -80.259       -7.033       48.692       34.191       22.433     2370.898     1169.038      503.217        0.820        0.202      110.937       23.381        0.044      328.869       -4.756      861.338
02/01/2014  04:40:00      -61.698      -77.561       -5.663       35.854       30.699       16.665     1285.487      942.446      277.736        0.618        0.125       99.108       15.695        0.025      328.877       -4.742      861.327
02/01/2014  04:41:00      -66.761      -38.666       -9.509       27.627       25.685       18.181      763.250      659.712      330.553        0.390        0.088       77.150        9.326        0.015      328.918       -4.677      861.318
02/01/2014  04:42:00      -65.059      -48.496      -13.887       21.241       20.774       14.912      451.165      431.574      222.365        0.394        0.055       81.145        6.567        0.007      328.935       -4.649      861.319
02/01/2014  04:43:00      -23.742      -34.502        8.001       26.292       18.282       17.977      691.282      334.229      323.189        0.158        0.067       41.882       16.450        0.154      328.978       -4.578      861.328
02/01/2014  04:44:00       -9.516      -25.904       13.221       28.126       23.559       14.732      791.075      555.010      217.025        0.125        0.078       27.596        9.095        0.109      329.040       -4.478      861.342
02/01/2014  04:45:00      -39.640      -24.160        6.651       30.081       22.066       15.393      904.839      486.908      236.942        0.191        0.081       46.422       12.587        0.074      328.928       -4.659      861.352
02/01/2014  04:46:00      -31.290      -19.259        9.214       38.874       19.933       13.793     1511.163      397.314      190.240        0.177        0.105       36.742       15.865        0.186      328.930       -4.656      861.358
02/01/2014  04:47:00      -50.029       -8.180       -5.670       21.485       18.844       10.218      461.614      355.080      104.400        0.176        0.046       50.694        8.215        0.026      328.946       -4.632      861.362
02/01/2014  04:48:00      -59.459        1.240       -4.547       10.835       24.824        9.553      117.399      616.233       91.269        0.219        0.041       59.471        9.283        0.024      328.858       -4.775      861.361
02/01/2014  04:49:00      -42.916       35.355        2.192       17.895       13.674       13.047      320.243      186.983      170.217        0.189        0.034       55.604       10.484        0.036      328.818       -4.840      861.361
02/01/2014  04:50:00      -36.994       28.216       -1.797       14.435       15.000       10.467      208.366      224.995      109.568        0.136        0.027       46.527        8.175        0.031      328.810       -4.852      861.379
02/01/2014  04:51:00       -2.476       56.755       -7.632       20.070       39.754       15.429      402.804     1580.342      238.058        0.275        0.111       56.809       19.050        0.112      328.674       -5.075      861.399
02/01/2014  04:52:00      -10.213       42.532       -2.522       23.857       27.681       14.352      569.139      766.265      205.980        0.173        0.077       43.741        9.266        0.045      328.647       -5.119      861.417
02/01/2014  04:53:00       -7.935       70.065       -7.781       11.001       31.989        8.083      121.013     1023.279       65.336        0.312        0.060       70.513       10.572        0.022      328.705       -5.024      861.426
02/01/2014  04:54:00       -6.179       84.235       -6.659       13.145       19.362        7.901      172.800      374.902       62.428        0.389        0.031       84.461        8.152        0.009      328.663       -5.092      861.425
02/01/2014  04:55:00      -18.489       60.438       -7.197       19.456       24.982       12.395      378.547      624.089      153.646        0.260        0.058       63.202        8.814        0.019      328.673       -5.074      861.421
02/01/2014  04:56:00      -25.727       21.745       -4.040       18.713       15.852       12.003      350.194      251.285      144.077        0.095        0.037       33.686        5.869        0.030      328.744       -4.961      861.417
02/01/2014  04:57:00      -33.646        7.803        0.826       12.840       13.681       11.226      164.877      187.181      126.028        0.084        0.024       34.539        6.391        0.034      328.656       -5.103      861.419
02/01/2014  04:58:00      -52.751       16.914       -2.835       16.807       17.743        9.997      282.488      314.823       99.942        0.189        0.035       55.396        7.855        0.020      328.659       -5.099      861.422
02/01/2014  04:59:00      -41.198        4.380       -5.135       15.345       26.206       11.209      235.479      686.754      125.640        0.140        0.052       41.430       11.279        0.074      328.723       -4.995      861.422
02/01/2014  05:00:00      -46.817      -12.624       -7.869       11.676        9.514        7.234      136.332       90.514       52.328        0.135        0.014       48.489        5.254        0.012      328.632       -5.142      861.428
02/01/2014  05:01:00      -49.870      -11.981       -8.180        9.217       11.940        7.880       84.951      142.562       62.098        0.149        0.014       51.289        3.886        0.006      328.606       -5.186      861.435
02/01/2014  05:02:00      -49.538      -24.666       -4.120       14.340       13.531        9.568      205.647      183.095       91.544        0.178        0.024       55.339        7.682        0.019      328.617       -5.167      861.443
02/01/2014  05:03:00      -23.840      -22.182        6.125       30.517       13.141       14.477      931.306      172.684      209.598        0.121        0.066       32.564       18.510        0.323      328.709       -5.018      861.444
02/01/2014  05:04:00      -30.922      -15.858        5.325       26.747       14.372       14.932      715.409      206.544      222.954        0.119        0.057       34.752       15.962        0.211      328.703       -5.027      861.449
02/01/2014  05:05:00      -55.455      -30.183        3.186       28.897       21.708       14.938      835.051      471.232      223.148        0.276        0.076       63.136       15.894        0.063      328.594       -5.205      861.453
02/01/2014  05:06:00      -51.475      -23.925        3.861       31.507       23.996       17.372      992.708      575.795      301.770        0.255        0.094       56.763       16.955        0.089      328.665       -5.089      861.465
02/01/2014  05:07:00      -40.850      -27.087        1.260       37.932       18.816       14.179     1438.816      354.058      201.034        0.220        0.100       49.015       16.527        0.114      328.811       -4.851      861.479
02/01/2014  05:08:00      -35.191      -26.637        3.213       35.710       23.398       18.350     1275.238      547.446      336.726        0.206        0.108       44.136       22.137        0.252      328.848       -4.790      861.503
02/01/2014  05:09:00      -66.565      -45.263        6.812       40.072       26.573       20.058     1605.743      706.105      402.311        0.462        0.136       80.496       22.709        0.080      328.830       -4.820      861.541
02/01/2014  05:10:00      -58.146      -37.165        4.307       56.248       38.279       20.768     3163.802     1465.311      431.305        0.492        0.253       69.009       25.217        0.134      328.832       -4.817      861.569
02/01/2014  05:11:00      -79.652      -83.532       -1.432       29.771       32.786       23.103      886.338     1074.915      533.760        0.791        0.125      115.421       18.531        0.026      328.867       -4.759      861.601
02/01/2014  05:12:00      -86.213      -65.912        1.628       47.416       40.778       25.885     2248.275     1662.814      670.032        0.818        0.229      108.522       25.628        0.056      328.821       -4.834      861.625
02/01/2014  05:13:00      -77.573      -88.410        1.701       43.872       26.092       24.268     1924.784      680.786      588.914        0.852        0.160      117.618       22.898        0.038      328.759       -4.935      861.641
02/01/2014  05:14:00     -109.271      -90.139       -2.277       42.648       48.429       24.488     1818.844     2345.353      599.650        1.242        0.238      141.652       18.886        0.018      328.702       -5.029      861.653
02/01/2014  05:15:00     -119.604      -91.397       -4.271       44.854       41.825       25.226     2011.841     1749.331      636.337        1.354        0.220      150.527       11.027        0.005      328.631       -5.145      861.665
02/01/2014  05:16:00      -95.602      -64.270        1.681       55.657       47.312       30.134     3097.667     2238.381      908.042        0.976        0.312      115.197       27.763        0.058      328.649       -5.114      861.671
02/01/2014  05:17:00     -124.912      -89.278       -1.002       74.738       51.193       35.632     5585.810     2620.692     1269.617        1.652        0.474      153.537       32.951        0.046      328.571       -5.244      861.677
02/01/2014  05:18:00     -143.321     -109.893       -2.728       70.721       51.451       34.899     5001.440     2647.157     1217.947        2.074        0.443      180.603       33.790        0.035      328.527       -5.315      861.684
02/01/2014  05:19:00     -155.952     -106.031      -12.829       46.048       42.556       28.255     2120.392     1811.013      798.335        2.023        0.236      188.584       27.072        0.021      328.506       -5.350      861.689
02/01/2014  05:20:00     -146.893     -110.229       -4.375       47.488       47.471       31.529     2255.104     2253.461      994.083        1.962        0.275      183.652       29.450        0.026      328.486       -5.382      861.691
02/01/2014  05:21:00     -136.407      -91.734       -4.094       42.257       50.267       26.180     1785.647     2526.763      685.386        1.602        0.250      164.384       16.134        0.010      328.477       -5.397      861.698
02/01/2014  05:22:00      -62.254      -45.511        3.484       63.155       40.148       26.700     3988.583     1611.862      712.892        0.614        0.316       77.116       31.529        0.167      328.495       -5.366      861.714
02/01/2014  05:23:00      -98.618      -96.097        4.131       70.977       46.835       33.067     5037.736     2193.477     1093.423        1.365        0.416      137.696       34.532        0.063      328.478       -5.394      861.712
02/01/2014  05:24:00     -126.651     -124.173      -10.000       53.736       61.275       35.601     2887.526     3754.614     1267.415        1.973        0.395      177.368       29.038        0.027      328.433       -5.469      861.719
02/01/2014  05:25:00     -121.214     -117.313        0.403       53.368       42.663       25.402     2848.130     1820.096      645.239        1.688        0.266      168.687       24.646        0.021      328.459       -5.427      861.717
02/01/2014  05:26:00     -128.169      -93.543       -5.727       48.024       38.293       32.186     2306.312     1466.349     1035.957        1.501        0.240      158.674       24.632        0.024      328.432       -5.470      861.731
02/01/2014  05:27:00     -128.788     -120.382       -8.956       55.236       38.174       24.275     3050.975     1457.291      589.275        1.813        0.255      176.290       25.278        0.021      328.418       -5.493      861.746
02/01/2014  05:28:00     -110.805      -87.253      -14.750       42.656       32.774       24.589     1819.509     1074.148      604.638        1.180        0.175      141.035       23.091        0.027      328.449       -5.441      861.746
02/01/2014  05:29:00     -118.781      -84.495       -5.918       50.044       39.449       28.904     2504.369     1556.212      835.415        1.309        0.245      145.768       29.477        0.041      328.440       -5.456      861.748
02/01/2014  05:30:00     -104.626      -72.685       -9.679       48.560       37.052       26.101     2358.098     1372.825      681.244        1.037        0.221      127.396       20.615        0.026      328.462       -5.419      861.761
02/01/2014  05:31:00     -115.677      -94.660       -3.408       44.491       41.113       28.794     1979.460     1690.319      829.102        1.343        0.225      149.471       27.507        0.034      328.470       -5.407      861.773
02/01/2014  05:32:00      -70.494      -68.119       12.020       59.738       37.843       25.045     3568.610     1432.079      627.273        0.769        0.281       98.029       28.195        0.083      328.551       -5.274      861.771
02/01/2014  05:33:00      -58.478      -57.197       10.998       56.229       41.694       29.942     3161.669     1738.383      896.547        0.630        0.290       81.799       30.723        0.141      328.527       -5.315      861.769
02/01/2014  05:34:00      -53.032      -66.124        7.996       55.686       47.122       24.391     3100.938     2220.472      594.900        0.658        0.296       84.763       24.672        0.085      328.549       -5.278      861.773
02/01/2014  05:35:00      -82.620      -67.450        6.320       49.909       48.063       24.966     2490.942     2310.083      623.300        0.842        0.271      106.656       28.703        0.072      328.507       -5.347      861.782
02/01/2014  05:36:00      -37.816      -43.174        8.841       34.300       37.508       21.928     1176.480     1406.824      480.830        0.322        0.153       57.394       21.473        0.140      328.528       -5.313      861.784
02/01/2014  05:37:00     -101.105      -98.481       -8.803       41.774       27.405       21.976     1745.036      751.057      482.953        1.149        0.149      141.141       21.466        0.023      328.508       -5.345      861.787
02/01/2014  05:38:00      -89.857      -87.781       -2.307       47.854       40.995       22.605     2289.993     1680.558      510.981        1.013        0.224      125.618       20.992        0.028      328.506       -5.349      861.790
02/01/2014  05:39:00      -96.658      -88.130       -8.164       29.385       30.753       24.252      863.464      945.731      588.171        0.979        0.120      130.804       16.415        0.016      328.507       -5.346      861.801
02/01/2014  05:40:00      -67.935      -73.962       -6.226       44.713       32.918       28.471     1999.237     1083.624      810.594        0.701        0.195      100.426       26.995        0.072      328.526       -5.315      861.818
02/01/2014  05:41:00      -75.032      -76.662       -1.181       31.334       28.178       23.016      981.841      794.021      529.737        0.691        0.115      107.270       18.394        0.029      328.517       -5.331      861.832
02/01/2014  05:42:00      -89.838      -68.618       -5.320       29.897       39.645       22.756      893.856     1571.718      517.853        0.789        0.149      113.045       14.407        0.016      328.506       -5.349      861.836
02/01/2014  05:43:00      -80.634      -68.952       -4.929       26.046       27.924       16.412      678.416      779.759      269.352        0.650        0.086      106.095       12.479        0.014      328.550       -5.276      861.841
02/01/2014  05:44:00      -27.726      -43.497        5.424       30.354       38.644       16.619      921.356     1493.326      276.188        0.269        0.135       51.583       18.469        0.128      328.565       -5.252      861.846
02/01/2014  05:45:00      -25.246      -19.752        9.452       32.412       20.343       16.131     1050.565      413.823      260.213        0.142        0.086       32.055       17.424        0.295      328.555       -5.269      861.860
02/01/2014  05:46:00      -73.458      -25.352       -4.721       16.051       22.390       13.358      257.638      501.332      178.423        0.350        0.047       77.710        5.195        0.004      328.515       -5.335      861.869
02/01/2014  05:47:00      -43.491      -42.210       -5.439       28.037       20.110       12.270      786.087      404.404      150.563        0.252        0.067       60.607       11.435        0.036      328.560       -5.260      861.872
02/01/2014  05:48:00      -63.170      -14.002       -6.527       21.476       17.087       12.742      461.221      291.968      162.362        0.257        0.046       64.704        7.563        0.014      328.447       -5.447      861.873
02/01/2014  05:49:00      -92.431       -9.987       -9.372       18.172       13.870       14.942      330.236      192.371      223.259        0.474        0.037       92.969       10.104        0.012      328.389       -5.540      861.873
02/01/2014  05:50:00      -82.455       -2.986      -10.742       36.228       20.101       15.981     1312.447      404.060      255.385        0.445        0.099       82.509       15.828        0.037      328.295       -5.692      861.875
02/01/2014  05:51:00     -104.860       11.719       -6.704       27.941       17.637       17.469      780.721      311.053      305.170        0.629        0.070      105.513       15.964        0.023      328.220       -5.815      861.875
02/01/2014  05:52:00      -73.213       -1.041       -9.427       27.067       25.318       14.766      732.623      640.995      218.030        0.352        0.080       73.221        7.580        0.011      328.219       -5.815      861.881
02/01/2014  05:53:00      -61.650        3.033       -7.561       29.328       21.039       15.856      860.118      442.645      251.424        0.271        0.078       61.725       13.127        0.045      328.195       -5.856      861.894
02/01/2014  05:54:00      -88.574       -2.131       -9.304       20.003       23.894       15.556      400.124      570.939      241.975        0.457        0.061       88.599        9.954        0.013      328.209       -5.833      861.902
02/01/2014  05:55:00      -70.746       -1.021       -0.535       35.824       18.760       17.741     1283.337      351.949      314.758        0.348        0.098       70.753       16.905        0.057      328.215       -5.823      861.909
02/01/2014  05:56:00      -99.978      -16.861       -6.921       39.292       21.220       17.633     1543.872      450.301      310.913        0.632        0.115      101.390       21.151        0.044      328.147       -5.933      861.913
02/01/2014  05:57:00      -81.726      -13.518       -4.416       33.088       17.614       13.390     1094.824      310.238      179.302        0.423        0.079       82.836       14.350        0.030      328.139       -5.949      861.920
02/01/2014  05:58:00      -79.630      -18.268       -6.776       18.200       14.765       10.937      331.249      217.996      119.613        0.369        0.033       81.699        8.978        0.012      328.228       -5.802      861.923
02/01/2014  05:59:00      -69.317      -24.198       -3.703       24.532       16.833       11.621      601.841      283.340      135.056        0.321        0.051       73.419       10.653        0.021      328.202       -5.842      861.928
02/01/2014  06:00:00      -31.384      -28.187        3.861       35.909       16.916       13.715     1289.467      286.161      188.104        0.178        0.088       42.183       17.868        0.179      328.309       -5.669      861.943
02/01/2014  06:01:00      -65.915      -20.149       -4.391       20.943       21.121       14.012      438.619      446.082      196.333        0.293        0.054       68.926       12.855        0.035      328.224       -5.807      861.955
02/01/2014  06:02:00      -55.059      -21.012       -3.583       10.928       12.155        7.863      119.426      147.736       61.827        0.191        0.016       58.932        6.377        0.012      328.184       -5.873      861.965
02/01/2014  06:03:00      -51.428      -28.539      -11.738       14.309       15.713       10.032      204.760      246.894      100.635        0.207        0.028       58.816        7.728        0.017      328.229       -5.800      861.982
02/01/2014  06:04:00      -33.425      -17.510       -2.522       21.503       13.822        9.406      462.372      191.038       88.474        0.109        0.037       37.733        9.628        0.065      328.229       -5.799      861.996
02/01/2014  06:05:00      -69.434      -19.312       -7.963       13.787       15.359        8.908      190.071      235.886       79.349        0.288        0.025       72.070        6.692        0.009      328.178       -5.884      862.002
02/01/2014  06:06:00      -67.699      -15.347       -9.646       15.174       13.278       11.692      230.240      176.305      136.712        0.273        0.027       69.417        9.556        0.019      328.226       -5.804      861.998
02/01/2014  06:07:00      -53.684       -9.886       -5.215       22.121       13.459       13.567      489.360      181.132      184.057        0.193        0.043       54.586        8.408        0.024      328.166       -5.903      861.996
02/01/2014  06:08:00      -82.527      -14.566       -7.737       13.958       16.101       12.867      194.825      259.230      165.570        0.385        0.031       83.803        7.497        0.008      328.104       -6.003      861.997
02/01/2014  06:09:00      -79.539      -11.089      -12.589       20.587       14.929       11.102      423.811      222.861      123.256        0.369        0.038       80.308        8.337        0.011      328.136       -5.950      862.006
02/01/2014  06:10:00      -65.736      -15.522       -7.760       15.102       16.234       10.983      228.071      263.550      120.629        0.262        0.031       67.544       11.037        0.027      328.189       -5.865      862.011
02/01/2014  06:11:00      -63.329      -20.913       -9.635       15.928       15.375        7.121      253.711      236.397       50.708        0.254        0.027       66.692        5.716        0.007      328.153       -5.924      862.014
02/01/2014  06:12:00      -51.740      -35.040      -11.442       14.596       13.951       11.802      213.038      194.636      139.293        0.229        0.027       62.488        8.646        0.019      328.188       -5.865      862.019
02/01/2014  06:13:00      -60.029      -27.908      -11.174       16.004       18.696        9.025      256.130      349.532       81.455        0.260        0.034       66.200        4.218        0.004      328.252       -5.764      862.021
02/01/2014  06:14:00      -66.601      -26.742       -8.515       11.782       14.917       10.589      138.817      222.520      112.118        0.285        0.024       71.769        7.950        0.012      328.247       -5.769      862.025
02/01/2014  06:15:00      -80.704      -31.033       -7.211       12.777       17.996       11.140      163.246      323.848      124.104        0.407        0.031       86.465        5.742        0.004      328.299       -5.686      862.018
02/01/2014  06:16:00      -86.576      -34.718       -0.602       18.560       16.402       13.123      344.460      269.033      172.204        0.474        0.039       93.278       10.505        0.013      328.323       -5.645      862.017
02/01/2014  06:17:00      -29.624      -33.800        1.218       51.650       21.130       19.379     2667.697      446.483      375.549        0.276        0.174       44.945       22.394        0.248      328.338       -5.623      862.025
02/01/2014  06:18:00      -52.872      -36.510        8.296       35.704       24.107       15.835     1274.772      581.161      250.740        0.315        0.105       64.253       17.198        0.072      328.305       -5.675      862.031
02/01/2014  06:19:00      -70.456      -25.366        1.431       20.439       22.483       14.446      417.738      505.499      208.696        0.337        0.057       74.883       11.077        0.022      328.312       -5.663      862.038
02/01/2014  06:20:00      -61.925      -25.431       -6.886       11.758       10.399       10.468      138.251      108.148      109.588        0.244        0.018       66.943        5.668        0.007      328.308       -5.672      862.049
02/01/2014  06:21:00      -54.492       -7.197       -4.084       11.205       14.225        8.611      125.562      202.365       74.141        0.172        0.020       54.966        6.256        0.013      328.272       -5.731      862.059
02/01/2014  06:22:00      -53.354      -10.118       -4.058       14.791       13.153       10.889      218.773      172.997      118.581        0.174        0.026       54.305        7.245        0.018      328.302       -5.680      862.060
02/01/2014  06:23:00      -59.549      -23.804       -3.010       15.847       15.054       10.753      251.112      226.624      115.623        0.236        0.030       64.131        7.977        0.015      328.331       -5.631      862.059
02/01/2014  06:24:00      -88.451      -14.341       -4.784       19.159       12.860       13.577      367.063      165.388      184.325        0.438        0.036       89.607       11.686        0.017      328.309       -5.670      862.059
02/01/2014  06:25:00      -84.640      -14.339       -3.814       18.573       16.418       14.731      344.949      269.548      216.997        0.411        0.042       85.846       11.079        0.017      328.244       -5.775      862.062
02/01/2014  06:26:00     -106.368       -9.070       -5.224       19.500       12.990       14.453      380.252      168.746      208.895        0.609        0.038      106.754       13.207        0.015      328.207       -5.836      862.066
02/01/2014  06:27:00     -104.143       -8.891       -9.522       23.209       15.172       13.207      538.675      230.175      174.420        0.598        0.047      104.521       11.682        0.012      328.155       -5.920      862.074
02/01/2014  06:28:00     -110.442       -1.459       -6.536       29.714       14.557       15.037      882.924      211.917      226.125        0.678        0.066      110.452       12.920        0.014      328.195       -5.855      862.087
02/01/2014  06:29:00     -104.104      -13.116       -7.651       28.095       25.540       18.135      789.329      652.312      328.879        0.642        0.089      104.927       14.414        0.019      328.251       -5.764      862.095
02/01/2014  06:30:00      -85.371       -8.122       -2.267       33.192       19.153       16.077     1101.727      366.826      258.466        0.454        0.086       85.756       14.749        0.030      328.219       -5.817      862.113
02/01/2014  06:31:00     -105.780       -6.746       -6.651       29.758       23.746       19.011      885.538      563.861      361.410        0.654        0.091      105.995       18.572        0.031      328.227       -5.804      862.123
02/01/2014  06:32:00      -78.621       -4.053       -4.213       35.228       22.678       17.878     1241.010      514.275      319.609        0.414        0.104       78.726       17.583        0.050      328.350       -5.603      862.132
02/01/2014  06:33:00      -99.177       -9.917       -5.856       29.234       23.752       16.999      854.652      564.170      288.958        0.584        0.085       99.671       14.786        0.022      328.308       -5.670      862.138
02/01/2014  06:34:00      -90.908      -17.523       -7.218       30.508       21.846       13.309      930.721      477.247      177.119        0.510        0.079       92.582       13.267        0.021      328.221       -5.813      862.153
02/01/2014  06:35:00      -93.765      -12.498       -4.933       31.619       21.245       15.064      999.737      451.371      226.916        0.532        0.084       94.594       16.223        0.029      328.254       -5.759      862.162
02/01/2014  06:36:00      -91.112       -3.114       -8.017       33.880       22.668       22.871     1147.867      513.843      523.074        0.528        0.109       91.165       21.699        0.057      328.305       -5.676      862.178
02/01/2014  06:37:00     -104.050       -9.058       -8.749       20.998       18.385       16.852      440.897      338.007      283.979        0.602        0.053      104.443       13.136        0.016      328.297       -5.688      862.191
02/01/2014  06:38:00      -95.430      -11.692       -7.276       22.306       15.075       12.763      497.576      227.259      162.897        0.509        0.044       96.143        9.481        0.010      328.234       -5.791      862.212
02/01/2014  06:39:00      -80.979      -19.530       -6.808       24.716       19.286       18.079      610.899      371.931      326.858        0.415        0.065       83.301       13.289        0.025      328.266       -5.739      862.230
02/01/2014  06:40:00     -102.419      -17.568       -9.272       26.811       15.477       12.511      718.815      239.524      156.536        0.600        0.056      103.915       13.802        0.018      328.192       -5.860      862.243
02/01/2014  06:41:00      -74.398      -13.372       -4.139       26.605       18.231       15.234      707.838      332.387      232.062        0.350        0.064       75.590       16.102        0.045      328.214       -5.823      862.254
02/01/2014  06:42:00      -79.073       -7.033       -4.135       23.374       18.648       15.383      546.340      347.750      236.652        0.372        0.057       79.385       15.231        0.037      328.254       -5.759      862.251
02/01/2014  06:43:00      -74.839      -18.826       -3.816       19.413       22.749       15.320      376.854      517.516      234.703        0.355        0.056       77.170       12.433        0.026      328.280       -5.716      862.257
02/01/2014  06:44:00      -92.469      -15.615       -5.804       23.958       17.750       14.295      573.987      315.059      204.333        0.496        0.055       93.778       14.291        0.023      328.267       -5.736      862.262
02/01/2014  06:45:00      -99.754      -35.698       -9.562       15.851       15.225       13.210      251.256      231.794      174.509        0.599        0.033      105.949        7.255        0.005      328.263       -5.743      862.261
02/01/2014  06:46:00     -105.715      -37.770       -9.113       17.158       18.190       10.520      294.396      330.883      110.674        0.671        0.037      112.260        8.883        0.006      328.246       -5.771      862.266
02/01/2014  06:47:00     -111.535      -20.994      -14.450       17.857       17.399       13.142      318.889      302.714      172.709        0.694        0.040      113.493        9.520        0.007      328.238       -5.785      862.267
02/01/2014  06:48:00      -86.542      -25.989       -7.384       22.189       20.165       15.223      492.355      406.627      231.733        0.467        0.057       90.360        9.244        0.010      328.274       -5.726      862.272
02/01/2014  06:49:00      -95.168      -25.921       -6.564       16.941       20.299       12.692      286.986      412.039      161.093        0.532        0.043       98.635        9.226        0.009      328.256       -5.756      862.271
02/01/2014  06:50:00      -98.855      -17.652       -5.026       24.138       11.721       11.662      582.664      137.377      136.013        0.548        0.043      100.418       11.656        0.013      328.288       -5.704      862.269
02/01/2014  06:51:00      -89.654      -24.919       -2.237       19.894       17.927       11.559      395.778      321.380      133.604        0.476        0.043       93.053        9.146        0.010      328.314       -5.661      862.269
02/01/2014  06:52:00     -101.094      -25.244       -6.179       20.013       15.108       10.615      400.521      228.242      112.687        0.582        0.037      104.198        9.511        0.008      328.276       -5.723      862.257
02/01/2014  06:53:00      -57.783       -9.790       -1.273       22.400       19.625       12.810      501.744      385.152      164.108        0.224        0.053       58.606       12.272        0.044      328.307       -5.671      862.255
02/01/2014  06:54:00      -61.100      -14.631       -2.955       21.332       12.688       11.698      455.067      160.992      136.838        0.235        0.038       62.828       11.691        0.035      328.301       -5.682      862.256
02/01/2014  06:55:00      -96.796       -9.716       -8.383       17.492       17.278       12.309      305.985      298.540      151.514        0.514        0.038       97.282        9.148        0.009      328.258       -5.752      862.250
02/01/2014  06:56:00      -88.298      -14.187       -7.465       20.330       12.597       11.191      413.297      158.685      125.247        0.438        0.035       89.431        7.770        0.008      328.224       -5.808      862.247
02/01/2014  06:57:00      -85.203      -22.489       -5.066       18.565       16.848       12.352      344.651      283.853      152.569        0.429        0.039       88.121        9.873        0.013      328.253       -5.761      862.252
02/01/2014  06:58:00      -80.925      -17.449       -5.513       13.209       14.678       11.375      174.491      215.432      129.398        0.370        0.026       82.785        8.319        0.010      328.228       -5.802      862.259
02/01/2014  06:59:00      -92.394      -16.463       -5.011       22.552       18.080       13.128      508.583      326.878      172.332        0.492        0.050       93.849       11.777        0.016      328.226       -5.804      862.271
02/01/2014  07:00:00      -80.752      -19.274        2.256       27.147       17.126       15.567      736.982      293.284      242.322        0.408        0.064       83.021       16.508        0.040      328.208       -5.834      862.288
02/01/2014  07:01:00     -102.525      -13.884       -3.841       19.792       13.537       11.313      391.730      183.239      127.986        0.571        0.035      103.461        9.457        0.008      328.166       -5.903      862.300
02/01/2014  07:02:00      -96.776      -14.989       -5.139       24.792       13.721       13.832      614.638      188.259      191.334        0.531        0.050       97.929       15.280        0.024      328.202       -5.843      862.304
02/01/2014  07:03:00      -78.212      -16.140       -3.035       26.992       16.397       11.354      728.543      268.863      128.902        0.376        0.056       79.860       10.961        0.019      328.174       -5.889      862.313
02/01/2014  07:04:00      -80.958      -10.489        1.563       32.425       19.230       17.617     1051.391      369.796      310.364        0.420        0.087       81.635       17.955        0.048      328.124       -5.971      862.320
02/01/2014  07:05:00      -86.756      -23.422       -0.517       18.809       23.490       15.130      353.783      551.778      228.916        0.460        0.057       89.862       11.267        0.016      328.191       -5.862      862.328
02/01/2014  07:06:00      -94.782       -9.857       -6.421       26.306       19.843       14.793      692.020      393.731      218.837        0.521        0.065       95.293       13.808        0.021      328.221       -5.812      862.331
02/01/2014  07:07:00     -100.137      -34.403       -0.757       30.091       19.748       18.555      905.485      389.974      344.285        0.643        0.082      105.882       18.688        0.031      328.214       -5.824      862.338
02/01/2014  07:08:00      -88.146      -24.690       -3.854       21.357       16.969       10.891      456.141      287.937      118.618        0.463        0.043       91.539        9.650        0.011      328.213       -5.826      862.342
02/01/2014  07:09:00      -96.556      -25.266       -3.002       15.918       13.994       11.966      253.379      195.842      143.185        0.528        0.030       99.807        8.087        0.007      328.235       -5.789      862.342
02/01/2014  07:10:00      -56.130      -20.698       -1.609       18.050       18.948       11.596      325.788      359.013      134.476        0.220        0.041       59.824        7.142        0.014      328.215       -5.824      862.350
02/01/2014  07:11:00      -57.016      -17.494       -0.040       19.085       22.008       12.655      364.248      484.361      160.160        0.228        0.050       59.640        9.455        0.025      328.186       -5.869      862.358
02/01/2014  07:12:00      -71.463      -19.768       -2.598       19.344       17.004       10.143      374.177      289.121      102.883        0.314        0.038       74.146        9.623        0.017      328.229       -5.799      862.365
02/01/2014  07:13:00      -87.212      -24.960      -14.834       10.064       10.171       10.343      101.293      103.440      106.979        0.438        0.016       90.713        6.077        0.004      328.214       -5.826      862.372
02/01/2014  07:14:00      -67.582      -18.886       -5.795       15.320       13.242       11.982      234.701      175.355      143.570        0.276        0.028       70.171        9.628        0.019      328.230       -5.798      862.376
02/01/2014  07:15:00      -79.732       -5.163      -11.012       11.743       11.262        9.945      137.891      126.825       98.911        0.343        0.018       79.899        7.226        0.008      328.189       -5.865      862.385
02/01/2014  07:16:00      -65.161      -23.794       -5.224       11.008       12.657        9.228      121.185      160.190       85.148        0.260        0.018       69.369        6.763        0.010      328.230       -5.798      862.393
02/01/2014  07:17:00      -51.309      -22.532        1.491       17.057       14.753       10.760      290.936      217.649      115.788        0.188        0.031       56.039        9.472        0.029      328.212       -5.827      862.394
02/01/2014  07:18:00      -73.175       -4.263       -0.504       16.785       14.306       11.671      281.742      204.674      136.207        0.300        0.031       73.300        9.100        0.015      328.191       -5.862      862.398
02/01/2014  07:19:00      -54.367      -31.021       -7.164       13.540       13.282        8.416      183.340      176.408       70.834        0.220        0.022       62.595        7.353        0.014      328.253       -5.759      862.403
02/01/2014  07:20:00      -24.397      -14.581        8.785       30.741       17.100       14.204      945.027      292.422      201.742        0.116        0.072       28.422       16.677        0.344      328.261       -5.747      862.402
02/01/2014  07:21:00      -51.476      -26.537        1.372       29.069       15.479       12.590      844.987      239.597      158.513        0.230        0.062       57.913       13.473        0.054      328.226       -5.804      862.398
02/01/2014  07:22:00      -42.198      -37.548       -0.815       43.939       18.365       14.220     1930.602      337.282      202.201        0.283        0.124       56.484       13.258        0.055      328.344       -5.612      862.401
02/01/2014  07:23:00      -36.658      -21.638        4.535       37.287       19.943       13.746     1390.309      397.740      188.956        0.190        0.099       42.568       17.610        0.171      328.335       -5.628      862.400
02/01/2014  07:24:00      -66.618      -41.380       -8.137       24.089       15.351       12.896      580.286      235.651      166.295        0.360        0.049       78.424        8.455        0.012      328.303       -5.679      862.409
02/01/2014  07:25:00      -57.462      -22.689       -2.128       15.559       12.982        8.808      242.097      168.525       77.575        0.215        0.024       61.779        8.676        0.020      328.258       -5.753      862.422
02/01/2014  07:26:00      -64.465      -29.263       -8.352       12.729       15.660        8.895      162.021      245.247       79.113        0.278        0.024       70.796        4.678        0.004      328.343       -5.613      862.434
02/01/2014  07:27:00      -60.297      -34.876       -7.483       11.036       15.431        8.212      121.786      238.112       67.443        0.267        0.021       69.656        3.977        0.003      328.282       -5.714      862.439
02/01/2014  07:28:00      -52.926      -38.818       -9.688       12.630       13.015       11.618      159.517      169.403      134.971        0.243        0.023       65.636        8.558        0.017      328.301       -5.680      862.449
02/01/2014  07:29:00      -54.403      -23.375       -7.604       22.050       15.362        9.782      486.223      236.002       95.691        0.219        0.041       59.213        6.739        0.013      328.318       -5.655      862.444
02/01/2014  07:30:00      -62.696      -16.936        2.527       18.119       19.468       12.072      328.309      378.994      145.733        0.254        0.043       64.943       10.058        0.024      328.325       -5.645      862.439
02/01/2014  07:31:00      -62.369      -32.410       -5.285       24.367       23.012       15.379      593.767      529.534      236.526        0.316        0.068       70.287       15.332        0.048      328.259       -5.751      862.436
02/01/2014  07:32:00      -58.340      -28.842       -3.046       16.498       20.809       12.035      272.189      432.995      144.849        0.255        0.043       65.080        6.729        0.011      328.293       -5.696      862.456
02/01/2014  07:33:00      -74.453      -14.683       -5.687       22.202       18.806       14.632      492.932      353.682      214.105        0.343        0.053       75.887       13.228        0.030      328.263       -5.744      862.476
02/01/2014  07:34:00      -93.410      -15.244       -5.299       21.321       16.021       12.194      454.604      256.668      148.702        0.492        0.043       94.646       10.785        0.013      328.289       -5.701      862.490
02/01/2014  07:35:00     -130.255      -21.702      -13.587       15.222       13.086       14.797      231.720      171.244      218.952        0.912        0.031      132.050       11.127        0.007      328.281       -5.716      862.509
02/01/2014  07:36:00     -112.122      -23.442       -8.662       24.734       19.105       16.395      611.784      365.001      268.808        0.722        0.062      114.546       12.712        0.012      328.295       -5.691      862.525
02/01/2014  07:37:00     -117.907      -21.253       -7.891       18.588       16.999       12.545      345.520      288.976      157.365        0.760        0.040      119.807        8.805        0.005      328.337       -5.624      862.549
02/01/2014  07:38:00     -116.598      -24.653       -8.350       21.465       14.789       12.713      460.757      218.701      161.624        0.756        0.042      119.175       13.419        0.013      328.328       -5.638      862.551
02/01/2014  07:39:00     -135.230      -32.057      -12.181       23.963       20.414       13.442      574.233      416.728      180.683        1.032        0.059      138.977       12.122        0.008      328.303       -5.680      862.552
02/01/2014  07:40:00     -110.826      -18.831      -14.015       19.785       23.827       14.124      391.454      567.715      199.474        0.700        0.058      112.414        9.017        0.006      328.333       -5.630      862.563
02/01/2014  07:41:00      -91.169      -13.645      -10.786       18.429       16.327       11.174      339.636      266.565      124.857        0.467        0.037       92.184        7.613        0.007      328.364       -5.580      862.570
02/01/2014  07:42:00      -77.492        0.721      -14.719       25.414       21.386       15.737      645.859      457.355      247.652        0.379        0.068       77.496       12.011        0.024      328.372       -5.566      862.581
02/01/2014  07:43:00      -66.063       -3.139       -6.114       27.697       19.486       15.501      767.120      379.714      240.276        0.290        0.069       66.138       15.278        0.053      328.360       -5.587      862.606
02/01/2014  07:44:00      -96.824      -11.266      -10.137       12.104       13.362       10.047      146.507      178.548      100.933        0.502        0.021       97.477        3.515        0.001      328.403       -5.516      862.624
02/01/2014  07:45:00      -87.360      -15.208       -9.572       21.706       15.910       14.577      471.137      253.132      212.486        0.445        0.047       88.674       13.361        0.023      328.405       -5.514      862.648
02/01/2014  07:46:00      -75.771       -7.096       -1.493       31.435       14.928       11.689      988.162      222.857      136.640        0.357        0.067       76.103       15.693        0.043      328.520       -5.325      862.662
02/01/2014  07:47:00      -72.342      -19.160       -6.742       17.822       14.345       13.597      317.620      205.776      184.874        0.318        0.035       74.836       10.002        0.018      328.542       -5.289      862.679
02/01/2014  07:48:00      -72.369      -31.757       -7.765       16.946       17.164       12.788      287.159      294.620      163.525        0.353        0.037       79.030        3.845        0.002      328.547       -5.282      862.697
02/01/2014  07:49:00      -76.078      -22.301       -9.614       11.880        8.934        8.196      141.128       79.813       67.170        0.333        0.014       79.279        4.133        0.003      328.523       -5.321      862.715
02/01/2014  07:50:00      -64.455      -25.127      -10.354       13.503       11.246       11.726      182.338      126.472      137.502        0.267        0.022       69.180        6.996        0.010      328.605       -5.187      862.730
02/01/2014  07:51:00      -48.788      -13.892       -3.395       17.450       12.766       11.496      304.493      162.971      132.153        0.159        0.030       50.728       10.638        0.044      328.588       -5.214      862.741
02/01/2014  07:52:00      -46.787       -9.713       -5.989       11.943        8.503        8.061      142.635       72.309       64.972        0.130        0.014       47.784        6.561        0.019      328.665       -5.089      862.739
02/01/2014  07:53:00      -33.707       -9.727       -1.611        8.160       12.593        6.036       66.588      158.596       36.433        0.075        0.013       35.083        1.814        0.003      328.699       -5.033      862.738
02/01/2014  07:54:00      -21.564        7.391       -1.767       12.523       11.979        8.190      156.818      143.501       67.084        0.045        0.018       22.795        4.245        0.035      328.822       -4.833      862.737
02/01/2014  07:55:00      -18.692       -3.579        6.944       18.362        9.602       12.130      337.172       92.192      147.139        0.049        0.029       19.032       12.021        0.399      329.061       -4.443      862.735
02/01/2014  07:56:00        6.792       17.884       10.288        8.651       16.698       14.505       74.848      278.815      210.387        0.052        0.028       19.131       13.082        0.468      329.243       -4.146      862.731
02/01/2014  07:57:00       -5.671       11.861        4.147       13.118        9.249       11.069      172.081       85.547      122.520        0.029        0.019       13.147        6.930        0.278      329.111       -4.361      862.731
02/01/2014  07:58:00       13.920       28.502        9.836       20.542       11.873       17.047      421.982      140.969      290.605        0.098        0.043       31.719        5.826        0.034      329.101       -4.378      862.735
02/01/2014  07:59:00       12.501       30.359       33.595       17.846       18.442       13.987      318.480      340.125      195.649        0.153        0.043       32.832       11.607        0.125      329.159       -4.283      862.734
02/01/2014  08:00:00        3.574       27.852       28.918       11.690       18.324       11.985      136.654      335.762      143.632        0.112        0.031       28.081        6.372        0.051      329.289       -4.070      862.735
02/01/2014  08:01:00        6.682       19.500       37.217       15.353       16.369        9.446      235.717      267.955       89.218        0.120        0.030       20.614        8.191        0.158      329.392       -3.902      862.740
02/01/2014  08:02:00       50.092       29.858       16.338       22.833       15.508       20.186      521.342      240.490      407.494        0.242        0.058       58.315       14.355        0.061      329.108       -4.367      862.748
02/01/2014  08:03:00       35.709       30.467       16.597       14.570       14.235       24.961      212.280      202.642      623.061        0.176        0.052       46.940        6.156        0.017      329.077       -4.417      862.762
02/01/2014  08:04:00       38.920       38.433       15.671       14.639       13.947       19.374      214.290      194.522      375.340        0.201        0.039       54.698        6.546        0.014      329.027       -4.499      862.772
02/01/2014  08:05:00       50.117       59.273       11.195       15.852       14.679       17.716      251.282      215.466      313.866        0.347        0.039       77.621        9.454        0.015      329.172       -4.261      862.793
02/01/2014  08:06:00       76.454       44.854        1.394       26.989       17.799       25.857      728.419      316.790      668.597        0.479        0.086       88.641        9.611        0.012      329.165       -4.273      862.801
02/01/2014  08:07:00       57.796       45.426       -1.295       12.142       14.334       16.438      147.423      205.465      270.219        0.301        0.031       73.511       10.051        0.019      329.074       -4.422      862.812
02/01/2014  08:08:00       55.871       44.087        7.886        9.643       12.337       11.932       92.979      152.211      142.361        0.276        0.019       71.170        6.296        0.008      328.943       -4.636      862.826
02/01/2014  08:09:00       52.122       23.210       -4.486       16.101       27.128       13.933      259.245      735.951      194.123        0.223        0.059       57.056       12.149        0.045      329.011       -4.524      862.835
02/01/2014  08:10:00       61.909       52.279        4.437       23.964       21.628       16.767      574.285      467.790      281.126        0.395        0.066       81.030       12.803        0.025      329.156       -4.289      862.848
02/01/2014  08:11:00       54.501       26.009        0.674       13.571       15.961       15.819      184.170      254.740      250.234        0.217        0.034       60.389        8.593        0.020      329.104       -4.371      862.851
02/01/2014  08:12:00       58.506       33.707       11.280       18.307       16.804       19.951      335.155      282.377      398.048        0.285        0.051       67.521        8.877        0.017      329.305       -4.044      862.863
02/01/2014  08:13:00       95.824       73.286        9.309       19.222       19.059       18.865      369.477      363.235      355.879        0.786        0.054      120.636        8.115        0.005      329.085       -4.402      862.861
02/01/2014  08:14:00       69.048       63.863        3.145       19.415       21.301       23.015      376.959      453.726      529.680        0.511        0.068       94.054       11.550        0.015      329.237       -4.156      862.864
02/01/2014  08:15:00       54.010       55.918        9.841       24.295       24.302       19.957      590.270      590.610      398.274        0.386        0.079       77.742       15.551        0.040      329.391       -3.903      862.866
02/01/2014  08:16:00       51.343       40.144        4.523       35.603       34.597       24.301     1267.557     1196.944      590.524        0.366        0.153       65.174       18.082        0.077      329.366       -3.944      862.870
02/01/2014  08:17:00       71.312       45.533        7.967       40.000       20.048       24.623     1600.034      401.913      606.271        0.491        0.130       84.609       17.544        0.043      329.286       -4.076      862.882
02/01/2014  08:18:00       71.875       67.649       10.898       18.645       16.175       18.030      347.629      261.636      325.067        0.540        0.047       98.704        7.265        0.005      329.114       -4.356      862.880
02/01/2014  08:19:00       50.231       51.624       24.053       25.492       25.363       19.675      649.832      643.271      387.106        0.372        0.084       72.029       14.018        0.038      329.197       -4.220      862.876
02/01/2014  08:20:00       21.161       50.088       35.030       27.627       22.659       24.074      763.272      513.438      579.535        0.302        0.093       54.375       15.348        0.080      329.587       -3.583      862.866
02/01/2014  08:21:00       29.623       46.366       36.687       43.106       25.803       32.951     1858.157      665.806     1085.743        0.399        0.180       55.021       32.773        0.355      329.707       -3.386      862.872
02/01/2014  08:22:00       63.966       60.768       22.758       30.359       16.657       29.509      921.658      277.456      870.771        0.519        0.103       88.229       20.755        0.055      329.325       -4.012      862.882
02/01/2014  08:23:00       28.005       41.030       29.017       37.501       21.544       26.948     1406.348      464.126      726.180        0.295        0.130       49.676       20.686        0.173      329.673       -3.443      862.890
02/01/2014  08:24:00       51.738       37.937       13.482       51.614       28.187       25.715     2663.976      794.503      661.242        0.421        0.206       64.156       30.565        0.227      329.499       -3.727      862.900
02/01/2014  08:25:00       57.805       39.527       16.960       27.482       25.017       29.497      755.255      625.829      870.058        0.372        0.113       70.027       13.772        0.039      329.500       -3.725      862.904
02/01/2014  08:26:00       42.844       30.267       38.878       36.332       22.458       16.459     1320.045      504.361      270.890        0.318        0.105       52.457       14.059        0.072      329.661       -3.462      862.908
02/01/2014  08:27:00       -6.301        9.644       30.681       17.923       28.783       17.327      321.249      828.433      300.215        0.126        0.072       11.519       13.847        1.445      330.014       -2.884      862.912
02/01/2014  08:28:00       65.584       54.242       17.162       36.004       29.615       19.374     1296.256      877.077      375.365        0.504        0.127       85.109       19.027        0.050      329.578       -3.596      862.916
02/01/2014  08:29:00       89.280       58.986        0.604       26.372       30.266       23.635      695.502      916.001      558.634        0.681        0.109      107.006        8.475        0.006      329.362       -3.949      862.913
02/01/2014  08:30:00      108.015       74.215        4.860       23.693       19.577       23.182      561.358      383.272      537.406        0.934        0.074      131.054        8.425        0.004      329.186       -4.238      862.917
02/01/2014  08:31:00       69.045       65.860       12.795       24.228       18.879       28.381      586.992      356.400      805.458        0.551        0.087       95.419       11.487        0.014      329.434       -3.833      862.922
02/01/2014  08:32:00       68.408       54.809        8.844       27.663       27.190       22.823      765.268      739.290      520.881        0.489        0.101       87.656        8.363        0.009      329.310       -4.036      862.931
02/01/2014  08:33:00       48.120       52.193        6.564       31.318       24.608       26.084      980.842      605.559      680.352        0.367        0.113       70.990        7.091        0.010      329.493       -3.738      862.927
02/01/2014  08:34:00       45.512       56.558       59.984       42.072       26.232       30.511     1770.020      688.110      930.903        0.613        0.169       72.596       20.820        0.082      329.609       -3.548      862.918
02/01/2014  08:35:00       64.153       32.562       16.943       37.897       29.830       29.012     1436.205      889.818      841.706        0.431        0.158       71.944       20.720        0.083      329.654       -3.474      862.917
02/01/2014  08:36:00       64.329       59.395       -5.076       23.009       21.331       24.950      529.416      455.021      622.498        0.465        0.080       87.556       12.702        0.021      329.634       -3.507      862.914
02/01/2014  08:37:00      102.743       68.318        5.106       28.148       28.748       26.947      792.299      826.460      726.157        0.880        0.117      123.383       11.376        0.009      329.612       -3.541      862.919
02/01/2014  08:38:00       60.240       49.286        5.276       20.493       22.952       25.456      419.950      526.800      648.031        0.384        0.080       77.833       15.766        0.041      329.494       -3.734      862.921
02/01/2014  08:39:00       53.809       64.812       -1.629       23.695       30.677       18.287      561.475      941.087      334.415        0.447        0.092       84.238        3.850        0.002      329.471       -3.773      862.936
02/01/2014  08:40:00       60.614       55.577       -3.092       33.980       33.237       36.382     1154.673     1104.665     1323.642        0.518        0.179       82.237       24.357        0.088      329.733       -3.344      862.949
02/01/2014  08:41:00       55.703       70.325        0.152       18.984       18.077       19.642      360.388      326.764      385.818        0.456        0.054       89.713       14.795        0.027      329.561       -3.626      862.951
02/01/2014  08:42:00       60.200       54.791       -2.073       19.949       30.906       24.068      397.943      955.160      579.256        0.428        0.097       81.401       17.147        0.044      329.786       -3.258      862.951
02/01/2014  08:43:00       60.827       45.527       10.426       27.618       26.760       23.945      762.755      716.101      573.369        0.397        0.103       75.978       12.542        0.027      329.904       -3.064      862.948
02/01/2014  08:44:00       55.800       42.310        5.821       33.051       26.513       23.406     1092.389      702.958      547.846        0.364        0.117       70.027       16.366        0.055      329.996       -2.914      862.943
02/01/2014  08:45:00       32.434       25.352       49.407       31.094       61.409       32.966      966.825     3771.047     1086.758        0.498        0.291       41.167       35.874        0.759      329.905       -3.061      862.950
02/01/2014  08:46:00      -11.398       26.710       30.971       26.424       36.673       29.853      698.230     1344.874      891.208        0.237        0.147       29.040       14.196        0.239      330.096       -2.749      862.952
02/01/2014  08:47:00       16.767       25.983       39.030       33.820       32.735       31.310     1143.764     1071.608      980.316        0.284        0.160       30.923       17.805        0.332      330.153       -2.656      862.957
02/01/2014  08:48:00       -6.074       32.041       64.496       17.248       29.534       16.746      297.506      872.277      280.415        0.334        0.073       32.611       18.130        0.309      330.052       -2.823      862.951
02/01/2014  08:49:00       29.821       32.077       51.588       45.436       27.626       26.973     2064.451      763.173      727.559        0.407        0.178       43.798       22.013        0.253      330.019       -2.875      862.952
02/01/2014  08:50:00       83.508       43.854       18.900       49.881       25.857       33.998     2488.108      668.599     1155.845        0.678        0.216       94.322       14.034        0.022      329.816       -3.209      862.946
02/01/2014  08:51:00       62.302       43.146       14.634       40.974       22.346       26.777     1678.863      499.344      716.983        0.443        0.145       75.783       17.714        0.055      329.901       -3.068      862.952
02/01/2014  08:52:00       91.890       65.011       13.949       27.099       25.001       25.763      734.340      625.041      663.754        0.744        0.101      112.562       14.690        0.017      329.698       -3.400      862.947
02/01/2014  08:53:00       71.358       64.788        2.022       48.588       30.268       27.835     2360.841      916.172      774.795        0.667        0.203       96.382       14.235        0.022      329.887       -3.091      862.946
02/01/2014  08:54:00       79.008       80.408       21.881       34.954       30.737       35.288     1221.782      944.761     1245.223        0.830        0.171      112.729       22.307        0.039      329.866       -3.128      862.950
02/01/2014  08:55:00       62.910       50.084       19.149       34.822       56.644       30.616     1212.562     3208.488      937.370        0.609        0.268       80.412       25.924        0.104      329.757       -3.305      862.959
02/01/2014  08:56:00       72.351       62.251       -2.393       56.947       35.307       26.295     3242.918     1246.603      691.427        0.715        0.259       95.445       19.830        0.043      329.891       -3.083      862.967
02/01/2014  08:57:00      117.788       70.719       10.301       55.396       24.254       26.226     3068.757      588.258      687.829        1.166        0.217      137.387       11.923        0.008      329.811       -3.217      862.968
02/01/2014  08:58:00      113.521       91.061        2.672       49.061       27.925       32.227     2406.937      779.816     1038.588        1.271        0.211      145.531       23.572        0.026      329.628       -3.515      862.972
02/01/2014  08:59:00      127.321       81.489        5.461       46.112       41.745       35.445     2126.341     1742.634     1256.348        1.400        0.256      151.166       13.493        0.008      329.818       -3.206      862.968
02/01/2014  09:00:00       71.285       45.638        0.731       30.582       28.226       35.125      935.241      796.705     1233.791        0.506        0.148       84.642       16.808        0.039      329.787       -3.254      862.969
02/01/2014  09:01:00       91.856       73.874       -0.810       39.914       24.482       42.589     1593.160      599.374     1813.804        0.895        0.200      117.876       14.569        0.015      329.884       -3.096      862.962
02/01/2014  09:02:00       57.513       78.831       63.010       38.300       34.437       45.473     1466.917     1185.887     2067.779        0.911        0.236       97.581       26.150        0.072      330.091       -2.759      862.956
02/01/2014  09:03:00       37.859       63.969       57.102       44.524       28.097       28.176     1982.366      789.442      793.870        0.618        0.178       74.333       21.086        0.080      330.213       -2.557      862.963
02/01/2014  09:04:00       96.217       82.443       19.056       27.770       31.503       35.515      771.165      992.436     1261.305        0.972        0.151      126.706       18.597        0.022      330.007       -2.896      862.961
02/01/2014  09:05:00       81.309       90.443       45.458       45.515       39.715       44.070     2071.641     1577.284     1942.175        1.122        0.280      121.618       19.171        0.025      330.326       -2.373      862.966
02/01/2014  09:06:00       46.182       42.297       27.567       40.338       30.707       34.651     1627.117      942.919     1200.684        0.423        0.189       62.625       22.241        0.126      330.260       -2.482      862.982
02/01/2014  09:07:00      117.051       89.510       15.916       38.633       30.492       23.463     1492.481      929.788      550.505        1.247        0.149      147.354       11.564        0.006      329.777       -3.275      862.999
02/01/2014  09:08:00       49.170       62.906       50.516       27.449       22.876       43.403      753.453      523.309     1883.858        0.604        0.158       79.842       10.999        0.019      329.997       -2.913      863.007
02/01/2014  09:09:00       40.801       59.508       63.279       39.507       38.882       31.131     1560.764     1511.830      969.161        0.663        0.202       72.152       28.916        0.161      330.247       -2.502      863.018
02/01/2014  09:10:00      123.672       72.101       23.423       28.601       27.254       33.446      818.017      742.771     1118.621        1.186        0.134      143.155       14.514        0.010      329.816       -3.208      863.028
02/01/2014  09:11:00      112.607       69.407       32.809       37.474       37.964       28.484     1404.281     1441.255      811.317        1.111        0.183      132.278       16.374        0.015      329.773       -3.278      863.038
02/01/2014  09:12:00        4.258       39.094       70.575       31.739       30.241       27.507     1007.391      914.546      756.629        0.460        0.134       39.325       25.524        0.421      330.455       -2.162      863.048
02/01/2014  09:13:00       17.076       24.406       68.317       32.761       35.466       27.539     1073.316     1257.871      758.384        0.432        0.154       29.787       25.653        0.742      330.464       -2.146      863.064
02/01/2014  09:14:00       47.907       57.881       81.200       35.455       36.291       20.988     1257.083     1317.069      440.485        0.763        0.151       75.135       20.088        0.071      330.330       -2.366      863.071
02/01/2014  09:15:00       32.883       44.066       66.541       36.498       34.613       27.055     1332.140     1198.086      731.952        0.536        0.163       54.983       22.249        0.164      330.456       -2.159      863.085
02/01/2014  09:16:00       25.911       30.972       50.597       30.889       31.504       22.834      954.122      992.475      521.390        0.333        0.123       40.381       18.003        0.199      330.465       -2.143      863.102
02/01/2014  09:17:00       59.423      -56.953       18.734       37.560       63.372       34.626     1410.731     4016.030     1198.982        0.687        0.331       82.309       36.912        0.201      330.366       -2.308      863.105
02/01/2014  09:18:00       11.201       11.963       33.243       28.108       26.651       32.464      790.066      710.299     1053.939        0.196        0.128       16.388       25.185        2.362      330.674       -1.803      863.116
02/01/2014  09:19:00       83.268       67.196       27.085       25.511       27.352       31.925      650.796      748.144     1019.175        0.730        0.121      106.999       16.626        0.024      330.087       -2.764      863.122
02/01/2014  09:20:00       62.739       54.575       18.438       35.770       31.522       28.670     1279.499      993.639      821.942        0.517        0.155       83.154       15.420        0.034      330.240       -2.514      863.136
02/01/2014  09:21:00       27.211       22.210       19.690       28.248       26.963       31.605      797.974      726.989      998.891        0.207        0.126       35.124       20.290        0.334      330.641       -1.855      863.143
02/01/2014  09:22:00       12.129       20.961       11.327       32.830       40.438       31.168     1077.790     1635.268      971.461        0.220        0.184       24.217       27.619        1.301      330.674       -1.801      863.146
02/01/2014  09:23:00       13.703        1.417       27.792       19.783       25.605       22.170      391.371      655.602      491.499        0.125        0.077       13.776        7.980        0.336      330.866       -1.487      863.157
02/01/2014  09:24:00       45.400      -52.321       19.517       27.932       37.428       28.970      780.192     1400.837      839.236        0.410        0.151       69.272        6.462        0.009      330.364       -2.311      863.169
02/01/2014  09:25:00       33.704      -21.131       -9.693       20.017       31.018       26.768      400.677      962.102      716.552        0.188        0.104       39.781       16.097        0.164      330.253       -2.494      863.161
02/01/2014  09:26:00       55.147        9.118       19.598       53.288       82.397       40.165     2839.598     6789.292     1613.217        0.737        0.562       55.896       48.577        0.755      330.380       -2.284      863.138
02/01/2014  09:27:00       53.567       59.286       40.570       52.233       28.665       42.864     2728.244      821.701     1837.282        0.671        0.269       79.901       44.715        0.313      330.439       -2.187      863.138
02/01/2014  09:28:00       36.942       79.010       78.087       37.993       35.456       30.409     1443.470     1257.105      924.685        0.866        0.181       87.220       20.492        0.055      330.575       -1.964      863.119
02/01/2014  09:29:00       56.639       70.102       40.446       38.177       38.163       32.787     1457.453     1456.428     1074.964        0.687        0.199       90.124       24.918        0.076      330.796       -1.601      863.108
02/01/2014  09:30:00       55.335       36.982       -7.950       31.608       20.414       24.181      999.075      416.745      584.703        0.325        0.100       66.555       17.029        0.065      330.384       -2.276      863.095
02/01/2014  09:31:00       10.249       90.351      -28.471       26.241       27.018       20.881      688.616      729.955      436.009        0.547        0.093       90.930       12.138        0.018      330.244       -2.509      863.085
02/01/2014  09:32:00       49.658       55.784       15.570       63.825       40.968       28.657     4073.650     1678.346      821.245        0.620        0.329       74.684       16.367        0.048      330.602       -1.919      863.069
02/01/2014  09:33:00       91.467       81.698        2.448       29.948       21.305       25.083      896.879      453.896      629.133        0.851        0.099      122.640       13.160        0.012      330.314       -2.392      863.056
02/01/2014  09:34:00       52.729       39.472       -2.562       37.492       39.821       25.519     1405.687     1585.723      651.214        0.399        0.182       65.866       22.476        0.116      330.301       -2.415      863.039
02/01/2014  09:35:00      117.273       84.919       -2.907       24.389       19.746       27.029      594.843      389.914      730.563        1.134        0.086      144.791       12.481        0.007      330.202       -2.576      863.035
02/01/2014  09:36:00       65.490       53.896        5.998       41.731       34.196       36.994     1741.445     1169.374     1368.572        0.575        0.214       84.815       22.452        0.070      330.527       -2.043      863.021
02/01/2014  09:37:00       86.891       58.408       -9.122       31.215       24.402       20.743      974.347      595.453      430.264        0.652        0.100      104.697       10.013        0.009      330.405       -2.244      863.014
02/01/2014  09:38:00       42.813       40.122        8.012       24.810       22.048       25.333      615.550      486.097      641.784        0.262        0.087       58.675       11.051        0.035      330.648       -1.844      863.011
02/01/2014  09:39:00        5.253       80.097        4.061       30.815       41.929       29.501      949.561     1758.033      870.326        0.502        0.179       80.269       26.575        0.110      330.882       -1.459      863.009
02/01/2014  09:40:00       81.232       54.693       15.478       56.074       34.487       35.663     3144.258     1189.387     1271.857        0.772        0.280       97.928       21.582        0.049      330.794       -1.604      863.014
02/01/2014  09:41:00       53.175      104.531        6.494       56.501       41.424       30.620     3192.411     1715.986      937.589        0.982        0.292      117.278       22.827        0.038      330.840       -1.529      863.016
02/01/2014  09:42:00       34.344       76.648       -0.251       25.465       40.824       27.332      648.469     1666.639      747.049        0.506        0.153       83.991       28.238        0.113      331.210       -0.920      863.015
02/01/2014  09:43:00       74.943       36.601        2.117       60.219       31.057       27.929     3626.377      964.542      780.038        0.616        0.269       83.403       14.916        0.032      330.912       -1.412      863.013
02/01/2014  09:44:00       69.184       48.939        5.806       36.844       38.804       33.762     1357.445     1505.740     1139.904        0.561        0.200       84.744       13.276        0.025      331.070       -1.152      863.017
02/01/2014  09:45:00       90.303       88.582       11.189       39.959       39.204       42.023     1596.686     1536.930     1765.946        1.051        0.245      126.497       24.082        0.036      330.686       -1.782      863.013
02/01/2014  09:46:00        9.410       52.767       13.394       23.845       36.430       23.978      568.584     1327.120      574.935        0.276        0.124       53.600       22.428        0.175      331.023       -1.229      863.017
02/01/2014  09:47:00        5.312       23.461       20.452       26.631       32.924       26.323      709.199     1083.993      692.913        0.174        0.124       24.055       12.214        0.258      331.298       -0.777      863.014
02/01/2014  09:48:00       34.003       62.022       85.360       46.476       42.180       25.755     2160.052     1779.187      663.339        0.845        0.230       70.731       17.556        0.062      331.126       -1.060      863.014
02/01/2014  09:49:00       60.120      106.957      109.017       78.924       41.379       46.715     6229.033     1712.210     2182.261        1.853        0.506      122.696       52.570        0.184      330.856       -1.503      863.012
02/01/2014  09:50:00       52.368       55.307       27.079       47.784       37.190       33.405     2283.289     1383.127     1115.880        0.566        0.239       76.166       25.643        0.113      330.843       -1.524      863.021
02/01/2014  09:51:00       -9.440       30.126       55.703       19.686       32.500       33.365      387.550     1056.236     1113.239        0.333        0.128       31.570       23.494        0.554      331.621       -0.246      863.008
02/01/2014  09:52:00       20.434       81.178      103.415       34.815       45.005       24.595     1212.106     2025.476      604.892        1.077        0.192       83.710       25.525        0.093      330.903       -1.427      863.011
02/01/2014  09:53:00       45.303       66.632       75.091       39.058       47.348       38.159     1525.523     2241.795     1456.131        0.868        0.261       80.574       37.083        0.212      331.041       -1.198      863.005
02/01/2014  09:54:00       59.259      -84.365       10.192       49.097       67.645       38.930     2410.515     4575.877     1515.530        0.962        0.425      103.097       44.412        0.186      330.888       -1.451      862.996
02/01/2014  09:55:00       27.600      -16.824       37.066       40.902       52.638       42.446     1672.936     2770.751     1801.675        0.433        0.312       32.323       40.264        1.552      331.519       -0.412      862.982
02/01/2014  09:56:00       19.538       62.296       79.425       45.056       43.894       42.431     2030.050     1926.710     1800.393        0.816        0.288       65.288       29.776        0.208      331.509       -0.430      862.964
02/01/2014  09:57:00       60.055       79.860       68.661       51.125       44.442       33.087     2613.744     1975.110     1094.746        1.019        0.284       99.921       21.650        0.047      331.161       -1.003      862.953
02/01/2014  09:58:00       10.637      -25.695       41.150       33.727       40.267       29.959     1137.503     1621.400      897.513        0.306        0.183       27.809       17.195        0.382      331.403       -0.604      862.951
02/01/2014  09:59:00       69.573      103.799       86.840       59.714       45.386       50.958     3565.703     2059.923     2596.709        1.569        0.411      124.958       36.689        0.086      331.176       -0.978      862.942
02/01/2014  10:00:00       99.275      120.184       57.878       80.038       44.243       60.122     6406.057     1957.463     3614.635        1.981        0.599      155.884       46.604        0.089      331.050       -1.185      862.932
02/01/2014  10:01:00       69.106       66.247       64.449      100.247       55.255       43.857    10049.466     3053.118     1923.434        1.417        0.751       95.731       52.979        0.306      331.513       -0.425      862.929
02/01/2014  10:02:00      132.877       79.567       67.442      121.156       56.069       43.208    14678.662     3143.744     1866.941        2.411        0.984      154.878       47.631        0.095      331.233       -0.885      862.918
02/01/2014  10:03:00      163.713      102.671       49.255       75.978       69.656       56.324     5772.601     4851.971     3172.349        2.678        0.690      193.244       21.973        0.013      330.791       -1.614      862.911
02/01/2014  10:04:00      139.721       94.805       45.885       47.342       33.379       37.354     2241.284     1114.188     1395.285        1.768        0.238      168.849       25.275        0.022      330.791       -1.611      862.914
02/01/2014  10:05:00       33.792       58.673       80.107       35.870       47.546       32.688     1286.687     2260.632     1068.500        0.781        0.231       67.708       32.010        0.224      331.058       -1.171      862.904
02/01/2014  10:06:00       86.631      115.401       98.687       44.503       34.310       30.116     1980.484     1177.162      907.003        1.731        0.203      144.299       24.168        0.028      330.806       -1.586      862.896
02/01/2014  10:07:00       49.810      -63.660       -2.339       34.596       79.833       40.636     1196.876     6373.375     1651.282        0.788        0.461       80.830       51.803        0.411      330.977       -1.304      862.893
02/01/2014  10:08:00       20.035       21.035       66.941       37.423       46.192       41.485     1400.472     2133.743     1721.005        0.529        0.263       29.049       39.353        1.835      331.303       -0.769      862.889
02/01/2014  10:09:00       29.346      -38.687       24.544       32.809       69.950       48.494     1076.423     4892.965     2351.661        0.564        0.416       48.558       52.531        1.170      331.229       -0.891      862.891
02/01/2014  10:10:00       23.502      -35.459       17.369       34.396       61.547       36.345     1183.072     3788.067     1320.943        0.420        0.315       42.541       23.673        0.310      331.450       -0.526      862.888
02/01/2014  10:11:00       22.582       43.925       51.865       57.339       60.047       41.401     3287.794     3605.683     1714.003        0.687        0.430       49.390       30.219        0.374      331.479       -0.479      862.900
02/01/2014  10:12:00        1.912       52.194       66.695       34.845       32.910       28.205     1214.192     1083.087      795.511        0.513        0.155       52.229       20.345        0.152      331.331       -0.722      862.932
02/01/2014  10:13:00       80.856       49.053       28.801       46.953       45.268       38.635     2204.585     2049.209     1492.631        0.776        0.287       94.572       34.192        0.131      330.936       -1.372      862.938
02/01/2014  10:14:00       90.362       31.160        5.547       42.607       39.172       29.894     1815.374     1534.429      893.645        0.670        0.212       95.583       16.915        0.031      331.161       -1.002      862.948
02/01/2014  10:15:00       93.316       65.017        9.253       62.229       57.589       40.571     3872.446     3316.447     1646.032        1.093        0.442      113.733       12.184        0.011      331.256       -0.846      862.946
02/01/2014  10:16:00       56.485       77.131        0.665       31.450       26.195       35.397      989.104      686.202     1252.917        0.603        0.146       95.602       24.065        0.063      331.134       -1.047      862.948
02/01/2014  10:17:00       69.469       59.830        3.953       47.882       47.861       29.256     2292.701     2290.635      855.933        0.693        0.272       91.682       19.119        0.043      331.161       -1.002      862.953
02/01/2014  10:18:00       39.950       47.875        7.386       39.326       36.635       28.786     1546.527     1342.145      828.654        0.383        0.186       62.354       18.981        0.093      331.379       -0.643      862.950
02/01/2014  10:19:00       32.259       63.202       65.674       38.925       52.861       36.829     1515.160     2794.264     1356.392        0.751        0.283       70.958       29.293        0.170      331.733       -0.061      862.949
02/01/2014  10:20:00        2.142      124.888      141.435       33.845       66.725       42.532     1145.453     4452.175     1809.002        2.150        0.370      124.907       45.351        0.132      331.339       -0.711      862.939
02/01/2014  10:21:00       86.826      135.217      113.595       74.159       55.363       48.374     5499.582     3065.095     2340.078        2.481        0.545      160.694       40.655        0.064      331.165       -0.998      862.940
02/01/2014  10:22:00      167.294      119.688       63.491       68.174       58.881       54.890     4647.719     3466.949     3012.872        2.873        0.556      205.700       42.624        0.043      331.126       -1.063      862.940
02/01/2014  10:23:00      145.345      145.506      112.772       50.786       52.776       57.383     2579.243     2785.358     3292.818        3.183        0.433      205.663       34.655        0.028      331.190       -0.958      862.938
02/01/2014  10:24:00      107.822       95.921       75.413       65.201       67.030       56.434     4251.134     4492.965     3184.749        1.922        0.596      144.314       47.021        0.106      331.386       -0.634      862.952
02/01/2014  10:25:00      125.667      103.201       61.156       69.248       33.730       39.607     4795.344     1137.745     1568.747        1.884        0.375      162.612       34.851        0.046      331.150       -1.022      862.965
02/01/2014  10:26:00       43.776       97.348      112.974       66.603       58.691       40.306     4435.991     3444.594     1624.576        1.683        0.475      106.738       44.850        0.177      331.350       -0.693      862.972
02/01/2014  10:27:00       35.598       17.394       15.493       52.322       46.747       47.578     2737.546     2185.300     2263.685        0.450        0.359       39.620       29.075        0.539      331.243       -0.867      862.977
02/01/2014  10:28:00       -0.766       72.792        0.894       29.250       43.326       25.609      855.592     1877.138      655.799        0.434        0.169       72.796       15.611        0.046      331.576       -0.320      862.970
02/01/2014  10:29:00      -16.498       41.493       14.713       27.446       38.118       24.202      753.275     1452.980      585.757        0.250        0.140       44.653       21.175        0.225      331.927        0.259      862.965
02/01/2014  10:30:00       77.809       58.340       31.183       33.993       37.879       27.730     1155.526     1434.789      768.962        0.689        0.168       97.251       22.909        0.055      331.676       -0.156      862.952
02/01/2014  10:31:00      108.069       55.988       29.615       76.948       48.630       43.415     5921.045     2364.840     1884.834        1.293        0.509      121.711       30.089        0.061      331.646       -0.204      862.957
02/01/2014  10:32:00       93.704       73.948       31.889       48.130       35.822       40.328     2316.459     1283.191     1626.329        1.024        0.261      119.368       12.133        0.010      331.376       -0.648      862.949
02/01/2014  10:33:00       24.521       61.337       71.753       47.094       65.638       43.044     2217.837     4308.400     1852.764        0.894        0.419       66.057       44.566        0.455      331.855        0.139      862.949
02/01/2014  10:34:00       19.378       65.318       70.082       59.860       53.957       33.174     3583.224     2911.375     1100.520        0.857        0.380       68.132       15.304        0.050      332.221        0.744      862.937
02/01/2014  10:35:00       78.774        3.437       54.703       73.063       99.151       50.247     5338.171     9831.008     2524.780        1.345        0.885       78.848       42.160        0.286      331.829        0.096      862.931
02/01/2014  10:36:00      112.633       82.485       59.653       59.982       42.619       39.426     3597.846     1816.406     1554.409        1.501        0.348      139.607       24.906        0.032      331.556       -0.353      862.932
02/01/2014  10:37:00        5.769      -41.123       33.017       41.438       73.280       40.441     1717.121     5369.958     1635.481        0.577        0.436       41.525       41.478        0.998      331.997        0.373      862.938
02/01/2014  10:38:00       45.091       53.776      106.001       55.648       72.167       43.982     3096.665     5208.009     1934.391        1.320        0.512       70.179       38.445        0.300      331.865        0.157      862.937
02/01/2014  10:39:00       36.309       19.132       82.379       46.509       60.815       36.352     2163.118     3698.501     1321.484        0.783        0.359       41.041       35.346        0.742      331.987        0.358      862.941
02/01/2014  10:40:00       53.319       -7.343       44.601       40.579       58.518       38.439     1646.685     3424.343     1477.562        0.572        0.327       53.822       28.345        0.277      331.963        0.318      862.947
02/01/2014  10:41:00       49.050       45.686       43.710       34.212       28.959       29.189     1170.468      838.651      852.012        0.463        0.143       67.031       16.829        0.063      331.860        0.147      862.950
02/01/2014  10:42:00       52.256       39.268       30.890       24.296       31.806       24.704      590.295     1011.645      610.301        0.372        0.111       65.366       15.863        0.059      331.557       -0.351      862.939
02/01/2014  10:43:00       80.083       76.559       48.787       36.508       35.440       39.727     1332.805     1255.967     1578.243        0.941        0.208      110.791       22.340        0.041      331.523       -0.408      862.929
02/01/2014  10:44:00       79.054       67.214       17.216       29.296       18.718       27.773      858.277      350.363      771.363        0.652        0.099      103.765        8.848        0.007      331.388       -0.630      862.921
02/01/2014  10:45:00       33.636       -8.889        3.726       50.474       64.708       37.188     2547.601     4187.138     1382.959        0.467        0.406       34.791       27.233        0.613      331.860        0.148      862.898
02/01/2014  10:46:00       87.698      -34.700       38.342       54.399       65.421       43.777     2959.217     4279.966     1916.453        0.976        0.458       94.313       40.364        0.183      331.742       -0.049      862.888
02/01/2014  10:47:00       40.618       21.484       35.943       53.689       45.047       29.716     2882.543     2029.200      883.031        0.460        0.290       45.950       23.143        0.254      332.256        0.801      862.860
02/01/2014  10:48:00       90.197       61.859        5.735       66.775       43.724       35.827     4458.880     1911.824     1283.569        0.982        0.383      109.371       17.885        0.027      332.034        0.435      862.848
02/01/2014  10:49:00      121.831       57.244       14.987       50.604       63.221       37.253     2560.724     3996.946     1387.796        1.314        0.397      134.609       23.599        0.031      331.875        0.172      862.825
02/01/2014  10:50:00       31.940       73.717       83.057       44.913       55.853       37.341     2017.145     3119.520     1394.362        0.994        0.327       80.339       18.521        0.053      332.498        1.198      862.804
02/01/2014  10:51:00       33.060       -2.508       72.202       35.960       60.042       27.989     1293.100     3604.987      783.382        0.600        0.284       33.155       30.049        0.821      332.402        1.042      862.804
02/01/2014  10:52:00       78.595       85.618       77.387       55.938       39.124       38.555     3129.048     1530.701     1486.464        1.282        0.307      116.222       29.498        0.064      332.022        0.415      862.803
02/01/2014  10:53:00       49.616       78.963        6.876       48.155       48.582       39.119     2318.911     2360.220     1530.285        0.748        0.310       93.258       30.939        0.110      331.820        0.082      862.803
02/01/2014  10:54:00       34.579       30.467       13.258       35.964       31.244       36.460     1293.394      976.195     1329.330        0.295        0.180       46.086       22.052        0.229      332.130        0.592      862.789
02/01/2014  10:55:00       42.704       53.105       76.400       60.998       46.891       34.088     3720.808     2198.762     1162.002        0.878        0.354       68.145       26.525        0.152      332.204        0.715      862.802
02/01/2014  10:56:00       62.200       38.924       -1.859       50.275       38.224       39.730     2527.552     1461.092     1578.506        0.548        0.278       73.376       23.736        0.105      331.683       -0.143      862.806
02/01/2014  10:57:00        8.800       54.573        5.127       35.648       42.809       35.095     1270.786     1832.572     1231.635        0.371        0.217       55.278       26.386        0.228      331.940        0.280      862.795
02/01/2014  10:58:00       86.397       44.475       28.778       43.530       43.067       35.390     1894.850     1854.730     1252.458        0.764        0.250       97.173       23.536        0.059      332.251        0.792      862.784
02/01/2014  10:59:00       85.420       69.431       24.324       42.749       30.676       37.355     1827.464      940.992     1395.380        0.844        0.208      110.078       23.747        0.047      331.945        0.288      862.781
02/01/2014  11:00:00       54.358       50.305        4.683       50.000       35.909       36.410     2499.961     1289.466     1325.720        0.531        0.256       74.064       23.310        0.099      332.127        0.588      862.775
02/01/2014  11:01:00       48.307       63.842       18.243       55.760       41.174       27.200     3109.143     1695.318      739.860        0.614        0.277       80.058       26.167        0.107      332.244        0.780      862.773
02/01/2014  11:02:00       17.782       23.855       50.229       41.372       52.018       25.036     1711.639     2705.860      626.807        0.423        0.252       29.753       15.086        0.257      332.617        1.396      862.772
02/01/2014  11:03:00       18.824       96.971      130.179       78.683      107.859       63.055     6190.956    11633.574     3975.961        2.425        1.090       98.781       76.049        0.593      332.613        1.388      862.763
02/01/2014  11:04:00      113.001      -82.390       32.853       83.299      124.841       76.738     6938.722    15585.180     5888.740        2.452        1.421      139.847       85.361        0.373      332.082        0.512      862.760
02/01/2014  11:05:00       69.318      134.247      149.234       73.065       86.953       67.540     5338.479     7560.849     4561.669        3.128        0.873      151.087       66.810        0.196      332.384        1.010      862.743
02/01/2014  11:06:00       77.685      -17.151       42.445       82.992       80.481       59.824     6887.717     6477.187     3578.894        1.253        0.847       79.556       53.558        0.453      332.355        0.963      862.743
02/01/2014  11:07:00       54.449      -97.702       -6.663       68.830       46.911       28.265     4737.567     2200.607      798.929        1.014        0.387      111.850       24.197        0.047      331.896        0.206      862.737
02/01/2014  11:08:00        9.583       -4.113       51.778       34.768       52.909       36.021     1208.808     2799.345     1297.504        0.405        0.265       10.428       29.704        8.113      332.843        1.769      862.702
02/01/2014  11:09:00       68.525      -93.363       33.603       73.914      115.342       64.854     5463.324    13303.834     4206.052        1.875        1.149      115.812       79.575        0.472      332.594        1.357      862.681
02/01/2014  11:10:00       35.589       46.055       96.158       51.651       96.309       53.179     2667.839     9275.440     2828.001        1.370        0.739       58.203       65.314        1.259      332.247        0.786      862.679
02/01/2014  11:11:00       17.329       34.076        6.685       50.039       54.077       29.780     2503.915     2924.336      886.840        0.391        0.316       38.229       27.248        0.508      332.005        0.386      862.661
02/01/2014  11:12:00       65.770      107.353       96.005       58.307       48.930       34.099     3399.658     2394.101     1162.775        1.601        0.348      125.898       30.081        0.057      332.368        0.985      862.631
02/01/2014  11:13:00       70.802       91.648       74.220       58.771       46.128       43.058     3454.070     2127.822     1854.012        1.318        0.372      115.812       39.137        0.114      332.324        0.913      862.613
02/01/2014  11:14:00       73.831        7.008       55.535       54.616      112.242       44.883     2982.876    12598.210     2014.466        1.309        0.880       74.163       46.088        0.386      332.559        1.301      862.608
02/01/2014  11:15:00       65.880       64.773       80.748       63.175       51.977       46.606     3991.027     2701.641     2172.125        1.196        0.443       92.389       38.712        0.176      332.506        1.214      862.595
02/01/2014  11:16:00       45.680      -47.901       13.428       48.649       75.962       46.201     2366.753     5770.253     2134.551        0.741        0.514       66.191       48.471        0.536      332.376        0.998      862.586
02/01/2014  11:17:00       89.065     -123.158      -18.604       42.357       44.942       36.031     1794.082     2019.783     1298.265        1.428        0.256      151.989       28.450        0.035      332.151        0.628      862.582
02/01/2014  11:18:00       23.475       13.113       44.707       32.989       53.173       35.010     1088.299     2827.339     1225.699        0.393        0.257       26.889       39.816        2.193      332.307        0.885      862.558
02/01/2014  11:19:00       70.124       58.438       20.319       41.813       19.767       33.086     1748.334      390.719     1094.715        0.599        0.162       91.282       24.557        0.072      332.069        0.492      862.539
02/01/2014  11:20:00       27.953       26.942       29.404       59.791       48.514       56.011     3574.995     2353.574     3137.224        0.572        0.453       38.823       48.503        1.561      332.325        0.915      862.520
02/01/2014  11:21:00       57.784       49.081       27.133       49.455       36.858       38.649     2445.814     1358.545     1493.759        0.589        0.265       75.815       23.536        0.096      332.407        1.049      862.512
02/01/2014  11:22:00       49.008      -23.410       32.683       65.593       58.797       52.562     4302.470     3457.138     2762.804        0.727        0.526       54.312       34.401        0.401      332.793        1.686      862.484
02/01/2014  11:23:00       41.537        3.401       35.007       45.725       33.753       34.725     2090.731     1139.257     1205.812        0.370        0.222       41.676       27.578        0.438      332.725        1.576      862.486
02/01/2014  11:24:00       14.716       36.536       43.068       21.987       25.484       26.566      483.416      649.419      705.761        0.262        0.092       39.388       17.361        0.194      332.776        1.659      862.468
02/01/2014  11:25:00        7.072        3.285       24.093       17.059       25.716       18.133      290.998      661.305      328.822        0.096        0.064        7.798       15.131        3.765      332.962        1.967      862.441
02/01/2014  11:26:00      -59.525      -22.259       -6.507       25.379       16.120       15.025      644.102      259.859      225.740        0.261        0.056       63.551       12.867        0.041      332.373        0.994      862.429
02/01/2014  11:27:00      -20.843      -26.309       11.819       36.277       33.999       32.831     1316.018     1155.932     1077.855        0.241        0.177       33.565       26.711        0.633      332.968        1.978      862.404
02/01/2014  11:28:00       52.336      -64.271       30.492       99.481      127.362       74.975     9896.444    16221.171     5621.200        1.976        1.587       82.884       91.504        1.219      332.939        1.927      862.382
02/01/2014  11:29:00       79.885     -104.673        5.771       66.692       86.015       46.908     4447.885     7398.575     2200.387        1.571        0.702      131.674       49.061        0.139      332.618        1.397      862.370
02/01/2014  11:30:00      108.036      -24.001       62.697       96.014      114.078       73.191     9218.667    13013.845     5356.942        2.188        1.379      110.670       67.861        0.376      332.847        1.774      862.314
02/01/2014  11:31:00       55.152       85.153      138.076       85.802       91.335       84.489     7361.900     8342.062     7138.410        2.610        1.142      101.453       82.377        0.659      332.703        1.536      862.312
02/01/2014  11:32:00       57.096       39.652      115.811       85.090      103.781       70.072     7240.277    10770.447     4910.139        2.058        1.146       69.515       73.827        1.128      332.949        1.942      862.300
02/01/2014  11:33:00       90.423       56.023       43.195       82.688       81.503       48.016     6837.383     6642.662     2305.530        1.448        0.789      106.371       40.612        0.146      332.731        1.584      862.264
02/01/2014  11:34:00       21.929       -5.562       33.587       48.851      109.781       48.636     2386.468    12051.967     2365.482        0.922        0.840       22.623       46.175        4.166      333.096        2.186      862.232
02/01/2014  11:35:00       74.457      -62.240       24.544       84.347      103.496       58.870     7114.460    10711.360     3465.659        1.565        1.065       97.044       63.734        0.431      332.953        1.949      862.219
02/01/2014  11:36:00       47.790       29.624       59.687       56.251       64.919       53.346     3164.219     4214.472     2845.787        0.847        0.511       56.227       48.121        0.732      333.224        2.399      862.184
02/01/2014  11:37:00        8.631       -5.341       48.354       59.541       57.622       36.511     3545.110     3320.292     1333.084        0.532        0.410       10.150       29.147        8.247      333.306        2.535      862.173
02/01/2014  11:38:00      129.895      104.381       11.532       59.639       49.590       39.518     3556.852     2459.169     1561.662        1.774        0.379      166.637       25.355        0.023      332.530        1.251      862.159
02/01/2014  11:39:00      110.700       58.025        6.816       54.420       44.130       33.372     2961.543     1947.449     1113.670        1.084        0.301      124.986       24.147        0.037      332.644        1.439      862.136
02/01/2014  11:40:00       15.242       21.492       37.527       47.179       55.803       46.257     2225.818     3114.028     2139.730        0.479        0.374       26.348       30.137        1.308      333.458        2.785      862.131
02/01/2014  11:41:00       75.443       76.767       66.551       43.269       41.433       33.736     1872.215     1716.702     1138.102        1.037        0.236      107.633       20.264        0.035      332.779        1.664      862.121
02/01/2014  11:42:00      169.241      133.775       78.941      102.972       71.422       78.029    10603.263     5101.146     6088.551        3.728        1.090      215.727       70.390        0.106      332.747        1.608      862.100
02/01/2014  11:43:00      124.587      135.389       95.603       87.239       79.195       86.804     7610.717     6271.856     7534.885        3.220        1.071      183.989       76.097        0.171      333.017        2.056      862.091
02/01/2014  11:44:00       93.591       95.309       99.427       79.058       71.837       56.595     6250.237     5160.509     3203.018        2.117        0.731      133.578       55.435        0.172      332.838        1.761      862.092
02/01/2014  11:45:00       34.611       65.781       86.454       50.126       80.880       49.722     2512.666     6541.634     2472.315        1.226        0.576       74.331       54.193        0.532      333.045        2.103      862.079
02/01/2014  11:46:00       18.282       54.112       78.097       57.412       57.366       32.217     3296.137     3290.811     1037.916        0.849        0.381       57.117       32.091        0.316      333.487        2.834      862.061
02/01/2014  11:47:00       64.888       55.505       39.332       69.384       51.993       45.839     4814.204     2703.222     2101.219        0.923        0.481       85.389       32.148        0.142      333.054        2.118      862.021
02/01/2014  11:48:00       85.623       89.696       64.063       54.529       54.431       54.632     2973.371     2962.701     2984.642        1.420        0.446      124.002       41.091        0.110      333.039        2.093      861.994
02/01/2014  11:49:00      191.105       84.819       34.119       54.549       44.254       48.144     2975.587     1958.399     2317.806        2.606        0.363      209.082       32.465        0.024      332.944        1.934      861.973
02/01/2014  11:50:00      101.738      136.254      119.975       85.942       53.706       54.670     7386.003     2884.286     2988.798        2.828        0.663      170.047       31.262        0.034      333.344        2.595      861.950
02/01/2014  11:51:00      174.528      100.395       60.635       85.229       61.465       53.282     7263.930     3777.977     2838.942        2.905        0.694      201.344       39.487        0.038      332.751        1.616      861.922
02/01/2014  11:52:00       25.464      -14.218      -10.846       35.515       47.259       17.958     1261.320     2233.382      322.501        0.239        0.191       29.164       14.718        0.255      333.081        2.164      861.892
02/01/2014  11:53:00       11.415       15.774       34.366       27.981       35.695       21.081      782.952     1274.113      444.410        0.203        0.125       19.471       12.152        0.389      333.544        2.928      861.857
02/01/2014  11:54:00       43.729       49.284       92.108       78.445       79.411       69.428     6153.637     6306.150     4820.260        1.505        0.864       65.887       60.478        0.843      333.357        2.620      861.841
02/01/2014  11:55:00       45.426       41.498       56.964       57.410       50.044       40.214     3295.953     2504.422     1617.160        0.722        0.371       61.527       16.972        0.076      333.621        3.056      861.826
02/01/2014  11:56:00       11.274       82.971      100.299       28.581       50.715       36.773      816.857     2571.981     1352.279        1.091        0.237       83.734       36.554        0.191      333.197        2.354      861.794
02/01/2014  11:57:00       84.553      100.835       51.381       82.445       52.526       46.478     6797.232     2759.033     2160.231        1.583        0.586      131.593       51.310        0.152      333.225        2.399      861.758
02/01/2014  11:58:00      154.525      132.288       23.150       61.335       54.262       43.899     3761.967     2944.324     1927.129        2.527        0.432      203.416       33.884        0.028      333.089        2.174      861.732
02/01/2014  11:59:00      159.330      104.974       16.484       81.553       51.765       46.873     6650.843     2679.644     2197.119        2.410        0.576      190.802       20.744        0.012      333.144        2.266      861.711
02/01/2014  12:00:00      162.487      115.313       58.686       79.019       64.024       72.779     6243.924     4099.075     5296.766        2.939        0.782      199.247       56.588        0.081      333.186        2.334      861.681
02/01/2014  12:01:00      151.855       67.313       32.646       71.858       57.310       58.762     5163.590     3284.443     3453.030        2.028        0.595      166.105       33.118        0.040      333.485        2.828      861.653
02/01/2014  12:02:00       59.479       47.646       78.450       74.885       82.828       64.559     5607.820     6860.525     4167.863        1.430        0.832       76.210       58.629        0.592      333.653        3.109      861.617
02/01/2014  12:03:00      130.392      118.861      111.908       87.898       64.640       58.257     7726.095     4178.357     3393.842        2.947        0.765      176.437       33.765        0.037      333.319        2.555      861.594
02/01/2014  12:04:00      172.283        1.075       33.566      141.424      173.028       91.004    20000.831    29938.665     8281.661        4.451        2.911      172.286       76.575        0.198      333.413        2.709      861.560
02/01/2014  12:05:00       49.613     -144.653      -15.756       79.591      103.931       61.800     6334.654    10801.600     3819.231        2.229        1.048      152.924       43.515        0.081      333.437        2.749      861.558
02/01/2014  12:06:00       84.209     -133.615        1.796       77.055       80.940       44.629     5937.406     6551.291     1991.739        1.971        0.724      157.937       48.910        0.096      333.316        2.549      861.562
02/01/2014  12:07:00       57.372       40.366       96.822       97.904      102.626       85.924     9585.128    10532.103     7383.011        2.089        1.375       70.149       75.361        1.154      333.657        3.113      861.517
02/01/2014  12:08:00      133.434       31.584      100.001      118.048      119.994       79.837    13935.391    14398.536     6374.003        3.175        1.735      137.121       85.971        0.393      333.401        2.689      861.515
02/01/2014  12:09:00       53.927      -59.509       35.095       94.903      135.026       81.236     9006.538    18232.084     6599.360        2.075        1.692       80.308       74.241        0.855      333.767        3.296      861.490
02/01/2014  12:10:00       79.348       26.601      104.036       77.666      130.086       75.023     6032.069    16922.375     5628.437        2.320        1.429       83.688       85.605        1.046      333.526        2.897      861.479
02/01/2014  12:11:00      131.303     -145.983       17.431      114.858      179.686       82.490    13192.368    32287.050     6804.640        4.556        2.614      196.345      108.560        0.306      333.712        3.205      861.452
02/01/2014  12:12:00      152.084     -100.244       47.871      133.681      203.849      110.966    17870.673    41554.448    12313.392        5.359        3.587      182.149      150.258        0.680      333.605        3.028      861.452
02/01/2014  12:13:00       90.267      -68.368       59.687       71.803      118.769       85.896     5155.733    14106.092     7378.192        2.151        1.332      113.236       76.661        0.458      333.764        3.291      861.459
02/01/2014  12:14:00      -44.644      -81.050       26.706       67.328      120.536       93.416     4533.116    14528.998     8726.470        1.853        1.389       92.532       71.938        0.604      333.890        3.500      861.422
02/01/2014  12:15:00      -23.746      -41.289        9.887       38.137       59.079       45.697     1454.440     3490.321     2088.254        0.470        0.352       47.630       39.731        0.696      334.316        4.208      861.424
02/01/2014  12:16:00      -22.556      -99.717       46.334       76.151      115.883       92.261     5798.946    13428.888     8512.068        2.016        1.387      102.237       89.369        0.764      334.142        3.919      861.410
02/01/2014  12:17:00       -5.339     -119.373       37.741       90.575      111.868       68.881     8203.830    12514.375     4744.636        2.058        1.273      119.493       65.833        0.304      334.156        3.942      861.398
02/01/2014  12:18:00       70.351      -57.228       83.023      107.568      172.635       75.314    11570.877    29802.714     5672.183        3.107        2.352       90.688       96.981        1.144      333.886        3.493      861.394
02/01/2014  12:19:00       38.724       41.935       97.794       72.083       86.211       62.251     5195.995     7432.318     3875.207        1.466        0.825       57.080       60.282        1.115      333.751        3.270      861.371
02/01/2014  12:20:00       93.890       32.389       92.011      118.795      123.068       90.498    14112.233    15145.624     8189.899        2.788        1.872       99.320      102.360        1.062      333.779        3.316      861.344
02/01/2014  12:21:00      160.935     -111.420       21.324      128.365      176.040      110.772    16477.514    30990.236    12270.479        4.924        2.987      195.741      127.505        0.424      333.709        3.198      861.303
02/01/2014  12:22:00       70.645     -153.282        7.732      105.295      138.545       90.025    11087.103    19194.757     8104.508        3.346        1.919      168.778       92.824        0.302      333.726        3.228      861.297
02/01/2014  12:23:00       -7.644      -82.679       16.123      104.745       92.229       49.257    10971.458     8506.101     2426.241        1.453        1.095       83.032       48.342        0.339      334.129        3.898      861.272
02/01/2014  12:24:00      -35.474       18.973       83.135       53.305       94.341       72.077     2841.426     8900.249     5195.122        1.273        0.847       40.229       53.404        1.762      334.332        4.235      861.244
02/01/2014  12:25:00      -30.251      -21.055       49.059       48.935       74.275       50.633     2394.594     5516.739     2563.709        0.712        0.524       36.857       40.186        1.189      334.457        4.442      861.226
02/01/2014  12:26:00       10.180      -59.529       18.533       89.766       87.905       66.446     8057.957     7727.216     4415.088        1.209        1.010       60.393       49.173        0.663      334.231        4.067      861.221
02/01/2014  12:27:00       96.375     -223.375        7.844      132.142      156.506       71.423    17461.520    24494.041     5101.189        5.314        2.353      243.278       87.872        0.130      333.914        3.539      861.193
02/01/2014  12:28:00      139.314     -143.423       42.758      141.623      182.054      104.232    20057.054    33143.747    10864.388        5.293        3.203      199.946      123.463        0.381      333.897        3.510      861.154
02/01/2014  12:29:00       -0.768      -85.623       12.541      112.295      138.112       73.914    12610.145    19075.044     5463.246        2.231        1.857       85.627       50.011        0.341      334.126        3.892      861.158
02/01/2014  12:30:00      121.394     -193.207       26.033       99.315      190.437       78.344     9863.535    36266.189     6137.853        5.250        2.613      228.178      106.314        0.217      333.693        3.174      861.170
02/01/2014  12:31:00       30.051      -37.675       84.322       77.364      126.053       88.027     5985.264    15889.453     7748.720        1.952        1.481       48.192       45.509        0.892      333.970        3.634      861.149
02/01/2014  12:32:00      106.454     -105.119       44.753      119.300      170.673      113.382    14232.445    29129.335    12855.440        4.029        2.811      149.607      100.393        0.450      333.664        3.125      861.116
02/01/2014  12:33:00       40.171       26.146      126.037      102.785      170.347      104.724    10564.710    29017.951    10967.028        3.436        2.527       47.930      121.156        6.390      333.842        3.418      861.117
02/01/2014  12:34:00      115.126      -23.482       93.928      121.851      195.838      104.077    14847.620    38352.436    10832.065        4.332        3.202      117.496      128.601        1.198      333.728        3.230      861.089
02/01/2014  12:35:00       73.653      -28.859       93.004       89.385      198.467       97.704     7989.715    39389.078     9546.168        3.591        2.846       79.105      126.518        2.558      333.900        3.516      861.076
02/01/2014  12:36:00      125.456      -81.604       34.697      101.883       93.697       64.534    10380.066     8779.153     4164.607        2.346        1.166      149.661       65.250        0.190      333.762        3.288      861.056
02/01/2014  12:37:00       67.987     -108.659       12.296       88.514       70.712       35.981     7834.744     5000.197     1294.657        1.535        0.706      128.176       29.767        0.054      334.007        3.695      861.058
02/01/2014  12:38:00      -19.851      -61.547       10.450       64.345       74.685       46.544     4140.304     5577.850     2166.358        0.809        0.594       64.670       38.488        0.354      334.290        4.164      861.040
02/01/2014  12:39:00      106.125     -129.213       13.935      114.457      155.508       72.019    13100.463    24182.609     5186.747        3.530        2.123      167.208       88.276        0.279      334.138        3.909      861.034
02/01/2014  12:40:00       49.271     -111.789       15.617      101.261      119.646       84.674    10253.709    14315.174     7169.632        2.345        1.587      122.166       78.066        0.408      334.168        3.961      861.012
02/01/2014  12:41:00       38.861     -126.589       -9.269      105.581       79.865       53.866    11147.268     6378.372     2901.534        1.902        1.021      132.420       42.242        0.102      334.135        3.906      860.990
02/01/2014  12:42:00      -18.277      -84.921       15.558       90.641       75.260       49.837     8215.815     5664.061     2483.680        1.207        0.818       86.866       48.442        0.311      334.194        4.004      860.982
02/01/2014  12:43:00       64.210     -238.290      -30.442      136.771      124.420       72.417    18706.436    15480.444     5244.223        5.062        1.972      246.789       50.329        0.042      334.010        3.698      860.969
02/01/2014  12:44:00      152.177     -218.694      -13.899       89.038      107.024       67.022     7927.774    11454.140     4491.890        4.752        1.194      266.429       47.131        0.031      333.842        3.418      860.963
02/01/2014  12:45:00      134.580     -132.301       51.097      116.654      176.619       83.164    13608.238    31194.151     6916.287        4.496        2.586      188.720      117.897        0.390      333.777        3.312      860.957
02/01/2014  12:46:00      108.354     -149.736       34.678      102.488      135.925       79.348    10503.716    18475.538     6296.098        3.531        1.764      184.828       77.806        0.177      333.979        3.648      860.952
02/01/2014  12:47:00       96.315     -171.824       14.031      113.486      148.067       87.234    12879.172    21923.919     7609.848        4.070        2.121      196.977       94.766        0.231      333.933        3.571      860.946
02/01/2014  12:48:00       67.081     -125.741      -19.897      117.810       96.619       57.807    13879.282     9335.308     3341.630        2.363        1.328      142.516       65.347        0.210      334.021        3.716      860.932
02/01/2014  12:49:00       -4.975      -70.836        7.510       74.821       89.223       52.600     5598.130     7960.788     2766.711        1.071        0.816       71.010       43.365        0.373      334.277        4.144      860.916
02/01/2014  12:50:00      -35.278     -161.777        3.517      109.917      106.069       48.917    12081.803    11250.714     2392.894        2.657        1.286      165.579       50.372        0.093      334.076        3.808      860.887
02/01/2014  12:51:00       14.251      -52.197       11.596       80.027       93.701       55.186     6404.297     8779.959     3045.544        1.064        0.911       54.108       42.091        0.605      334.361        4.283      860.867
02/01/2014  12:52:00       62.342      -90.472       33.408      135.135      155.645       82.290    18261.378    24225.437     6771.637        3.121        2.463      109.871       98.234        0.799      334.083        3.820      860.846
02/01/2014  12:53:00        0.334     -182.611       -3.010      103.797      121.998       63.897    10773.865    14883.575     4082.847        3.154        1.487      182.611       62.396        0.117      334.012        3.701      860.820
02/01/2014  12:54:00       78.989       82.546      107.813      129.019      150.211      118.408    16645.946    22563.240    14020.369        3.894        2.661      114.251      113.420        0.986      334.125        3.891      860.778
02/01/2014  12:55:00      134.488       91.585       99.891      162.062      111.971       89.339    26264.114    12537.490     7981.544        4.161        2.339      162.711       71.235        0.192      333.853        3.438      860.758
02/01/2014  12:56:00       53.302      -69.853       74.133       90.024      154.777      100.373     8104.367    23956.018    10074.731        2.767        2.107       87.867       88.828        1.022      334.149        3.928      860.787
02/01/2014  12:57:00       80.253      -98.600       40.480       90.962      119.870       74.112     8274.163    14368.788     5492.621        2.296        1.407      127.132       68.313        0.289      333.880        3.483      860.807
02/01/2014  12:58:00       85.708     -132.008       14.099       88.586      100.267       76.545     7847.516    10053.373     5859.209        2.436        1.188      157.391       66.118        0.176      333.776        3.310      860.773
02/01/2014  12:59:00       24.858     -138.471      -19.021       81.008       99.636       71.526     6562.313     9927.366     5115.958        2.088        1.080      140.685       59.652        0.180      334.317        4.208      860.760
02/01/2014  13:00:00       11.597       17.817      104.033      104.168      122.491      110.611    10850.967    15003.939    12234.779        2.468        1.904       21.259      105.916       24.822      334.388        4.327      860.720
02/01/2014  13:01:00       59.115      -88.952       41.659      104.589      110.015       58.275    10938.890    12103.252     3395.926        1.979        1.322      106.804       58.495        0.300      334.279        4.147      860.745
02/01/2014  13:02:00       -7.282      -59.080       51.930       84.148      100.923       54.872     7080.899    10185.548     3010.959        1.326        1.014       59.527       54.942        0.852      334.323        4.218      860.727
02/01/2014  13:03:00        9.099      -95.950       64.573       69.395      107.249       64.997     4815.712    11502.285     4224.674        1.700        1.027       96.380       55.112        0.327      334.298        4.176      860.717
02/01/2014  13:04:00       90.353     -132.101       -9.223       86.176      103.481       67.004     7426.307    10708.324     4489.485        2.416        1.131      160.044       65.462        0.167      333.985        3.656      860.731
02/01/2014  13:05:00      -22.579      -44.951       27.230       41.572       60.891       41.581     1728.198     3707.696     1729.007        0.522        0.358       50.303       23.461        0.218      334.303        4.187      860.694
02/01/2014  13:06:00       45.765       35.808       84.622      112.860      122.001       83.535    12737.492    14884.242     6978.164        2.256        1.730       58.108       93.200        2.572      334.324        4.221      860.677
02/01/2014  13:07:00       83.538     -102.605      107.608      150.708      191.607      122.693    22712.905    36713.181    15053.637        5.177        3.724      132.312      135.444        1.048      334.099        3.845      860.603
02/01/2014  13:08:00      -62.365      -96.428       26.236      121.835       82.641       51.596    14843.700     6829.546     2662.145        1.910        1.217      114.838       33.284        0.084      334.270        4.132      860.657
02/01/2014  13:09:00      -24.860     -187.416        3.343      118.883      114.911       68.072    14133.144    13204.545     4633.756        3.386        1.599      189.057       60.260        0.102      334.182        3.980      860.650
02/01/2014  13:10:00      -10.780     -148.653       12.159       79.631      100.308       65.449     6341.145    10061.782     4283.606        2.152        1.034      149.044       49.201        0.109      334.140        3.915      860.647
02/01/2014  13:11:00       57.770      -55.779       28.424       87.359      142.412       72.552     7631.566    20281.078     5263.750        2.021        1.659       80.303       79.598        0.983      334.402        4.350      860.635
02/01/2014  13:12:00       67.231      -74.557       33.405       92.756       92.743       65.017     8603.698     8601.301     4227.200        1.631        1.072      100.393       65.304        0.423      334.330        4.232      860.631
02/01/2014  13:13:00       93.887     -148.660       24.585       87.650      144.699       78.796     7682.532    20937.707     6208.874        3.317        1.741      175.825       92.097        0.274      333.887        3.494      860.590
02/01/2014  13:14:00       89.047      -23.969       71.581       81.752      172.607       72.042     6683.462    29793.076     5190.028        2.764        2.083       92.217      100.388        1.185      334.083        3.819      860.570
02/01/2014  13:15:00       11.023     -203.594       11.910      146.812      166.128       66.393    21553.774    27598.519     4408.094        4.763        2.678      203.892       69.903        0.118      334.228        4.060      860.586
02/01/2014  13:16:00       -9.234     -119.142       13.405       78.081       94.005       63.158     6096.718     8837.031     3988.937        1.669        0.946      119.499       34.541        0.084      334.662        4.782      860.574
02/01/2014  13:17:00       31.456      -97.099       28.386       83.345      137.639       77.431     6946.315    18944.530     5995.537        2.155        1.594      102.067       87.889        0.741      334.443        4.418      860.557
02/01/2014  13:18:00       68.498     -214.844      -33.736      121.839      109.234       68.209    14844.823    11932.016     4652.424        4.170        1.571      225.499       51.019        0.051      334.199        4.012      860.541
02/01/2014  13:19:00      113.220     -251.411      -24.861      144.433      153.549       89.367    20860.929    23577.445     7986.484        6.453        2.621      275.728       84.643        0.094      334.011        3.700      860.535
02/01/2014  13:20:00       17.769     -157.147       15.834      124.035      118.792       56.508    15384.754    14111.529     3193.167        2.897        1.634      158.149       53.706        0.115      334.193        4.002      860.534
02/01/2014  13:21:00      -51.387     -120.646        8.447      103.668       63.194       50.030    10746.995     3993.524     2502.990        1.725        0.862      131.133       36.994        0.080      334.292        4.168      860.510
02/01/2014  13:22:00       95.739     -127.971       -2.750       67.035       79.148       57.094     4493.747     6264.442     3259.671        1.978        0.701      159.820       48.981        0.094      334.118        3.876      860.476
02/01/2014  13:23:00       78.879      -92.811       -4.160       69.895       95.787       49.900     4885.270     9175.130     2489.978        1.570        0.828      121.802       56.824        0.218      334.151        3.933      860.464
02/01/2014  13:24:00      124.336      -85.105       25.924      158.379      153.646      109.270    25083.951    23607.192    11939.945        4.199        3.032      150.672      136.204        0.817      334.235        4.073      860.426
02/01/2014  13:25:00       85.223       28.981      114.452      104.527      150.707       99.198    10925.978    22712.740     9840.239        3.233        2.174       90.016      107.227        1.419      334.056        3.776      860.414
02/01/2014  13:26:00       66.395       68.985      132.539       86.598      167.368      106.610     7499.165    28011.919    11365.623        3.680        2.344       95.745      125.937        1.730      334.013        3.703      860.402
02/01/2014  13:27:00      157.968     -139.615        7.447      111.566      133.251       75.607    12447.042    17755.895     5716.464        4.020        1.796      210.823       79.481        0.142      334.029        3.729      860.400
02/01/2014  13:28:00       72.077      -30.639       68.556      115.000      131.573      108.737    13225.059    17311.451    11823.684        2.659        2.118       78.319      105.678        1.821      334.135        3.906      860.395
02/01/2014  13:29:00       93.457     -137.553       17.004      106.821      147.923       73.243    11410.801    21881.337     5364.505        3.329        1.933      166.298       92.183        0.307      334.108        3.860      860.391
02/01/2014  13:30:00        9.511      113.564      152.204       60.961       85.952       62.741     3716.273     7387.687     3936.453        2.559        0.752      113.961       58.973        0.268      334.210        4.031      860.405
02/01/2014  13:31:00      -36.975      -45.953       53.829       67.399      100.201       59.601     4542.634    10040.276     3552.272        1.225        0.907       58.982       55.455        0.884      334.569        4.628      860.424
02/01/2014  13:32:00       82.528     -226.784       -6.941      133.915      179.484       78.764    17933.149    32214.491     6203.749        5.731        2.818      241.334       98.073        0.165      334.024        3.722      860.406
02/01/2014  13:33:00       71.466     -206.946      -22.410      102.590      143.048       86.990    10524.688    20462.707     7567.190        4.349        1.928      218.939       80.800        0.136      334.045        3.756      860.398
02/01/2014  13:34:00       71.034     -139.615       -3.719      124.927      120.536      101.976    15606.674    14528.841    10399.028        3.254        2.027      156.647       95.302        0.370      334.163        3.952      860.394
02/01/2014  13:35:00      118.515      -82.541       64.599      157.672      194.272      110.562    24860.349    37741.442    12223.994        4.992        3.741      144.426      128.857        0.796      334.150        3.931      860.381
02/01/2014  13:36:00       28.075      -21.433       95.254       81.717      116.231       79.217     6677.684    13509.702     6275.281        1.839        1.323       35.321       63.884        3.271      334.383        4.319      860.413
02/01/2014  13:37:00      -36.532      -62.513       43.548       65.465       92.192       60.803     4285.608     8499.350     3697.058        1.181        0.824       72.404       55.049        0.578      334.463        4.451      860.406
02/01/2014  13:38:00       57.842      -79.768       18.924       53.078       82.227       57.967     2817.262     6761.288     3360.147        1.150        0.647       98.533       57.160        0.337      334.294        4.172      860.421
02/01/2014  13:39:00       22.131      -70.186       19.647       84.775       61.080       39.364     7186.780     3730.722     1549.564        0.913        0.623       73.592       29.270        0.158      334.534        4.570      860.421
02/01/2014  13:40:00      -76.511      -68.900       16.197      102.687       70.095       38.673    10544.717     4913.269     1495.607        1.391        0.848      102.961       45.371        0.194      334.453        4.435      860.420
02/01/2014  13:41:00      -47.874     -101.237      -10.222      122.455       90.254       56.811    14995.341     8145.765     3227.490        1.950        1.318      111.986       22.614        0.041      334.356        4.272      860.406
02/01/2014  13:42:00      -41.896     -204.884        2.370       93.557      139.671       72.190     8752.961    19507.972     5211.370        3.860        1.674      209.124       70.649        0.114      334.371        4.297      860.431
02/01/2014  13:43:00      -19.623     -210.951      -21.996       79.857       94.108       58.065     6377.088     8856.283     3371.524        3.198        0.930      211.862       46.529        0.048      334.257        4.108      860.425
02/01/2014  13:44:00      -74.864     -124.754       -5.539       99.211       95.976       51.899     9842.800     9211.407     2693.541        2.147        1.087      145.493       44.598        0.094      334.415        4.371      860.417
02/01/2014  13:45:00      -63.649     -146.382       -0.586      121.013       92.432       56.164    14644.181     8543.709     3154.340        2.591        1.317      159.621       50.629        0.101      334.194        4.004      860.417
02/01/2014  13:46:00     -170.820     -171.828      -14.592      145.959       89.576       64.768    21304.144     8023.822     4194.904        4.621        1.676      242.289       75.537        0.097      333.935        3.575      860.408
02/01/2014  13:47:00      -46.688       13.739       31.865       57.430       73.074       48.773     3298.169     5339.744     2378.779        0.720        0.551       48.667       45.709        0.882      334.278        4.145      860.403
02/01/2014  13:48:00      -77.336     -111.695      -13.213       87.536       71.105       48.565     7662.594     5055.867     2358.580        1.685        0.754      135.856       34.936        0.066      334.314        4.202      860.404
02/01/2014  13:49:00      -26.619     -156.459        9.417      161.517      100.994       62.014    26087.711    10199.829     3845.754        3.270        2.007      158.707       54.421        0.118      334.178        3.978      860.397
02/01/2014  13:50:00      158.469     -257.070       -5.421       90.530      131.684       61.524     8195.761    17340.632     3785.186        6.027        1.466      301.989       70.380        0.054      334.163        3.952      860.391
02/01/2014  13:51:00       80.203     -133.363        8.379      117.881       98.646       69.156    13895.953     9731.019     4782.587        2.634        1.420      155.622       65.432        0.177      334.185        3.988      860.400
02/01/2014  13:52:00      157.271     -181.145       14.792      119.968      140.712       74.374    14392.368    19799.816     5531.523        4.874        1.986      239.891       70.282        0.086      334.051        3.766      860.386
02/01/2014  13:53:00      120.865     -146.763       26.582      112.941      152.716       70.206    12755.631    23322.123     4928.890        3.892        2.050      190.126       85.292        0.201      334.099        3.845      860.385
02/01/2014  13:54:00      163.513     -274.078      -27.441      123.805      118.180       73.887    15327.782    13966.590     5459.332        6.868        1.738      319.147       64.523        0.041      333.810        3.366      860.361
02/01/2014  13:55:00       77.419      -53.437       73.446      117.687      170.598      115.694    13850.222    29103.815    13385.100        3.528        2.817       94.070      140.786        2.240      333.954        3.606      860.346
02/01/2014  13:56:00       27.517      -69.416       24.320       62.059      103.314       61.081     3851.362    10673.806     3730.859        1.221        0.913       74.671       51.262        0.471      334.192        4.002      860.357
02/01/2014  13:57:00      -21.734      -16.339       47.822       51.506       72.685       43.586     2652.833     5283.132     1899.744        0.643        0.492       27.190       41.714        2.354      334.538        4.577      860.347
02/01/2014  13:58:00       20.563      -55.240       49.739       72.525      125.348       67.650     5259.851    15712.036     4576.476        1.574        1.277       58.943       73.804        1.568      334.541        4.581      860.360
02/01/2014  13:59:00      -15.031      -34.206       38.355       63.278       88.452       56.122     4004.081     7823.671     3149.705        0.892        0.749       37.363       51.162        1.875      334.788        4.991      860.378
02/01/2014  14:00:00       43.717     -166.528       -9.435      147.060      101.948       56.815    21626.573    10393.456     3227.945        3.248        1.762      172.171       57.620        0.112      334.405        4.353      860.397
02/01/2014  14:01:00      -28.201     -161.470        2.574       78.476       98.318       54.592     6158.502     9666.478     2980.332        2.284        0.940      163.914       47.937        0.086      334.496        4.506      860.406
02/01/2014  14:02:00      -42.702     -149.091       -1.815       84.381      114.196       70.672     7120.123    13040.685     4994.492        2.460        1.258      155.085       57.769        0.139      334.281        4.149      860.397
02/01/2014  14:03:00       95.048      -85.265       33.286      116.068      104.564       55.207    13471.689    10933.705     3047.823        2.243        1.373      127.688       49.838        0.152      334.513        4.534      860.404
02/01/2014  14:04:00      121.801     -184.245       11.553      126.619      177.703       73.115    16032.266    31578.352     5345.814        5.093        2.648      220.866      100.161        0.206      333.997        3.676      860.417
02/01/2014  14:05:00      -58.351      -92.742       11.260       63.773       96.938       50.259     4066.984     9397.063     2526.007        1.406        0.800      109.571       35.823        0.107      334.464        4.452      860.418
02/01/2014  14:06:00      -27.847      -95.238       24.779       61.307       68.550       44.985     3758.600     4699.088     2023.692        1.047        0.524       99.226       35.487        0.128      334.626        4.722      860.384
02/01/2014  14:07:00       -8.923       25.862       72.255       46.605       57.036       35.889     2172.054     3253.156     1288.039        0.634        0.336       27.358       31.571        1.332      334.852        5.099      860.383
02/01/2014  14:08:00      105.651      -82.654       25.463      101.106      144.929       67.040    10222.446    21004.378     4494.322        2.718        1.786      134.141       90.113        0.451      334.491        4.496      860.365
02/01/2014  14:09:00      139.935     -186.345       -1.636      101.120      123.859       72.638    10225.299    15340.944     5276.341        4.257        1.542      233.037       76.362        0.107      334.220        4.045      860.351
02/01/2014  14:10:00      184.715     -201.606      -20.704       73.459      116.371       58.378     5396.243    13542.284     3408.015        4.877        1.117      273.432       60.395        0.049      334.077        3.808      860.338
02/01/2014  14:11:00      120.933     -133.019       -1.884      114.779      123.370       77.983    13174.111    15220.101     6081.398        3.339        1.724      179.774       85.690        0.227      334.353        4.267      860.350
02/01/2014  14:12:00       83.730      -58.277       60.069      136.784      168.248       86.514    18709.848    28307.283     7484.613        3.425        2.725      102.015      103.985        1.039      334.201        4.015      860.336
02/01/2014  14:13:00       96.145     -170.336       51.455      120.759      196.870      108.508    14582.743    38757.823    11774.046        5.300        3.256      195.597      136.163        0.485      334.026        3.723      860.326
02/01/2014  14:14:00      125.055      -39.139       89.260      151.502      216.592      154.489    22952.926    46912.078    23866.806        5.942        4.687      131.036      157.542        1.445      334.080        3.814      860.293
02/01/2014  14:15:00       86.103      -84.254       61.709      116.573      179.660      111.970    13589.190    32277.757    12537.281        3.835        2.920      120.468      120.306        0.997      334.044        3.755      860.324
02/01/2014  14:16:00       36.343      -27.164       65.818       67.964      137.419       75.118     4619.100    18883.961     5642.743        1.776        1.457       45.373       87.573        3.725      334.298        4.177      860.324
02/01/2014  14:17:00       64.642        6.704       86.240       96.640      130.077       81.710     9339.264    16920.145     6676.470        2.229        1.647       64.989       84.020        1.671      334.322        4.216      860.303
02/01/2014  14:18:00       58.025       35.470      102.151      129.176      124.112       69.988    16686.489    15403.782     4898.336        2.602        1.849       68.008       80.635        1.406      334.378        4.308      860.281
02/01/2014  14:19:00       77.067      -85.791       43.886      112.528      187.249       77.067    12662.522    35062.209     5939.373        3.444        2.683      115.323      103.038        0.798      334.316        4.208      860.277
02/01/2014  14:20:00      188.354     -153.462      -10.796      130.906      140.352      126.421    17136.301    19698.577    15982.296        5.597        2.641      242.956      102.960        0.180      334.078        3.810      860.232
02/01/2014  14:21:00       85.762     -157.772      -14.423      119.140      168.176      105.041    14194.406    28283.201    11033.714        4.297        2.676      179.575       88.551        0.243      333.959        3.614      860.254
02/01/2014  14:22:00       96.794      -58.957       72.328      138.749      173.854      139.360    19251.373    30225.052    19421.262        4.348        3.445      113.336      137.575        1.473      334.027        3.727      860.257
02/01/2014  14:23:00       84.277      -73.660       69.464      128.728      173.593      106.180    16570.928    30134.440    11274.170        3.766        2.899      111.930      122.597        1.200      334.181        3.982      860.286
02/01/2014  14:24:00      224.315     -194.121       10.742      197.103      234.501      107.300    38849.662    54990.727    11513.212        9.672        5.268      296.648      163.714        0.305      334.169        3.960      860.299
02/01/2014  14:25:00      100.608       -5.578      115.615      161.135      212.237      159.054    25964.610    45044.752    25298.156        5.990        4.815      100.762      177.353        3.098      334.009        3.697      860.266
02/01/2014  14:26:00      182.364     -212.428      -48.700      118.149      129.989       74.853    13959.294    16897.249     5602.914        5.860        1.823      279.968       75.085        0.072      333.913        3.536      860.299
02/01/2014  14:27:00      148.578     -181.601      -23.545       99.850      142.688       70.726     9969.940    20359.851     5002.117        4.546        1.767      234.637       92.141        0.154      333.999        3.680      860.309
02/01/2014  14:28:00       78.901      -13.081       76.000       85.800      150.239       78.517     7361.556    22571.896     6164.924        2.413        1.805       79.978       92.492        1.337      334.333        4.234      860.313
02/01/2014  14:29:00      196.518     -152.383       13.609      161.804      197.490      106.187    26180.392    39002.114    11275.725        6.923        3.823      248.676      125.412        0.254      334.111        3.865      860.304
02/01/2014  14:30:00      224.261     -269.037      -38.917      121.509      125.920       75.840    14764.363    15855.968     5751.749        8.027        1.819      350.248       69.784        0.040      333.929        3.563      860.317
02/01/2014  14:31:00      221.240     -137.590       46.157      202.160      218.797      132.367    40868.614    47871.986    17520.909        8.812        5.313      260.535      167.882        0.415      334.049        3.762      860.290
02/01/2014  14:32:00      182.272      -56.358       65.862      142.854      159.657      100.437    20407.160    25490.392    10087.611        4.835        2.799      190.786      107.344        0.317      334.140        3.913      860.304
02/01/2014  14:33:00       20.284       21.343       66.504       85.328       67.198       57.380     7280.876     4515.518     3292.491        1.019        0.754       29.444       50.889        2.987      334.352        4.268      860.317
02/01/2014  14:34:00      140.668     -156.280       -1.386      139.431      161.647       75.061    19440.947    26129.734     5634.086        4.770        2.560      210.264      103.858        0.244      334.272        4.134      860.303
02/01/2014  14:35:00      120.222     -179.635       -0.349      125.702      170.391       82.035    15801.097    29033.235     6729.801        4.913        2.578      216.152       70.095        0.105      334.302        4.183      860.293
02/01/2014  14:36:00       78.224      -43.483       57.587       84.284      141.495       54.306     7103.711    20020.900     2949.098        2.069        1.504       89.498       68.920        0.593      334.301        4.182      860.292
02/01/2014  14:37:00      128.215     -103.611       42.478      146.222      141.949      114.924    21380.806    20149.658    13207.472        4.185        2.737      164.846       86.973        0.278      334.273        4.134      860.264
02/01/2014  14:38:00       89.531     -139.603      -10.689      107.513      164.961      111.809    11559.135    27212.122    12501.228        3.944        2.564      165.846      114.989        0.481      334.115        3.873      860.295
02/01/2014  14:39:00       83.708      -47.345       27.071       83.492       94.071       91.857     6970.909     8849.326     8437.748        1.712        1.213       96.170       71.586        0.554      334.021        3.718      860.293
02/01/2014  14:40:00       48.575        5.556       77.054       69.159      113.250       72.590     4782.905    12825.531     5269.304        1.560        1.144       48.892       79.042        2.614      334.266        4.124      860.296
02/01/2014  14:41:00       88.521      -37.223       34.638       83.831       99.364       60.826     7027.626     9873.292     3699.845        1.551        1.030       96.029       63.541        0.438      334.369        4.295      860.292
02/01/2014  14:42:00       91.628      -57.255       36.439       61.508      125.750       61.031     3783.264    15812.975     3724.827        1.816        1.166      108.045       72.998        0.456      334.328        4.227      860.289
02/01/2014  14:43:00       61.597      -43.216       51.438       69.198      130.509       72.399     4788.364    17032.552     5241.576        1.768        1.353       75.245       87.565        1.354      334.512        4.532      860.286
02/01/2014  14:44:00       47.343      -23.891       74.754       91.881      150.513      100.597     8442.032    22654.207    10119.696        2.480        2.061       53.030      106.197        4.010      334.546        4.588      860.278
02/01/2014  14:45:00       67.625       77.662       69.230       85.900       78.461       75.533     7378.862     6156.065     5705.250        1.732        0.962      102.978       64.087        0.387      334.402        4.350      860.267
02/01/2014  14:46:00      145.299     -273.878      -37.944      147.200      113.906       60.774    21667.730    12974.682     3693.475        6.794        1.917      310.034       69.834        0.051      334.598        4.673      860.239
02/01/2014  14:47:00      147.165      -73.810       61.511       99.632      189.844      105.244     9926.480    36040.751    11076.302        4.396        2.852      164.638      124.673        0.573      334.475        4.470      860.229
02/01/2014  14:48:00       89.331      -22.319       50.908      102.468      134.623       78.402    10499.609    18123.404     6146.821        2.291        1.738       92.077       91.391        0.985      334.373        4.300      860.211
02/01/2014  14:49:00       79.177       90.731      125.714      120.035      157.340      118.916    14408.442    24755.931    14141.000        4.180        2.665      120.421      126.054        1.096      334.326        4.223      860.191
02/01/2014  14:50:00      196.370     -212.907      -17.867      122.081      138.305      101.944    14903.807    19128.299    10392.496        6.431        2.221      289.639       97.548        0.113      334.190        3.997      860.179
02/01/2014  14:51:00       38.517      -61.692       41.145       87.079      118.683       67.992     7582.728    14085.657     4622.885        1.663        1.315       72.729       69.820        0.922      334.340        4.248      860.186
02/01/2014  14:52:00       11.347      -24.262       50.086       49.413       80.829       57.192     2441.655     6533.403     3270.950        0.773        0.612       26.784       46.692        3.039      334.417        4.377      860.157
02/01/2014  14:53:00      127.375     -138.599       -6.081      142.857      140.277       75.532    20408.256    19677.605     5705.072        4.062        2.290      188.240       90.793        0.233      334.237        4.075      860.140
02/01/2014  14:54:00       -8.346     -118.661       -9.121       96.266       89.496       72.506     9267.084     8009.503     5257.136        1.838        1.127      118.954       56.521        0.226      334.580        4.643      860.119
02/01/2014  14:55:00       -9.872       48.947      115.259       39.436       94.664       65.107     1555.176     8961.336     4238.967        1.526        0.738       49.932       70.921        2.017      334.698        4.842      860.122
02/01/2014  14:56:00       90.936      -79.091       18.276      101.377      102.529       49.823    10277.320    10512.229     2482.317        1.906        1.164      120.518       62.616        0.270      334.604        4.686      860.122
02/01/2014  14:57:00       62.691      -23.886       51.352      103.199      116.600       75.938    10650.032    13595.610     5766.598        1.857        1.501       67.087       79.643        1.409      334.692        4.832      860.127
02/01/2014  14:58:00       95.876       31.661      106.712      103.155      174.454      127.333    10640.858    30434.060    16213.664        3.943        2.864      100.968      135.832        1.810      334.341        4.247      860.136
02/01/2014  14:59:00       99.360      -74.949       55.808      102.919      168.937       94.940    10592.315    28539.547     9013.592        3.337        2.407      124.458      114.123        0.841      334.280        4.146      860.134
02/01/2014  15:00:00      116.034     -178.357       -9.168      142.744      137.936       71.628    20375.783    19026.223     5130.620        4.494        2.227      212.780       98.773        0.215      334.260        4.112      860.134
02/01/2014  15:01:00      136.823      -93.835       19.128      106.850      151.126      101.312    11416.875    22839.063    10264.218        3.620        2.226      165.908      123.806        0.557      334.081        3.815      860.128
02/01/2014  15:02:00       67.066       33.110      100.361       94.563      158.607      106.628     8942.223    25156.311    11369.553        3.056        2.273       74.794      124.979        2.792      334.206        4.023      860.104
02/01/2014  15:03:00      160.879     -262.695      -25.655       88.362      108.204       49.281     7807.865    11708.146     2428.626        5.874        1.097      308.043       51.310        0.028      334.178        3.975      860.087
02/01/2014  15:04:00      205.521     -222.571       -4.897      137.394      157.751       89.052    18877.169    24885.473     7930.341        7.174        2.585      302.947      113.299        0.140      334.132        3.900      860.054
02/01/2014  15:05:00      139.622       10.313       79.040      120.247      117.874       90.460    14459.223    13894.310     8182.977        3.119        1.827      140.002       95.476        0.465      334.158        3.945      860.080
02/01/2014  15:06:00       93.964        1.808       98.049       97.513      147.706       92.855     9508.734    21816.995     8622.030        2.919        1.997       93.982      115.102        1.500      334.124        3.888      860.080
02/01/2014  15:07:00       54.395       32.199       83.351       72.245       81.471       50.748     5219.323     6637.532     2575.393        1.269        0.722       63.210       52.299        0.685      334.375        4.305      860.067
02/01/2014  15:08:00       21.620        5.829       75.772       70.784      110.734       75.938     5010.423    12262.021     5766.564        1.464        1.152       22.392       88.106       15.482      334.544        4.586      860.057
02/01/2014  15:09:00      110.352     -111.203       35.234       97.403      109.262       62.891     9487.365    11938.099     3955.275        2.558        1.269      156.664       78.001        0.248      334.366        4.288      860.027
02/01/2014  15:10:00      189.928     -276.174      -25.739       96.254      111.521       64.754     9264.802    12436.935     4193.049        6.945        1.295      335.179       63.768        0.036      334.231        4.064      860.015
02/01/2014  15:11:00      155.272     -179.031      -21.364      133.853      129.444       61.628    17916.747    16755.860     3797.954        4.754        1.924      236.984       43.536        0.034      334.210        4.030      859.990
02/01/2014  15:12:00      100.195       11.275       97.002      123.873      181.406      123.480    15344.595    32907.993    15247.302        4.153        3.175      100.828      147.995        2.154      334.196        4.005      859.973
02/01/2014  15:13:00      158.082      -97.894       19.360       76.292      139.664       67.324     5820.456    19505.901     4532.503        3.240        1.493      185.939       83.238        0.200      334.354        4.268      859.988
02/01/2014  15:14:00       89.985      -86.541       14.971       94.868      133.186       65.689     9000.004    17738.492     4314.992        2.343        1.553      124.847       80.988        0.421      334.493        4.500      860.001
02/01/2014  15:15:00       54.540      -34.841       55.333       93.048      109.349       69.610     8657.875    11957.210     4845.514        1.635        1.273       64.718       77.426        1.431      334.564        4.619      860.017
02/01/2014  15:16:00       72.829     -174.802      -13.777      101.014       75.422       54.216    10203.878     5688.519     2939.420        2.744        0.942      189.367       48.792        0.066      334.349        4.260      860.001
02/01/2014  15:17:00      -15.333        2.693       34.651       35.370       71.347       42.508     1251.061     5090.450     1806.920        0.479        0.407       15.567       44.298        8.097      334.806        5.020      860.000
02/01/2014  15:18:00       28.137       22.670       55.385       62.196       62.855       50.043     3868.307     3950.731     2504.256        0.735        0.516       36.134       45.698        1.599      334.846        5.087      860.024
02/01/2014  15:19:00       89.804      -60.140       40.187       94.956      116.756       73.712     9016.694    13631.946     5433.425        2.068        1.404      108.082       81.045        0.562      334.527        4.558      860.039
02/01/2014  15:20:00      189.040     -305.336      -30.029      118.164      110.854       67.064    13962.693    12288.523     4497.591        8.030        1.537      359.119       75.651        0.044      334.150        3.929      860.039
02/01/2014  15:21:00      116.890      -35.557       81.948      101.494      180.112       73.211    10301.118    32440.486     5359.912        3.486        2.405      122.178      110.188        0.813      334.156        3.941      860.051
02/01/2014  15:22:00      190.184     -196.579      -27.131      115.114      147.716       69.309    13251.302    21820.064     4803.792        5.771        1.994      273.520       80.806        0.087      334.187        3.990      860.040
02/01/2014  15:23:00      157.019     -182.762       32.562      119.944      226.421      114.098    14386.496    51266.415    13018.248        6.888        3.934      240.950      150.461        0.390      334.248        4.092      860.019
02/01/2014  15:24:00      157.331      -83.872       44.927      125.873      126.434       77.104    15843.975    15985.620     5945.042        3.578        1.889      178.290       69.379        0.151      334.320        4.213      860.027
02/01/2014  15:25:00      127.583     -224.444        2.577       79.203       92.037       60.984     6273.058     8470.765     3719.018        4.256        0.923      258.171       47.991        0.035      334.310        4.193      860.027
02/01/2014  15:26:00       70.165       51.124       90.481       71.420       87.862       63.721     5100.861     7719.731     4060.369        1.630        0.844       86.814       66.012        0.578      334.406        4.357      860.040
02/01/2014  15:27:00      -11.665      -42.111       34.851       55.294      109.884       42.814     3057.410    12074.508     1833.008        1.004        0.848       43.697       56.563        1.676      334.649        4.760      860.049
02/01/2014  15:28:00       61.906     -168.114        5.416       69.045      100.722       58.097     4767.194    10144.939     3375.257        2.520        0.914      179.150       59.080        0.109      334.566        4.620      860.048
02/01/2014  15:29:00       40.897     -140.481       -9.176       97.498       86.062       64.462     9505.887     7406.604     4155.346        2.128        1.053      146.313       57.307        0.153      334.620        4.712      860.059
02/01/2014  15:30:00       80.504     -142.525       -5.713      101.217      105.733       54.464    10244.871    11179.384     2966.369        2.560        1.220      163.690       58.734        0.129      334.664        4.783      860.068
02/01/2014  15:31:00      123.361     -102.529       38.131      104.303      174.935       75.088    10879.016    30602.182     5638.150        3.714        2.356      160.407       94.591        0.348      334.366        4.290      860.055
02/01/2014  15:32:00      166.983      -37.074       71.126      136.841      164.513       86.261    18725.431    27064.575     7440.900        4.376        2.662      171.050      115.474        0.456      334.198        4.008      860.053
02/01/2014  15:33:00      123.737       35.917       85.733      111.790      100.138       70.850    12496.979    10027.659     5019.758        2.574        1.377      128.844       75.962        0.348      334.234        4.070      860.051
02/01/2014  15:34:00      144.466      -62.322       50.021      102.174       86.401       69.754    10439.522     7465.162     4865.655        2.501        1.139      157.335       63.155        0.161      334.250        4.097      860.026
02/01/2014  15:35:00       22.180       79.416      108.886       56.782       83.259       60.121     3224.180     6932.096     3614.510        1.621        0.689       82.455       60.463        0.538      334.534        4.568      860.019
02/01/2014  15:36:00      112.412       67.705       91.310      101.313       85.048       64.150    10264.323     7233.102     4115.279        2.358        1.081      131.227       59.864        0.208      334.401        4.347      860.011
02/01/2014  15:37:00       90.369       21.127       69.668       93.043      147.477       69.032     8657.040    21749.373     4765.389        2.431        1.759       92.805       86.254        0.864      334.370        4.297      860.006
02/01/2014  15:38:00      172.686     -199.991      -10.107      117.270      154.213       83.104    13752.201    23781.541     6906.214        5.717        2.222      264.229       97.840        0.137      334.279        4.143      859.998
02/01/2014  15:39:00      139.767       39.959      101.388      100.026       96.594       86.127    10005.292     9330.417     7417.818        2.908        1.338      145.366       90.685        0.389      334.156        3.939      860.022
02/01/2014  15:40:00       63.607      -77.318       16.197       55.565       62.108       39.541     3087.429     3857.370     1563.481        0.940        0.425      100.120       37.807        0.143      334.424        4.387      860.021
02/01/2014  15:41:00      111.432      -76.631        5.575       81.278       75.406       60.192     6606.084     5686.096     3623.029        1.712        0.796      135.238       53.423        0.156      334.584        4.650      860.015
02/01/2014  15:42:00       93.236     -121.249       14.172      110.072      148.463       80.948    12115.738    22041.340     6552.586        3.215        2.035      152.952      109.617        0.514      334.459        4.444      860.018
02/01/2014  15:43:00      153.444     -194.956      -34.186       98.706       93.265       40.221     9742.826     8698.271     1617.755        4.139        1.003      248.099       40.410        0.027      334.203        4.016      860.014
02/01/2014  15:44:00       78.463     -109.673        5.399       65.399       71.770       45.989     4276.977     5150.946     2114.948        1.488        0.577      134.850       38.603        0.082      334.446        4.422      860.018
02/01/2014  15:45:00       81.704      -86.940       22.239       62.148       76.347       55.856     3862.316     5828.893     3119.840        1.377        0.641      119.306       49.327        0.171      334.459        4.445      860.023
02/01/2014  15:46:00      -10.559       44.016       99.515       34.598       51.111       34.423     1197.030     2612.353     1184.950        0.847        0.250       45.265       32.797        0.525      334.486        4.490      860.012
02/01/2014  15:47:00       28.437      -32.772       22.625       46.508       55.595       39.998     2162.973     3090.765     1599.817        0.462        0.343       43.390       36.728        0.716      334.620        4.713      859.998
02/01/2014  15:48:00      104.819      -44.520       66.896      108.419      180.196       98.798    11754.683    32470.730     9761.049        3.571        2.699      113.882      123.834        1.182      334.394        4.335      859.984
02/01/2014  15:49:00      219.616     -230.690      -11.518      133.349      180.695       83.462    17781.943    32650.557     6965.850        7.948        2.870      318.511      117.076        0.135      334.199        4.011      859.962
02/01/2014  15:50:00       46.115      -31.609       69.774       90.783      152.975       95.984     8241.612    23401.286     9212.933        2.442        2.043       55.908      108.333        3.755      334.329        4.229      859.958
02/01/2014  15:51:00      184.869     -225.752      -25.877      103.529      151.251       85.054    10718.261    22876.758     7234.238        6.331        2.041      291.788      105.381        0.130      334.168        3.959      859.957
02/01/2014  15:52:00      231.787     -231.982      -42.498       77.247       76.599       48.037     5967.056     5867.418     2307.601        6.174        0.707      327.934       28.239        0.007      334.226        4.056      859.948
02/01/2014  15:53:00      227.614     -192.297       -9.786      102.623      131.998       75.613    10531.473    17423.530     5717.309        6.127        1.684      297.970       89.659        0.091      334.227        4.056      859.943
02/01/2014  15:54:00      130.208     -120.095       30.163      139.342      161.438      103.034    19416.174    26062.378    10615.907        4.418        2.805      177.135      118.730        0.449      334.347        4.257      859.922
02/01/2014  15:55:00      110.808     -154.246        8.585       80.297      123.761       64.161     6447.655    15316.805     4116.592        3.101        1.294      189.921       63.387        0.111      334.500        4.512      859.943
02/01/2014  15:56:00      138.693      -98.219       32.161      129.891      133.188       94.230    16871.677    17738.951     8879.286        3.670        2.174      169.949      109.324        0.414      334.324        4.220      859.938
02/01/2014  15:57:00      116.838       83.341      111.482      108.791       99.957       77.944    11835.394     9991.478     6075.298        3.046        1.395      143.516       76.279        0.282      334.215        4.038      859.953
02/01/2014  15:58:00       83.601      -30.998       11.881       87.950      128.185       42.702     7735.287    16431.467     1823.478        1.704        1.300       89.163       49.704        0.311      334.353        4.266      859.933
02/01/2014  15:59:00       75.092      -20.714       51.599       72.408       89.793       64.536     5242.983     8062.826     4164.907        1.310        0.874       77.897       50.803        0.425      334.406        4.357      859.927
02/01/2014  16:00:00      138.201       -2.479       35.064      101.819       82.773       52.146    10367.128     6851.389     2719.218        2.013        0.997      138.224       56.836        0.169      334.256        4.106      859.937
02/01/2014  16:01:00       65.607       14.280       70.574       77.439       85.939       54.366     5996.820     7385.582     2955.667        1.291        0.817       67.143       56.546        0.709      334.349        4.261      859.935
02/01/2014  16:02:00      143.199     -186.390      -22.269       85.927       77.910       39.072     7383.368     6069.951     1526.626        3.536        0.749      235.047       49.062        0.044      334.259        4.111      859.911
02/01/2014  16:03:00       81.788      -69.818       25.845       75.157      120.222       75.196     5648.502    14453.288     5654.426        1.899        1.288      107.535       86.552        0.648      334.434        4.404      859.916
02/01/2014  16:04:00      141.331     -155.818       16.210       93.202      155.413       77.930     8686.604    24153.198     6073.142        4.171        1.946      210.365      104.339        0.246      334.306        4.189      859.922
02/01/2014  16:05:00      171.109     -175.828      -49.967       66.188       92.316       42.337     4380.808     8522.169     1792.449        3.869        0.735      245.344       48.365        0.039      334.140        3.913      859.909
02/01/2014  16:06:00       47.520       52.625       78.924       64.614       61.143       52.722     4174.919     3738.417     2779.648        1.097        0.535       70.905       53.589        0.571      334.257        4.111      859.932
02/01/2014  16:07:00       23.595       40.923       71.746       36.270       72.009       33.674     1315.506     5185.329     1133.961        0.751        0.382       47.238       44.174        0.874      334.295        4.173      859.921
02/01/2014  16:08:00       87.027      -34.530       22.355       53.249       83.306       45.248     2835.456     6939.915     2047.390        1.054        0.591       93.627       51.984        0.308      334.278        4.144      859.908
02/01/2014  16:09:00      109.306      -41.008       44.486       75.794      117.151       79.370     5744.695    13724.289     6299.606        2.068        1.288      116.745       86.067        0.543      334.320        4.212      859.892
02/01/2014  16:10:00      101.083       33.761       85.340      105.963      107.740       73.461    11228.132    11607.884     5396.556        2.343        1.412      106.572       85.155        0.638      334.287        4.157      859.904
02/01/2014  16:11:00       82.197       60.891      105.220       72.840       96.474       72.004     5305.706     9307.266     5184.509        2.066        0.990      102.294       71.593        0.490      334.324        4.219      859.900
02/01/2014  16:12:00      114.968      131.658      106.493      110.163       73.670       88.508    12135.976     5427.202     7833.616        3.364        1.270      174.790       74.168        0.180      334.197        4.007      859.884
02/01/2014  16:13:00       26.654       10.894       64.670       62.916       64.107       38.076     3958.408     4109.675     1449.789        0.726        0.476       28.794       41.605        2.088      334.407        4.361      859.893
02/01/2014  16:14:00      106.014     -201.649      -22.486       93.964      113.960       60.643     8829.223    12986.868     3677.577        3.895        1.275      227.818       64.554        0.080      334.356        4.272      859.906
02/01/2014  16:15:00      101.135     -153.840       -4.247       77.618      114.805       69.293     6024.602    13180.145     4801.573        2.896        1.200      184.106       73.164        0.158      334.312        4.198      859.883
02/01/2014  16:16:00       64.952       30.050       86.998       81.231      120.533       76.403     6598.524    14528.121     5837.458        1.982        1.348       71.566       81.612        1.300      334.319        4.212      859.887
02/01/2014  16:17:00       40.525       37.073       92.132       65.992       94.769       48.763     4354.897     8981.149     2377.823        1.361        0.786       54.924       58.997        1.154      334.357        4.275      859.872
02/01/2014  16:18:00       98.789      107.144      115.757       83.733       70.750       71.032     7011.216     5005.530     5045.588        2.585        0.853      145.737       54.006        0.137      334.186        3.990      859.862
02/01/2014  16:19:00       65.946      144.820      150.334       78.627       78.475       55.003     6182.204     6158.281     3025.326        3.164        0.768      159.128       53.124        0.111      334.092        3.832      859.852
02/01/2014  16:20:00      159.466      102.092       72.503      116.745       70.711       83.413    13629.287     5000.071     6957.753        3.334        1.279      189.347       74.932        0.157      334.111        3.866      859.842
02/01/2014  16:21:00       28.435       61.287       76.865       48.761       44.185       27.647     2377.607     1952.332      764.370        0.778        0.255       67.562       26.102        0.149      334.301        4.182      859.850
02/01/2014  16:22:00       28.774       45.064       67.825       37.790       49.923       33.000     1428.073     2492.268     1088.986        0.623        0.250       53.467       27.624        0.267      334.335        4.241      859.861
02/01/2014  16:23:00       -5.691       48.851       83.337       25.426       60.217       38.550      646.501     3626.034     1486.107        0.756        0.288       49.181       43.984        0.800      334.474        4.472      859.866
02/01/2014  16:24:00       73.590      -88.801       -1.145      114.060      113.638       39.426    13009.728    12913.659     1554.434        2.039        1.374      115.331       65.176        0.319      334.518        4.542      859.870
02/01/2014  16:25:00       38.943      -37.409       50.422       86.213      157.734       84.656     7432.642    24880.031     7166.695        2.246        1.974       54.000      109.766        4.132      334.339        4.244      859.862
02/01/2014  16:26:00      253.313     -271.169      -55.983       57.998       74.062       39.664     3363.754     5485.163     1573.203        7.563        0.521      371.080       27.153        0.005      334.065        3.788      859.851
02/01/2014  16:27:00      105.555      -67.826       45.019       88.782      120.767       77.811     7882.182    14584.625     6054.517        2.314        1.426      125.467       79.652        0.403      334.257        4.108      859.848
02/01/2014  16:28:00      159.955     -186.181       -4.315       92.188      134.332       73.441     8498.617    18045.145     5393.624        4.610        1.597      245.456       91.308        0.138      334.143        3.919      859.848
02/01/2014  16:29:00      126.887     -156.667       31.334       87.714      155.278       81.385     7693.742    24111.310     6623.551        4.002        1.921      201.606      102.937        0.261      334.167        3.957      859.844
02/01/2014  16:30:00       45.007       59.310      117.984       70.532       91.668       57.577     4974.713     8403.099     3315.079        1.808        0.835       74.453       64.128        0.742      334.241        4.082      859.842
02/01/2014  16:31:00      106.170      -11.645       46.333       84.499       74.333       61.999     7140.073     5525.463     3843.885        1.503        0.825      106.806       62.908        0.347      334.164        3.955      859.845
02/01/2014  16:32:00       79.283       48.979       35.066       74.699       47.708       43.652     5579.955     2276.046     1905.457        0.984        0.488       93.192       39.549        0.180      334.152        3.935      859.837
02/01/2014  16:33:00       -5.840       -2.580       36.155       43.676       51.431       36.721     1907.583     2645.174     1348.423        0.362        0.295        6.384       35.155       30.320      334.572        4.633      859.833
02/01/2014  16:34:00       71.737     -113.862        1.224       74.302      109.282       51.894     5520.789    11942.627     2692.967        1.913        1.008      134.576       67.153        0.249      334.322        4.218      859.839
02/01/2014  16:35:00       46.450      -23.841       56.333       80.736      125.117       57.780     6518.325    15654.203     3338.538        1.570        1.276       52.211       68.709        1.732      334.302        4.184      859.828
02/01/2014  16:36:00       -0.051       18.363       62.221       35.897       83.883       53.773     1288.629     7036.296     2891.530        0.771        0.561       18.363       58.817       10.260      334.313        4.203      859.829
02/01/2014  16:37:00       64.212      -87.166       -0.348       60.508       82.980       47.384     3661.217     6885.730     2245.288        1.225        0.640      108.264       54.398        0.252      334.284        4.155      859.837
02/01/2014  16:38:00       -0.151      -13.887       54.271       38.245       76.277       42.922     1462.654     5818.115     1842.307        0.613        0.456       13.888       49.742       12.828      334.247        4.094      859.824
02/01/2014  16:39:00       14.317       22.040       48.291       48.114       52.571       39.028     2314.983     2763.755     1523.197        0.481        0.330       26.282       39.057        2.208      334.237        4.078      859.821
02/01/2014  16:40:00       66.737       41.705       83.810       88.764      117.076       76.328     7879.073    13706.797     5825.953        2.031        1.371       78.696       83.541        1.127      334.198        4.010      859.811
02/01/2014  16:41:00       83.077     -121.236       -2.943       79.104       70.050       62.791     6257.368     4907.047     3942.719        1.836        0.755      146.969       56.606        0.148      334.184        3.988      859.821
02/01/2014  16:42:00      103.343     -125.932        6.346       59.002      111.257       46.839     3481.294    12378.171     2193.935        2.231        0.903      162.907       55.443        0.116      334.199        4.011      859.826
02/01/2014  16:43:00      107.429     -168.659      -13.481      110.112      138.993       97.052    12124.686    19319.035     9419.082        4.051        2.043      199.967      106.857        0.286      334.190        3.997      859.829
02/01/2014  16:44:00       71.970      -69.112       39.385       81.522      132.797       81.230     6645.878    17634.979     6598.274        2.119        1.544       99.781       93.191        0.872      334.182        3.983      859.853
02/01/2014  16:45:00       98.561     -125.906        0.083       71.995      105.194       60.611     5183.350    11065.692     3673.641        2.274        0.996      159.896       59.950        0.141      334.079        3.813      859.881
02/01/2014  16:46:00       15.679       26.560       69.175       48.677       75.564       54.559     2369.437     5709.904     2976.680        0.839        0.553       30.843       28.726        0.867      334.116        3.875      859.874
02/01/2014  16:47:00       41.424      -74.492       27.804       55.811      103.531       63.298     3114.876    10718.576     4006.642        1.294        0.892       85.235       69.598        0.667      334.230        4.064      859.887
02/01/2014  16:48:00      150.407     -221.036      -28.708       70.448       83.146       44.608     4962.973     6913.245     1989.847        4.308        0.693      267.356       39.925        0.022      334.085        3.822      859.889
02/01/2014  16:49:00      129.960     -128.986       13.645       88.376      105.252       57.657     7810.384    11077.968     3324.374        2.796        1.111      183.104       72.747        0.158      334.070        3.797      859.883
02/01/2014  16:50:00       83.238      -87.249       25.681       72.432       89.017       51.571     5246.328     7924.107     2659.558        1.551        0.791      120.585       56.950        0.223      334.150        3.932      859.896
02/01/2014  16:51:00      155.362     -134.348        7.772       71.066      144.332       66.741     5050.357    20831.697     4454.391        3.629        1.517      205.394       87.353        0.181      334.114        3.869      859.887
02/01/2014  16:52:00      123.105      -87.384        1.649       73.894       77.758       62.085     5460.288     6046.296     3854.494        1.907        0.768      150.966       60.567        0.161      334.088        3.827      859.905
02/01/2014  16:53:00      142.799     -201.992      -21.159       92.814       97.354       46.720     8614.438     9477.842     2182.781        4.095        1.014      247.371       58.679        0.056      334.059        3.779      859.908
02/01/2014  16:54:00       85.653     -104.441        3.280       67.735       93.611       41.418     4588.078     8762.966     1715.427        1.666        0.753      135.072       58.050        0.185      334.100        3.849      859.922
02/01/2014  16:55:00       33.644      -25.160       21.061       45.396       38.210       34.610     2060.755     1460.030     1197.857        0.346        0.236       42.012       32.435        0.596      334.182        3.986      859.934
02/01/2014  16:56:00       94.636     -117.324       -7.775       67.857       83.334       38.290     4604.532     6944.597     1466.117        1.790        0.651      150.734       52.350        0.121      334.114        3.872      859.949
02/01/2014  16:57:00       44.504       -5.216       54.198       65.870       72.777       43.525     4338.813     5296.432     1894.428        0.824        0.576       44.808       47.680        1.132      334.109        3.865      859.957
02/01/2014  16:58:00      117.870     -116.438       -5.448       53.888       56.832       38.889     2903.970     3229.878     1512.321        1.756        0.382      165.684       38.449        0.054      334.099        3.847      859.951
02/01/2014  16:59:00       72.921      -52.178       28.189       68.409      114.954       68.257     4679.773    13214.316     4658.988        1.569        1.128       89.667       76.839        0.734      334.074        3.807      859.944
02/01/2014  17:00:00      109.631     -138.513      -19.337       74.137       82.306       51.010     5496.246     6774.239     2601.972        2.322        0.744      176.649       47.665        0.073      334.105        3.855      859.931
02/01/2014  17:01:00       47.335      -25.477       41.574       44.914       54.282       34.965     2017.306     2946.542     1222.537        0.540        0.309       53.756       29.586        0.303      334.047        3.762      859.938
02/01/2014  17:02:00       90.059      -23.811       45.572       63.542       90.249       56.450     4037.579     8144.860     3186.645        1.306        0.768       93.154       64.433        0.478      334.013        3.704      859.935
02/01/2014  17:03:00       42.427       63.242      107.265       75.716      112.752       78.686     5732.847    12712.922     6191.522        2.097        1.232       76.155       91.724        1.451      333.933        3.571      859.941
02/01/2014  17:04:00       83.310      -66.348       14.979       67.587       92.737       53.649     4567.969     8600.149     2878.258        1.380        0.802      106.501       56.105        0.278      334.005        3.693      859.950
02/01/2014  17:05:00      -13.434       -0.439       49.617       42.017       90.214       56.931     1765.420     8138.528     3241.183        0.789        0.657       13.442       45.750       11.585      334.023        3.722      859.955
02/01/2014  17:06:00       25.731      -27.670       13.328       40.165       51.457       39.720     1613.209     2647.809     1577.648        0.372        0.292       37.785       33.196        0.772      334.063        3.788      859.972
02/01/2014  17:07:00       59.391      -67.448       -1.575       65.604       54.089       43.242     4303.899     2925.668     1869.830        0.859        0.455       89.869       30.551        0.116      334.127        3.896      859.980
02/01/2014  17:08:00       53.268      -68.742       18.984       53.104       96.840       58.005     2820.028     9378.025     3364.534        1.174        0.778       86.965       59.344        0.466      333.981        3.651      859.978
02/01/2014  17:09:00       67.476     -131.799       -4.912       71.494      105.743       57.049     5111.348    11181.526     3254.599        2.074        0.977      148.067       66.656        0.203      334.007        3.693      859.973
02/01/2014  17:10:00       91.658      -97.197        2.956       73.577       65.262       45.664     5413.517     4259.068     2085.157        1.481        0.588      133.597       32.443        0.059      333.965        3.626      859.976
02/01/2014  17:11:00       59.131      -72.850       22.734       65.096       71.327       47.952     4237.437     5087.486     2299.379        1.047        0.581       93.827       47.769        0.259      333.889        3.500      859.984
02/01/2014  17:12:00       20.444        1.902       46.102       51.498       44.188       43.970     2652.009     1952.558     1933.336        0.454        0.327       20.532       35.336        2.962      333.875        3.476      859.990
02/01/2014  17:13:00      -10.159       23.754       48.069       16.592       29.828       32.467      275.298      889.727     1054.105        0.260        0.111       25.835       21.145        0.670      333.917        3.546      860.001
02/01/2014  17:14:00       39.992      -39.999       21.442       60.065       73.395       44.076     3607.777     5386.893     1942.653        0.730        0.547       56.562       55.048        0.947      333.968        3.630      860.013
02/01/2014  17:15:00       53.452      -78.444       -6.715       42.700       63.730       34.727     1823.292     4061.535     1205.930        0.807        0.355       94.924       39.142        0.170      333.993        3.672      860.013
02/01/2014  17:16:00       21.652       44.268       59.761       46.634       57.877       40.364     2174.747     3349.794     1629.230        0.658        0.358       49.280       40.617        0.679      333.838        3.416      860.013
02/01/2014  17:17:00       47.204       30.323       71.239       51.026       57.273       27.992     2603.621     3280.164      783.528        0.744        0.333       56.105       31.672        0.319      333.845        3.427      860.014
02/01/2014  17:18:00       53.166      -73.715       21.625       48.031       60.266       33.471     2306.995     3632.014     1120.298        0.789        0.353       90.887       41.213        0.206      333.861        3.455      860.018
02/01/2014  17:19:00       21.317      -11.792       40.817       26.115       62.894       27.643      681.985     3955.608      764.119        0.383        0.270       24.361       29.288        1.445      333.853        3.440      860.024
02/01/2014  17:20:00       66.093       12.407       56.402       52.057       41.807       38.537     2709.955     1747.818     1485.112        0.682        0.297       67.247       34.623        0.265      333.791        3.338      860.013
02/01/2014  17:21:00       53.755      -26.782       27.005       43.844       64.419       37.404     1922.271     4149.795     1399.041        0.590        0.374       60.058       40.156        0.447      333.817        3.380      860.003
02/01/2014  17:22:00       51.536      -43.607       34.762       69.225       92.432       46.267     4792.047     8543.605     2140.666        1.062        0.774       67.509       62.073        0.845      333.825        3.393      859.991
02/01/2014  17:23:00      113.837     -113.904      -23.042       67.085       87.167       47.660     4500.361     7598.109     2271.468        2.041        0.718      161.038       55.201        0.118      333.812        3.370      859.985
02/01/2014  17:24:00      113.128     -109.193      -22.945       48.825       59.608       38.700     2383.836     3553.161     1497.686        1.634        0.372      157.230       36.373        0.054      333.758        3.281      859.979
02/01/2014  17:25:00       78.719      -71.486       -8.019       51.842       80.117       42.646     2687.565     6418.700     1818.684        1.115        0.546      106.334       52.664        0.245      333.773        3.306      859.977
02/01/2014  17:26:00       30.840      -45.941       23.618       56.798       56.438       39.546     3226.037     3185.274     1563.868        0.580        0.399       55.332       42.090        0.579      333.837        3.415      859.969
02/01/2014  17:27:00       64.735      -42.089       20.690       47.326       67.143       30.944     2239.766     4508.225      957.534        0.705        0.385       77.215       39.387        0.260      333.747        3.264      859.978
02/01/2014  17:28:00       56.345      -50.476       15.130       37.688       62.074       33.553     1420.419     3853.226     1125.808        0.617        0.320       75.648       36.373        0.231      333.771        3.303      859.981
02/01/2014  17:29:00       94.519      -70.351        2.315       44.795       58.942       31.716     2006.619     3474.148     1005.885        1.019        0.324      117.827       31.022        0.069      333.740        3.252      859.989
02/01/2014  17:30:00       75.897      -38.031       17.260       55.999       46.908       34.621     3135.863     2200.350     1198.606        0.702        0.327       84.893       35.769        0.178      333.690        3.170      859.988
02/01/2014  17:31:00       77.292      -49.229       28.210       34.437       49.842       35.562     1185.937     2484.264     1264.634        0.706        0.247       91.638       26.754        0.085      333.655        3.112      859.992
02/01/2014  17:32:00       68.071      -38.622       40.102       68.513       77.348       49.808     4693.970     5982.674     2480.821        1.044        0.658       78.264       50.882        0.423      333.722        3.223      859.996
02/01/2014  17:33:00       51.760        4.274       44.447       48.271       46.738       42.603     2330.075     2184.399     1815.013        0.550        0.316       51.936       38.032        0.536      333.717        3.214      859.998
02/01/2014  17:34:00       30.993        7.382       41.377       32.825       60.195       25.760     1077.460     3623.493      663.583        0.404        0.268       31.860       25.577        0.644      333.674        3.144      860.008
02/01/2014  17:35:00       16.827       33.986       47.250       35.660       28.757       19.765     1271.646      826.944      390.648        0.308        0.124       37.924       15.548        0.168      333.517        2.883      860.012
02/01/2014  17:36:00       21.725       18.703       48.688       24.117       19.758       16.139      581.651      390.371      260.458        0.221        0.062       28.667       10.482        0.134      333.453        2.776      860.029
02/01/2014  17:37:00       36.206       18.146       38.971       34.642       31.123       22.022     1200.072      968.657      484.959        0.291        0.133       40.499       20.137        0.247      333.532        2.910      860.044
02/01/2014  17:38:00       14.553       54.214       64.887       24.805       21.581       16.946      615.297      465.755      287.179        0.436        0.068       56.134       12.022        0.046      333.555        2.945      860.062
02/01/2014  17:39:00       67.989       41.722       42.918       43.985       25.830       31.173     1934.689      667.211      971.749        0.589        0.179       79.770       24.322        0.093      333.506        2.865      860.077
02/01/2014  17:40:00       71.073       49.423       51.060       38.426       32.505       28.253     1476.585     1056.602      798.224        0.672        0.167       86.568       16.194        0.035      333.465        2.795      860.082
02/01/2014  17:41:00      109.369       63.992       33.093       68.881       39.205       38.836     4744.555     1537.033     1508.260        1.247        0.389      126.715       30.050        0.056      333.452        2.775      860.083
02/01/2014  17:42:00       67.129       80.826       85.506       50.473       50.694       28.612     2547.565     2569.855      818.647        1.214        0.297      105.067       16.671        0.025      333.430        2.739      860.091
02/01/2014  17:43:00       20.182       57.691       98.398       49.448       54.630       41.669     2445.123     2984.458     1736.335        1.029        0.358       61.119       36.586        0.358      333.442        2.757      860.075
02/01/2014  17:44:00      100.911       -2.799       34.357       75.039       66.746       47.229     5630.860     4454.976     2230.540        1.184        0.616      100.950       52.420        0.270      333.448        2.769      860.075
02/01/2014  17:45:00       43.118       32.575       55.592       47.053       57.782       47.183     2214.024     3338.743     2226.265        0.689        0.389       54.039       45.636        0.713      333.408        2.704      860.058
02/01/2014  17:46:00       28.359       44.639       66.820       33.486       34.099       26.373     1121.283     1162.728      695.543        0.512        0.149       52.886       19.559        0.137      333.414        2.712      860.041
02/01/2014  17:47:00       21.799       58.412       77.847       41.778       43.093       28.381     1745.424     1856.965      805.496        0.718        0.220       62.347       22.015        0.125      333.358        2.621      860.040
02/01/2014  17:48:00       45.978       34.901       60.669       46.152       39.631       39.267     2130.010     1570.635     1541.890        0.613        0.262       57.724       29.768        0.266      333.371        2.641      860.048
02/01/2014  17:49:00       68.122       55.739       63.326       48.430       38.335       36.424     2345.489     1469.574     1326.728        0.845        0.257       88.020       30.784        0.122      333.383        2.661      860.053
02/01/2014  17:50:00       90.434       79.882       62.246       53.171       55.726       49.513     2827.203     3105.371     2451.575        1.341        0.419      120.662       43.029        0.127      333.379        2.654      860.064
02/01/2014  17:51:00      116.908       93.966       72.207       42.387       42.345       42.246     1796.664     1793.062     1784.694        1.654        0.269      149.990       22.696        0.023      333.323        2.564      860.067
02/01/2014  17:52:00       85.206       61.745       52.088       32.426       39.827       30.134     1051.443     1586.205      908.057        0.867        0.177      105.226       16.903        0.026      333.224        2.397      860.074
02/01/2014  17:53:00      114.886       63.489       59.029       58.063       40.364       38.317     3371.261     1629.261     1468.214        1.359        0.323      131.262       27.277        0.043      333.189        2.340      860.064
02/01/2014  17:54:00      140.585       66.050       66.035       65.515       58.816       50.302     4292.256     3459.280     2530.337        1.938        0.514      155.328       33.532        0.047      333.178        2.321      860.072
02/01/2014  17:55:00       56.481       22.974       50.072       69.052       40.114       40.321     4768.168     1609.172     1625.754        0.711        0.400       60.975       16.658        0.075      333.090        2.178      860.062
02/01/2014  17:56:00      108.001       64.662       66.829       77.811       58.163       49.591     6054.590     3382.922     2459.313        1.610        0.595      125.879       34.598        0.076      333.045        2.103      860.069
02/01/2014  17:57:00      142.846      139.221      107.433      104.099       72.589       72.752    10836.637     5269.152     5292.829        3.636        1.070      199.468       47.281        0.056      333.158        2.288      860.057
02/01/2014  17:58:00       70.603       80.962      101.892       85.953       88.131       63.493     7387.920     7767.114     4031.303        2.055        0.959      107.423       56.778        0.279      333.154        2.281      860.068
02/01/2014  17:59:00       79.961       87.152       92.837       81.888       62.775       66.329     6705.633     3940.641     4399.516        1.882        0.752      118.277       55.508        0.220      333.151        2.277      860.069
02/01/2014  18:00:00      104.057       53.217       44.256       86.756       75.314       59.192     7526.605     5672.238     3503.752        1.616        0.835      116.876       47.343        0.164      333.133        2.248      860.077
02/01/2014  18:01:00       21.071       -0.412       66.298       42.690       76.022       34.421     1822.427     5779.315     1184.812        0.681        0.439       21.075       41.604        3.897      333.129        2.242      860.070
02/01/2014  18:02:00      106.938       13.108       56.927      128.096       68.231       63.427    16408.462     4655.483     4023.005        1.996        1.254      107.738       65.316        0.368      333.145        2.266      860.073
02/01/2014  18:03:00       32.843       30.598       76.762       58.586       62.305       34.647     3432.270     3881.964     1200.397        0.821        0.426       44.888       34.268        0.583      333.127        2.238      860.066
02/01/2014  18:04:00       82.177       57.758       54.796       51.279       50.447       44.797     2629.537     2544.944     2006.800        1.014        0.359      100.445       30.578        0.093      333.105        2.203      860.072
02/01/2014  18:05:00      144.027       80.000       58.901      110.406       71.666       57.695    12189.399     5136.082     3328.734        2.563        1.033      164.754       57.585        0.122      333.109        2.208      860.055
02/01/2014  18:06:00       90.242       26.249       49.434       73.433       49.366       43.112     5392.350     2437.015     1858.624        1.048        0.484       93.982       26.169        0.078      332.972        1.982      860.052
02/01/2014  18:07:00       98.847       38.247       35.011       49.647       38.834       42.411     2464.866     1508.050     1798.711        0.911        0.289      105.989       28.769        0.074      332.984        2.002      860.064
02/01/2014  18:08:00      118.753       64.891       33.023       53.987       38.190       34.866     2914.643     1458.446     1215.639        1.250        0.279      135.326       23.596        0.030      332.957        1.956      860.077
02/01/2014  18:09:00      130.590       54.371       19.590       52.247       29.605       29.651     2729.764      876.485      879.189        1.244        0.224      141.457       26.979        0.036      332.889        1.845      860.091
02/01/2014  18:10:00      103.085       71.634       52.091       42.994       33.096       38.365     1848.477     1095.322     1471.851        1.144        0.221      125.531       23.220        0.034      332.832        1.752      860.122
02/01/2014  18:11:00       95.247       68.456       75.366       75.417       55.530       47.389     5687.682     3083.527     2245.734        1.523        0.551      117.295       48.264        0.169      332.862        1.801      860.143
02/01/2014  18:12:00       78.704       39.591       37.571       59.900       51.473       37.039     3588.000     2649.460     1371.892        0.839        0.380       88.101       28.405        0.104      332.861        1.801      860.153
02/01/2014  18:13:00      101.204       60.171       39.459       57.570       45.973       51.793     3314.295     2113.545     2682.465        1.176        0.406      117.740       32.374        0.076      332.856        1.792      860.162
02/01/2014  18:14:00       91.431       19.957       23.333       37.542       47.637       26.410     1409.399     2269.279      697.465        0.684        0.219       93.584       17.427        0.035      332.865        1.807      860.168
02/01/2014  18:15:00      116.178       57.838       72.990       64.141       56.899       45.381     4114.057     3237.444     2059.464        1.579        0.471      129.779       43.406        0.112      332.851        1.783      860.162
02/01/2014  18:16:00       87.829       35.122       49.023       56.701       56.483       45.448     3214.982     3190.294     2065.494        0.991        0.424       94.591       35.575        0.141      332.863        1.802      860.155
02/01/2014  18:17:00      124.370       67.734       29.717       53.230       43.193       41.706     2833.421     1865.616     1739.410        1.369        0.322      141.618       34.695        0.060      332.816        1.726      860.156
02/01/2014  18:18:00       75.283       27.592       40.486       40.460       36.685       30.202     1637.033     1345.817      912.178        0.598        0.195       80.180       20.748        0.067      332.816        1.725      860.159
02/01/2014  18:19:00       91.891       60.640       46.741       52.300       63.083       50.214     2735.241     3979.418     2521.416        1.177        0.462      110.096       42.825        0.151      332.819        1.729      860.159
02/01/2014  18:20:00      105.108       71.993       58.000       60.268       34.848       39.946     3632.243     1214.357     1595.665        1.302        0.322      127.400       33.023        0.067      332.878        1.828      860.148
02/01/2014  18:21:00       89.521       80.465       65.162       48.654       35.341       38.636     2367.166     1248.963     1492.710        1.192        0.255      120.369       35.117        0.085      332.800        1.698      860.144
02/01/2014  18:22:00      124.639       90.316       43.475       46.677       33.664       47.956     2178.722     1133.281     2299.817        1.560        0.281      153.922       33.595        0.048      332.808        1.711      860.152
02/01/2014  18:23:00      113.297       68.217       31.240       49.836       41.892       39.011     2483.611     1754.978     1521.871        1.211        0.288      132.249       24.391        0.034      332.751        1.617      860.141
02/01/2014  18:24:00       83.171       47.273       30.726       48.377       42.571       31.859     2340.308     1812.323     1014.987        0.763        0.258       95.667       28.994        0.092      332.742        1.603      860.138
02/01/2014  18:25:00      117.917       68.150       27.752       34.215       25.446       28.632     1170.677      647.508      819.769        1.098        0.132      136.194       19.824        0.021      332.691        1.518      860.141
02/01/2014  18:26:00      123.779       72.083       63.744       58.605       52.399       51.203     3434.563     2745.634     2621.738        1.669        0.440      143.238       38.825        0.073      332.723        1.570      860.131
02/01/2014  18:27:00      119.492       26.676       32.432       84.246       43.020       39.817     7097.372     1850.719     1585.397        1.329        0.527      122.433       38.190        0.097      332.697        1.528      860.139
02/01/2014  18:28:00      149.347       50.559       22.687       83.173       52.777       40.089     6917.748     2785.458     1607.093        1.834        0.566      157.673       39.693        0.063      332.676        1.492      860.144
02/01/2014  18:29:00      110.984       22.520       29.101       84.108       52.415       40.679     7074.093     2747.378     1654.745        1.257        0.574      113.246       28.034        0.061      332.701        1.535      860.147
02/01/2014  18:30:00      146.922       57.546       30.493       67.061       43.482       36.036     4497.203     1890.704     1298.615        1.676        0.384      157.790       37.837        0.057      332.686        1.508      860.162
02/01/2014  18:31:00       94.454       51.837       22.402       44.239       38.598       28.612     1957.106     1489.792      818.671        0.819        0.213      107.743       21.003        0.038      332.649        1.448      860.165
02/01/2014  18:32:00      151.473       75.162       15.296       43.651       40.653       30.025     1905.394     1652.640      901.528        1.664        0.223      169.096       14.719        0.008      332.652        1.453      860.179
02/01/2014  18:33:00       98.798       54.466       18.721       57.419       41.406       32.348     3296.914     1714.457     1046.415        0.957        0.303      112.816       19.347        0.029      332.606        1.376      860.197
02/01/2014  18:34:00      135.428       55.828       18.941       46.411       38.806       27.597     2153.974     1505.882      761.615        1.312        0.221      146.484       23.676        0.026      332.618        1.398      860.203
02/01/2014  18:35:00      107.861       58.219       28.755       25.666       23.190       21.456      658.757      537.780      460.347        0.875        0.083      122.570       15.468        0.016      332.542        1.270      860.203
02/01/2014  18:36:00      128.677       68.346       18.035       28.135       29.655       21.584      791.561      879.391      465.868        1.185        0.107      145.702        7.460        0.003      332.531        1.254      860.201
02/01/2014  18:37:00      104.020       22.137       10.341       69.749       42.235       31.131     4864.876     1783.817      969.166        0.952        0.381      106.350       21.152        0.040      332.553        1.290      860.193
02/01/2014  18:38:00       91.763       35.604       14.799       47.726       32.686       25.567     2277.810     1068.382      653.694        0.695        0.200       98.428       24.085        0.060      332.491        1.188      860.188
02/01/2014  18:39:00      114.976       59.487       20.772       59.695       45.002       39.533     3563.450     2025.221     1562.836        1.217        0.358      129.453       32.623        0.064      332.532        1.254      860.185
02/01/2014  18:40:00      137.472       65.541       13.703       39.550       42.240       30.753     1564.241     1784.248      945.740        1.384        0.215      152.296       16.310        0.011      332.515        1.226      860.172
02/01/2014  18:41:00      104.223       74.652       15.340       35.884       30.841       30.652     1287.669      951.164      939.563        0.992        0.159      128.200       19.227        0.022      332.436        1.096      860.159
02/01/2014  18:42:00      129.479       68.076       18.067       41.148       48.298       31.773     1693.128     2332.744     1009.547        1.338        0.252      146.285       20.127        0.019      332.479        1.167      860.163
02/01/2014  18:43:00      101.992       75.307       37.186       42.603       34.352       34.027     1815.036     1180.053     1157.807        1.080        0.208      126.782       26.614        0.044      332.412        1.058      860.151
02/01/2014  18:44:00      136.169       77.000       23.110       37.439       34.734       30.042     1401.669     1206.450      902.533        1.426        0.176      156.432       16.203        0.011      332.474        1.159      860.145
02/01/2014  18:45:00       99.424       76.812       23.541       39.124       30.297       28.511     1530.718      917.891      812.903        0.980        0.163      125.639       17.749        0.020      332.431        1.089      860.159
02/01/2014  18:46:00       80.326       57.322       20.332       31.610       27.174       25.968      999.215      738.402      674.339        0.628        0.121       98.682       16.597        0.028      332.381        1.006      860.169
02/01/2014  18:47:00       75.529       49.030       23.581       22.810       21.713       26.184      520.302      471.472      685.617        0.517        0.084       90.047       12.746        0.020      332.355        0.964      860.174
02/01/2014  18:48:00      107.571       43.132        4.903       36.296       40.125       28.740     1317.402     1609.994      825.980        0.860        0.188      115.896       19.449        0.028      332.424        1.079      860.164
02/01/2014  18:49:00      109.573       35.793       25.570       45.117       29.476       28.989     2035.535      868.811      840.353        0.884        0.187      115.271       27.232        0.056      332.435        1.095      860.153
02/01/2014  18:50:00      132.834       76.263       19.882       30.385       34.124       30.488      923.223     1164.455      929.525        1.344        0.151      153.169       16.006        0.011      332.442        1.108      860.150
02/01/2014  18:51:00       82.963       31.144       11.066       60.666       45.595       32.843     3680.312     2078.936     1078.634        0.741        0.342       88.615       30.908        0.122      332.387        1.016      860.131
02/01/2014  18:52:00      103.810       75.458       22.303       54.567       41.713       37.872     2977.507     1739.990     1434.296        1.156        0.308      128.337       35.347        0.076      332.386        1.014      860.114
02/01/2014  18:53:00      132.473       57.773        7.204       39.417       47.114       33.003     1553.698     2219.732     1089.190        1.290        0.243      144.522       22.720        0.025      332.356        0.965      860.098
02/01/2014  18:54:00       87.719       33.509       19.370       61.788       38.520       28.580     3817.761     1483.823      816.826        0.765        0.306       93.901       24.071        0.066      332.323        0.911      860.091
02/01/2014  18:55:00       91.802       71.262       49.795       59.933       45.192       38.414     3591.947     2042.320     1475.634        1.155        0.355      116.215       37.298        0.103      332.292        0.860      860.072
02/01/2014  18:56:00      104.406       43.713       19.433       50.496       32.053       30.813     2549.818     1027.364      949.420        0.886        0.226      113.187       22.475        0.039      332.282        0.844      860.060
02/01/2014  18:57:00      104.467       68.056       34.829       50.466       52.385       47.777     2546.772     2744.177     2282.648        1.216        0.379      124.680       41.496        0.111      332.261        0.809      860.060
02/01/2014  18:58:00      153.717       84.042       35.165       57.980       49.039       42.129     3361.652     2404.855     1774.842        1.973        0.377      175.191       27.650        0.025      332.303        0.876      860.058
02/01/2014  18:59:00      126.618       77.776       17.317       51.272       33.654       32.877     2628.769     1132.567     1080.921        1.361        0.242      148.598       17.229        0.013      332.274        0.831      860.050
02/01/2014  19:00:00       90.989       72.593       29.178       61.103       52.192       37.734     3733.603     2724.039     1423.872        1.114        0.394      116.399       30.428        0.068      332.273        0.828      860.040
02/01/2014  19:01:00      106.913       63.671       37.843       36.183       31.287       36.448     1309.233      978.878     1328.430        1.027        0.181      124.437       18.069        0.021      332.261        0.809      860.039
02/01/2014  19:02:00       50.847       35.947        6.920       47.160       31.074       29.453     2224.057      965.606      867.495        0.399        0.203       62.271       14.018        0.051      332.241        0.776      860.039
02/01/2014  19:03:00      119.700       52.894       17.117       35.164       32.403       28.326     1236.519     1049.954      802.335        1.025        0.154      130.866       16.808        0.016      332.230        0.758      860.025
02/01/2014  19:04:00       85.574       32.977        7.744       60.963       51.012       30.845     3716.470     2602.222      951.424        0.787        0.364       91.708       21.739        0.056      332.244        0.781      860.006
02/01/2014  19:05:00       67.861       36.586       15.886       39.935       31.208       27.263     1594.781      973.927      743.297        0.475        0.166       77.095       21.560        0.078      332.197        0.703      860.014
02/01/2014  19:06:00       66.015       38.972       13.646       28.702       23.122       21.851      823.795      534.619      477.462        0.395        0.092       76.661       13.607        0.032      332.236        0.768      860.027
02/01/2014  19:07:00       83.708       57.088       13.161       59.740       37.017       25.934     3568.845     1370.266      672.592        0.802        0.281      101.322       29.024        0.082      332.242        0.776      860.037
02/01/2014  19:08:00       51.982       41.694        2.997       19.461       18.219       19.924      378.747      331.934      396.951        0.278        0.055       66.637       10.873        0.027      332.234        0.765      860.040
02/01/2014  19:09:00       60.646       23.980        5.706       29.223       22.081       17.506      853.965      487.590      306.475        0.297        0.082       65.215       13.908        0.045      332.176        0.669      860.052
02/01/2014  19:10:00       32.245       25.560        1.108       25.923       23.158       15.482      672.019      536.299      239.702        0.157        0.072       41.147       12.265        0.089      332.180        0.675      860.068
02/01/2014  19:11:00       42.853       36.138       10.059       23.609       17.615       22.388      557.365      310.301      501.202        0.231        0.068       56.056       14.354        0.066      332.137        0.605      860.070
02/01/2014  19:12:00       60.187       30.819       -1.531       21.591       20.436       20.578      466.157      417.626      423.471        0.294        0.065       67.618       11.259        0.028      332.188        0.688      860.066
02/01/2014  19:13:00       38.407       38.828       -0.331       22.199       19.180       18.458      492.785      367.876      340.699        0.209        0.060       54.614       10.824        0.039      332.155        0.635      860.063
02/01/2014  19:14:00       36.950       35.269       -3.967       19.871       25.650       15.306      394.843      657.913      234.286        0.196        0.064       51.080       12.804        0.063      332.123        0.582      860.056
02/01/2014  19:15:00       24.842       42.171       -1.717       16.769       15.780       15.229      281.198      249.004      231.920        0.158        0.038       48.944       12.277        0.063      332.048        0.457      860.040
02/01/2014  19:16:00       38.240       63.382       -1.474       22.389       34.258       26.244      501.256     1173.615      688.760        0.392        0.118       74.024       25.600        0.120      332.043        0.450      860.044
02/01/2014  19:17:00       23.248       65.557       -8.200       18.572       37.575       17.724      344.902     1411.907      314.157        0.349        0.104       69.557       16.405        0.056      332.008        0.393      860.048
02/01/2014  19:18:00       21.921       39.908       -5.221       21.466       23.878       12.957      460.797      570.163      167.882        0.165        0.060       45.532        7.577        0.028      332.016        0.405      860.062
02/01/2014  19:19:00       28.539       42.260       -3.084       19.999       21.625       16.686      399.977      467.660      278.430        0.188        0.057       50.994       12.341        0.059      332.030        0.427      860.088
02/01/2014  19:20:00       27.825       53.151       -3.689       15.279       20.290       12.064      233.451      411.673      145.548        0.220        0.040       59.994       12.073        0.040      332.057        0.472      860.098
02/01/2014  19:21:00       19.261       58.988       -9.335       12.902       14.080        7.807      166.461      198.232       60.945        0.218        0.021       62.053        6.825        0.012      332.061        0.480      860.110
02/01/2014  19:22:00       29.393       52.696        4.302       19.776       23.871       21.442      391.097      569.805      459.738        0.254        0.071       60.340       19.420        0.104      332.040        0.444      860.119
02/01/2014  19:23:00       20.671       69.407      -10.207       15.316       12.533        9.824      234.573      157.088       96.519        0.292        0.024       72.420        6.659        0.008      332.062        0.480      860.125
02/01/2014  19:24:00       27.316       53.421       -5.973       16.242       28.640       16.683      263.803      820.241      278.314        0.250        0.068       60.000       18.026        0.090      332.033        0.432      860.133
02/01/2014  19:25:00       10.740       50.683       -7.737       12.111       12.421       10.533      146.683      154.281      110.955        0.158        0.021       51.808        6.833        0.017      332.046        0.454      860.146
02/01/2014  19:26:00       39.502       38.047       -3.683       19.103       19.255       17.900      364.912      370.767      320.424        0.204        0.053       54.845       14.871        0.074      332.032        0.433      860.149
02/01/2014  19:27:00        5.214       58.416       -7.828       15.688       14.836        8.802      246.104      220.122       77.482        0.202        0.027       58.648        7.091        0.015      332.048        0.460      860.155
02/01/2014  19:28:00       12.053       85.043      -11.419       11.203       15.060        7.798      125.517      226.815       60.812        0.396        0.021       85.893        5.569        0.004      332.051        0.463      860.155
02/01/2014  19:29:00       19.152       81.199      -14.461       16.236       14.241        7.752      263.612      202.814       60.087        0.385        0.026       83.427        5.654        0.005      332.034        0.434      860.157
02/01/2014  19:30:00       36.570       41.156       -0.371       17.985       19.734       18.385      323.458      389.415      338.023        0.204        0.053       55.056       13.827        0.063      331.996        0.371      860.169
02/01/2014  19:31:00       33.667       30.210        0.672       14.276       15.408       11.557      203.809      237.391      133.554        0.131        0.029       45.234        7.761        0.029      332.005        0.386      860.175
02/01/2014  19:32:00       38.238       50.063       -9.384       20.904       32.142       20.144      436.971     1033.093      405.769        0.297        0.094       62.996       18.913        0.090      332.013        0.399      860.185
02/01/2014  19:33:00       27.587       33.528       -0.976       20.569       27.817       14.988      423.088      773.805      224.631        0.165        0.071       43.419       12.687        0.085      331.957        0.307      860.187
02/01/2014  19:34:00       32.182       35.461        2.316       21.258       24.367       19.670      451.913      593.750      386.924        0.187        0.072       47.887       15.176        0.100      331.933        0.268      860.198
02/01/2014  19:35:00       28.897       37.350        1.111       18.419       24.040       18.496      339.251      577.918      342.112        0.175        0.063       47.224       12.630        0.072      331.955        0.305      860.210
02/01/2014  19:36:00       45.496       66.881       -5.874       26.316       29.110       18.584      692.550      847.418      345.355        0.423        0.094       80.889       15.304        0.036      331.963        0.319      860.214
02/01/2014  19:37:00       30.732       56.683       -3.246       19.596       33.076       20.650      384.009     1094.033      426.417        0.304        0.095       64.478       21.388        0.110      331.947        0.291      860.229
02/01/2014  19:38:00       24.435       70.732       -8.196       13.470       18.062       12.306      181.454      326.252      151.431        0.316        0.033       74.834        7.233        0.009      332.014        0.401      860.241
02/01/2014  19:39:00        7.214       56.908      -12.372       14.091       13.896        8.116      198.552      193.110       65.870        0.195        0.023       57.363        7.825        0.019      332.064        0.485      860.249
02/01/2014  19:40:00      -20.259       40.296       -1.461       27.882       21.778       12.714      777.410      474.266      161.636        0.172        0.071       45.102       12.370        0.075      332.022        0.414      860.254
02/01/2014  19:41:00      -52.386       77.072      -15.357       17.236       24.645       15.616      297.086      607.393      243.874        0.503        0.057       93.190       10.962        0.014      332.060        0.476      860.250
02/01/2014  19:42:00      -25.525       64.394       -1.079       25.362       21.345       15.346      643.218      455.607      235.506        0.307        0.067       69.268        9.035        0.017      332.140        0.610      860.242
02/01/2014  19:43:00      -22.517       89.891       -6.981       25.028       23.693       18.344      626.400      561.345      336.502        0.508        0.076       92.669       15.028        0.026      332.202        0.712      860.236
02/01/2014  19:44:00       14.048      118.233      -18.412       14.190       14.896        6.520      201.363      221.880       42.512        0.749        0.023      119.064        3.897        0.001      332.046        0.454      860.227
02/01/2014  19:45:00       11.809       99.934      -12.716       14.450       14.187       10.540      208.807      201.258      111.095        0.540        0.026      100.629        6.685        0.004      331.998        0.375      860.215
02/01/2014  19:46:00        9.191      107.220      -16.606       14.036       20.492        8.323      197.019      419.910       69.268        0.627        0.034      107.613        7.499        0.005      331.972        0.332      860.213
02/01/2014  19:47:00        9.969       92.703      -13.196       15.401       14.014        9.289      237.205      196.390       86.283        0.469        0.026       93.238        4.740        0.003      331.933        0.267      860.213
02/01/2014  19:48:00        9.901      101.496      -16.375       12.890       14.546        8.838      166.149      211.575       78.102        0.556        0.023      101.977        6.465        0.004      331.972        0.331      860.203
02/01/2014  19:49:00       -9.229       98.339      -16.661       13.942       15.509       11.251      194.391      240.533      126.587        0.530        0.028       98.771        5.213        0.003      332.041        0.446      860.188
02/01/2014  19:50:00       -6.165       93.922       -7.395       22.214       28.568       16.120      493.474      816.153      259.843        0.524        0.078       94.124       15.975        0.029      332.089        0.523      860.166
02/01/2014  19:51:00      -47.067       84.538      -14.223       27.572       30.886       18.989      760.203      953.928      360.574        0.582        0.104       96.757       16.405        0.029      332.147        0.620      860.146
02/01/2014  19:52:00      -28.944       89.439      -13.656       28.235       34.729       19.206      797.214     1206.136      368.876        0.570        0.119       94.006       22.302        0.056      332.043        0.451      860.122
02/01/2014  19:53:00       -7.200      128.882      -15.346       21.173       23.177       14.178      448.313      537.174      201.016        0.904        0.059      129.083       10.204        0.006      332.019        0.409      860.100
02/01/2014  19:54:00       16.711      133.170      -20.378       17.230       18.101        9.553      296.878      327.649       91.260        0.957        0.036      134.214        8.424        0.004      331.903        0.218      860.085
02/01/2014  19:55:00       36.131      115.820      -20.096       23.134       25.195       15.491      535.191      634.790      239.985        0.827        0.070      121.325       14.773        0.015      331.863        0.153      860.093
02/01/2014  19:56:00       50.577      102.491      -11.512       26.914       51.363       28.373      724.350     2638.118      805.024        0.868        0.208      114.291       31.626        0.077      331.808        0.061      860.112
02/01/2014  19:57:00       46.400       54.951       -5.354       28.766       35.710       22.601      827.498     1275.218      510.816        0.391        0.131       71.921       20.079        0.078      331.803        0.054      860.142
02/01/2014  19:58:00       41.979       46.531        5.969       32.853       25.595       24.457     1079.313      655.111      598.131        0.315        0.117       62.668       18.343        0.086      331.778        0.011      860.167
02/01/2014  19:59:00       48.335       38.793        3.956       29.792       21.556       19.328      887.542      464.653      373.581        0.279        0.086       61.977       12.410        0.040      331.762       -0.013      860.171
02/01/2014  20:00:00       58.102       35.965        8.005       25.917       21.666       17.880      671.686      469.422      319.682        0.310        0.073       68.332       10.625        0.024      331.813        0.071      860.163
02/01/2014  20:01:00       63.540       36.986        3.761       21.303       16.442       14.916      453.820      270.328      222.494        0.318        0.047       73.521        6.462        0.008      331.837        0.108      860.148
02/01/2014  20:02:00       70.212       45.827       -1.146       24.856       21.683       15.952      617.818      470.144      254.453        0.419        0.067       83.844        7.671        0.008      331.812        0.069      860.134
02/01/2014  20:03:00       50.038       44.891       10.591       25.568       16.218       20.243      653.716      263.032      409.760        0.298        0.066       67.224       10.260        0.023      331.799        0.047      860.132
02/01/2014  20:04:00       29.466       49.356       -2.873       30.519       29.669       21.090      931.432      880.251      444.779        0.278        0.113       57.482       15.565        0.073      331.749       -0.036      860.141
02/01/2014  20:05:00       36.231       71.402       -5.652       19.464       32.545       21.085      378.829     1059.180      444.598        0.416        0.094       80.068       19.059        0.057      331.761       -0.015      860.148
02/01/2014  20:06:00       32.076       65.906       -7.666       29.894       30.857       22.361      893.632      952.156      500.019        0.389        0.117       73.297       18.736        0.065      331.790        0.031      860.156
02/01/2014  20:07:00       34.080       71.882       -4.563       26.620       24.461       20.218      708.646      598.332      408.766        0.403        0.086       79.551       16.594        0.044      331.773        0.004      860.165
02/01/2014  20:08:00       15.473       74.400       -8.559       19.739       21.450       15.170      389.621      460.100      230.133        0.346        0.054       75.992       13.225        0.030      331.791        0.035      860.186
02/01/2014  20:09:00        0.203      113.064      -19.087       11.086       12.887        8.145      122.893      166.086       66.342        0.675        0.018      113.065        5.443        0.002      331.793        0.035      860.219
02/01/2014  20:10:00      -14.847      119.004      -21.897       17.631       17.170        9.116      310.848      294.819       83.105        0.778        0.034      119.927        7.064        0.003      331.885        0.189      860.251
02/01/2014  20:11:00      -27.158       56.539       -6.812       28.379       44.997       21.642      805.383     2024.695      468.376        0.364        0.165       62.723       28.550        0.207      331.957        0.308      860.265
02/01/2014  20:12:00      -31.539       61.447      -10.667       22.130       33.323       13.733      489.754     1110.436      188.606        0.334        0.089       69.069       13.766        0.040      331.801        0.051      860.266
02/01/2014  20:13:00      -16.043       80.346      -12.310       23.940       39.080       15.439      573.147     1527.232      238.371        0.460        0.117       81.932       17.359        0.045      331.904        0.220      860.260
02/01/2014  20:14:00        0.585      115.757      -15.854       28.276       34.472       16.876      799.559     1188.327      284.787        0.796        0.114      115.759       13.394        0.013      331.922        0.250      860.248
02/01/2014  20:15:00       27.783      131.391       -9.635       26.691       39.546       24.216      712.421     1563.860      586.398        1.050        0.143      134.296       25.565        0.036      331.766       -0.007      860.231
02/01/2014  20:16:00       40.199       93.307       -5.908       28.943       56.959       32.596      837.693     3244.363     1062.487        0.775        0.257      101.598       32.681        0.103      331.649       -0.199      860.206
02/01/2014  20:17:00       40.909       59.683       -4.294       35.777       34.387       25.274     1280.010     1182.443      638.751        0.418        0.155       72.358       21.101        0.085      331.603       -0.274      860.187
02/01/2014  20:18:00       79.772       66.169        7.481       43.590       33.798       30.218     1900.070     1142.281      913.100        0.738        0.198      103.643       20.358        0.039      331.573       -0.326      860.176
02/01/2014  20:19:00       81.980       62.245       15.448       45.093       30.652       33.269     2033.423      939.534     1106.812        0.746        0.204      102.933       22.357        0.047      331.643       -0.209      860.179
02/01/2014  20:20:00       89.906       63.141       14.259       32.606       25.505       29.036     1063.159      650.525      843.081        0.741        0.128      109.863       17.503        0.025      331.636       -0.221      860.183
02/01/2014  20:21:00       90.528       41.530       10.915       43.501       34.480       26.815     1892.356     1188.872      719.066        0.692        0.190       99.599       21.408        0.046      331.651       -0.195      860.167
02/01/2014  20:22:00       71.160       48.244        7.492       32.842       19.187       19.424     1078.592      368.126      377.290        0.464        0.091       85.972       16.600        0.037      331.591       -0.293      860.154
02/01/2014  20:23:00       97.058       47.776        9.787       28.783       19.497       21.047      828.472      380.131      442.977        0.672        0.083      108.179        9.054        0.007      331.617       -0.253      860.145
02/01/2014  20:24:00       87.224       62.889        8.951       24.262       15.868       25.233      588.629      251.790      636.711        0.656        0.074      107.531       18.388        0.029      331.581       -0.312      860.129
02/01/2014  20:25:00       67.081       62.171        5.590       18.273       17.500       14.355      333.887      306.257      206.055        0.462        0.042       91.461        7.623        0.007      331.563       -0.342      860.117
02/01/2014  20:26:00       71.910       53.701        1.801       18.454       20.179       17.401      340.560      407.194      302.804        0.455        0.053       89.748        8.247        0.008      331.548       -0.366      860.109
02/01/2014  20:27:00       64.220       48.548        7.174       10.491       11.957       10.462      110.058      142.978      109.444        0.345        0.018       80.505        6.985        0.008      331.587       -0.302      860.116
02/01/2014  20:28:00       57.936       33.762        6.716       13.637       13.304       11.357      185.980      177.004      128.971        0.252        0.025       67.056        7.847        0.014      331.566       -0.336      860.114
02/01/2014  20:29:00       29.020       28.843       -4.261       19.248       18.548       12.992      370.478      344.024      168.781        0.129        0.044       40.916        9.868        0.058      331.546       -0.368      860.110
02/01/2014  20:30:00       18.497       25.589       -1.001       16.900       16.052       13.037      285.616      257.665      169.963        0.086        0.036       31.574        7.252        0.053      331.564       -0.340      860.114
02/01/2014  20:31:00       23.133       47.554       -3.165       13.663       23.135       13.206      186.677      535.244      174.393        0.185        0.045       52.882       14.499        0.075      331.564       -0.340      860.142
02/01/2014  20:32:00       22.581       66.148       -8.477       16.654       18.530        9.853      277.358      343.343       97.087        0.284        0.036       69.896        5.426        0.006      331.584       -0.308      860.152
02/01/2014  20:33:00       12.919       64.838      -13.082       19.349       16.763        8.949      374.373      281.006       80.091        0.264        0.037       66.112        7.505        0.013      331.598       -0.283      860.149
02/01/2014  20:34:00        4.807       74.219      -13.713       11.420       19.285        9.496      130.418      371.921       90.166        0.316        0.030       74.374        6.856        0.008      331.619       -0.249      860.140
02/01/2014  20:35:00       17.678       79.991       -9.929       18.818       21.438       13.804      354.111      459.577      190.542        0.391        0.050       81.921       13.511        0.027      331.608       -0.268      860.131
02/01/2014  20:36:00       12.688       80.868      -10.041       13.898       15.482       11.556      193.145      239.683      133.531        0.368        0.028       81.857        8.473        0.011      331.591       -0.294      860.115
02/01/2014  20:37:00       16.972       65.958      -11.212       14.447       15.418        8.466      208.706      237.702       71.676        0.264        0.026       68.107        5.430        0.006      331.593       -0.291      860.112
02/01/2014  20:38:00        3.284       45.287       -2.733        9.657       11.638       10.029       93.261      135.448      100.590        0.120        0.016       45.406        6.839        0.023      331.579       -0.314      860.113
02/01/2014  20:39:00       30.417       29.329        5.771       15.517       16.871       11.794      240.772      284.631      139.093        0.124        0.033       42.254       12.401        0.086      331.556       -0.354      860.123
02/01/2014  20:40:00       21.057       23.344        0.966        9.508       12.896        5.738       90.407      166.304       32.926        0.064        0.014       31.438        4.815        0.023      331.565       -0.339      860.121
02/01/2014  20:41:00       44.370       31.757        7.703       20.687       16.121       13.042      427.932      259.879      170.083        0.195        0.043       54.564        9.970        0.033      331.515       -0.421      860.118
02/01/2014  20:42:00       32.265       27.728        3.106       19.791       17.228       11.311      391.670      296.804      127.939        0.132        0.041       42.542        7.802        0.034      331.486       -0.468      860.111
02/01/2014  20:43:00       27.495       50.746       -1.298       15.974       22.342       15.360      255.164      499.156      235.929        0.216        0.050       57.716       14.532        0.063      331.509       -0.431      860.101
02/01/2014  20:44:00       34.897       91.532      -13.271       19.418       22.210       12.291      377.061      493.263      151.070        0.540        0.051       97.959       10.577        0.012      331.498       -0.448      860.085
02/01/2014  20:45:00       27.457       75.909      -10.202       22.174       33.183       17.372      491.688     1101.133      301.772        0.426        0.095       80.722       18.054        0.050      331.486       -0.467      860.077
02/01/2014  20:46:00       14.168      101.278      -15.310       12.084       12.130        8.704      146.013      147.138       75.763        0.553        0.018      102.264        5.583        0.003      331.522       -0.408      860.082
02/01/2014  20:47:00        4.401       95.399      -14.386        7.817       12.062        5.837       61.111      145.491       34.069        0.478        0.012       95.501        3.009        0.001      331.520       -0.413      860.079
02/01/2014  20:48:00        3.325      100.755      -16.362        9.066       11.466        6.901       82.188      131.470       47.627        0.535        0.013      100.809        3.475        0.001      331.465       -0.505      860.071
02/01/2014  20:49:00        4.736       98.516      -14.761       13.333       14.203       11.250      177.761      201.738      126.572        0.523        0.025       98.630        6.137        0.004      331.456       -0.520      860.074
02/01/2014  20:50:00        7.349      110.093      -12.914        9.839       15.612        8.058       96.810      243.733       64.937        0.637        0.020      110.338        3.666        0.001      331.439       -0.546      860.084
02/01/2014  20:51:00       15.275      104.684      -16.842       12.707       16.226        8.054      161.474      263.277       64.867        0.598        0.024      105.792        4.910        0.002      331.438       -0.548      860.104
02/01/2014  20:52:00        5.301       90.479      -13.439       12.445       14.702       10.405      154.888      216.163      108.263        0.444        0.024       90.634        6.756        0.006      331.438       -0.546      860.117
02/01/2014  20:53:00       21.706      105.511      -14.884       12.208       15.172        9.106      149.040      230.182       82.927        0.614        0.023      107.720        6.352        0.003      331.473       -0.490      860.125
02/01/2014  20:54:00       17.101       96.840      -14.839       12.501       16.037        8.364      156.277      257.175       69.961        0.519        0.024       98.338        7.318        0.006      331.463       -0.509      860.123
02/01/2014  20:55:00       29.624       67.329       -7.978       17.420       25.201       13.648      303.445      635.097      186.268        0.330        0.056       73.558       13.264        0.033      331.397       -0.616      860.116
02/01/2014  20:56:00       45.143       66.893       -5.788       28.968       28.923       21.977      839.156      836.531      482.975        0.435        0.108       80.701       16.999        0.044      331.374       -0.652      860.110
02/01/2014  20:57:00       42.685       42.209       -2.443       34.977       24.800       24.958     1223.416      615.019      622.921        0.304        0.123       60.030       15.927        0.070      331.301       -0.772      860.103
02/01/2014  20:58:00       28.352       49.450        3.069       23.867       25.758       21.362      569.646      663.491      456.328        0.247        0.084       57.001       15.364        0.073      331.291       -0.789      860.114
02/01/2014  20:59:00       28.311       50.836       -2.782       26.196       35.966       22.028      686.217     1293.588      485.233        0.293        0.123       58.188       18.154        0.097      331.319       -0.743      860.123
02/01/2014  21:00:00       19.051       57.950       -5.510       19.320       27.752       17.895      373.280      770.160      320.223        0.261        0.073       61.001       16.928        0.077      331.318       -0.743      860.135
02/01/2014  21:01:00        9.488       79.361      -14.342       17.609       27.463       13.844      310.061      754.233      191.648        0.392        0.063       79.926       15.906        0.040      331.385       -0.633      860.133
02/01/2014  21:02:00       -6.535      100.179      -22.329       14.248       14.089       10.744      203.014      198.501      115.435        0.555        0.026      100.392        3.982        0.002      331.433       -0.556      860.130
02/01/2014  21:03:00        1.924       65.046       -7.454       15.863       15.432       13.588      251.626      238.147      184.640        0.248        0.034       65.074        8.636        0.018      331.550       -0.362      860.123
02/01/2014  21:04:00      -16.941       31.918       -2.977       17.242       21.640       14.874      297.298      468.298      221.225        0.115        0.049       36.135        9.114        0.064      331.423       -0.571      860.117
02/01/2014  21:05:00      -11.821       51.768       -1.906       24.679       29.244       13.316      609.071      855.241      177.304        0.223        0.082       53.101       13.463        0.064      331.463       -0.505      860.116
02/01/2014  21:06:00        3.875       86.669       -9.900       14.479       22.411       14.387      209.628      502.233      206.995        0.427        0.046       86.756       11.675        0.018      331.469       -0.496      860.112
02/01/2014  21:07:00       12.331      108.899      -14.366       15.362       16.826       10.227      235.980      283.102      104.584        0.642        0.031      109.595        6.063        0.003      331.362       -0.671      860.107
02/01/2014  21:08:00       25.928       89.428       -9.501       29.489       28.847       19.503      869.600      832.175      380.385        0.542        0.104       93.111       15.483        0.028      331.341       -0.706      860.092
02/01/2014  21:09:00       26.784       99.225      -12.031       28.021       39.727       21.890      785.186     1578.255      479.180        0.677        0.142      102.776       19.467        0.036      331.354       -0.685      860.086
02/01/2014  21:10:00       21.158      108.860      -11.154       21.499       22.321       16.375      462.202      498.242      268.133        0.683        0.061      110.897       11.879        0.011      331.337       -0.711      860.092
02/01/2014  21:11:00       17.166      123.131      -17.806       21.656       24.247       14.265      468.974      587.899      203.485        0.852        0.063      124.322       13.213        0.011      331.326       -0.731      860.107
02/01/2014  21:12:00       -1.491      103.178       -9.600       14.687       26.070       14.498      215.721      679.636      210.195        0.592        0.055      103.189       13.708        0.018      331.258       -0.844      860.115
02/01/2014  21:13:00       -4.956      117.516      -13.420       12.691       14.435       12.473      161.066      208.368      155.582        0.727        0.026      117.621        4.364        0.001      331.297       -0.777      860.119
02/01/2014  21:14:00       -4.870      113.979      -17.384       11.838       12.986        8.127      140.146      168.649       66.054        0.685        0.019      114.083        4.196        0.001      331.255       -0.847      860.119
02/01/2014  21:15:00      -11.381      123.893      -17.433       17.095       14.225        9.671      292.239      202.356       93.521        0.819        0.029      124.415        7.421        0.004      331.266       -0.830      860.113
02/01/2014  21:16:00      -14.612      115.135      -16.209       14.740       12.648        9.223      217.272      159.972       85.059        0.710        0.023      116.059        4.327        0.001      331.292       -0.787      860.102
02/01/2014  21:17:00      -18.371      135.421      -21.463       13.095       14.361       10.611      171.489      206.232      112.587        0.981        0.025      136.661        5.991        0.002      331.293       -0.784      860.095
02/01/2014  21:18:00      -16.589      133.560      -18.360       14.370       15.206        9.987      206.504      231.237       99.741        0.949        0.027      134.586        4.998        0.001      331.277       -0.812      860.088
02/01/2014  21:19:00       -7.132      120.079      -17.409       16.478       17.962        9.979      271.514      322.630       99.573        0.773        0.035      120.290        5.481        0.002      331.339       -0.710      860.089
02/01/2014  21:20:00       -8.051      128.436      -18.363       12.662       20.209       10.103      160.319      408.404      102.076        0.878        0.034      128.688        7.596        0.003      331.264       -0.832      860.086
02/01/2014  21:21:00       -1.183      115.390      -19.200       16.739       14.566        9.785      280.201      212.163       95.737        0.714        0.029      115.397        9.477        0.007      331.258       -0.843      860.079
02/01/2014  21:22:00        6.300       96.154      -10.745       20.503       23.640       12.909      420.377      558.858      166.639        0.527        0.057       96.360       13.056        0.018      331.280       -0.804      860.066
02/01/2014  21:23:00       26.404      114.293      -17.234       18.308       23.040       11.953      335.173      530.847      142.864        0.753        0.050      117.303       12.759        0.012      331.227       -0.894      860.051
02/01/2014  21:24:00       36.255       83.270       -7.157       20.678       44.301       23.325      427.598     1962.569      544.069        0.562        0.147       90.820       26.319        0.084      331.096       -1.110      860.036
02/01/2014  21:25:00       50.738       63.919      -13.010       23.804       32.187       23.436      566.616     1035.985      549.249        0.449        0.108       81.608       16.054        0.039      331.070       -1.153      860.027
02/01/2014  21:26:00       44.398       47.394       -3.392       23.779       21.245       11.530      565.464      451.353      132.942        0.269        0.057       64.941       10.365        0.025      331.082       -1.132      860.026
02/01/2014  21:27:00       60.995       56.919        2.682       23.283       22.578       21.224      542.080      509.782      450.467        0.423        0.075       83.428       17.638        0.045      331.149       -1.023      860.026
02/01/2014  21:28:00       36.575       47.739       -3.819       24.877       31.330       20.416      618.849      981.538      416.812        0.282        0.101       60.139       19.453        0.105      331.126       -1.059      860.027
02/01/2014  21:29:00       28.700       86.395      -10.775       24.095       26.560       13.791      580.582      705.428      190.184        0.494        0.074       91.037       10.990        0.015      331.156       -1.011      860.033
02/01/2014  21:30:00       19.400      121.564      -20.187       19.093       25.841       14.051      364.546      667.777      197.442        0.840        0.061      123.102       13.328        0.012      331.161       -1.004      860.038
02/01/2014  21:31:00       29.690      117.934      -20.212       21.399       19.842       17.316      457.925      393.714      299.834        0.817        0.058      121.614       12.400        0.010      331.162       -1.001      860.029
02/01/2014  21:32:00       19.365      151.459      -26.385       29.819       33.967       13.682      889.153     1153.761      187.187        1.312        0.112      152.692       10.706        0.005      331.203       -0.933      860.011
02/01/2014  21:33:00       10.517      150.699      -23.953       15.841       17.223        9.236      250.931      296.647       85.304        1.201        0.032      151.065        7.733        0.003      331.189       -0.957      860.003
02/01/2014  21:34:00      -11.879      133.528      -21.098       13.698       17.211        8.398      187.645      296.226       70.521        0.949        0.028      134.056        6.996        0.003      331.150       -1.022      860.016
02/01/2014  21:35:00      -14.227      115.689      -13.106       20.024       42.661       23.573      400.955     1819.944      555.696        0.827        0.139      116.560       21.667        0.035      331.308       -0.760      860.020
02/01/2014  21:36:00      -47.867       73.712      -13.352       25.718       23.556       17.389      661.401      554.902      302.369        0.471        0.076       87.891       15.601        0.032      331.199       -0.941      860.031
02/01/2014  21:37:00      -46.885       75.543      -19.991       23.632       28.231       16.350      558.473      796.991      267.308        0.496        0.081       88.910       14.185        0.025      331.193       -0.948      860.040
02/01/2014  21:38:00      -39.208       17.902       -5.625       16.974       22.333       12.556      288.133      498.764      157.653        0.142        0.047       43.102        4.351        0.010      331.083       -1.131      860.051
02/01/2014  21:39:00      -23.360       61.178      -14.717       16.334       33.113       11.342      266.800     1096.489      128.647        0.300        0.075       65.486       15.091        0.053      331.237       -0.878      860.061
02/01/2014  21:40:00      -39.586       34.376       -4.986       18.609       22.022       10.299      346.283      484.980      106.079        0.186        0.047       52.429       10.032        0.037      331.209       -0.926      860.066
02/01/2014  21:41:00       -6.795        1.785        9.941       13.121        7.648        7.694      172.170       58.498       59.203        0.022        0.014        7.026        6.702        0.910      331.104       -1.098      860.070
02/01/2014  21:42:00      -18.113       -4.772       -3.671       16.894       23.268        9.439      285.412      541.405       89.096        0.064        0.046       18.731        5.544        0.088      331.046       -1.191      860.070
02/01/2014  21:43:00       10.423       35.337        4.622       24.526       27.194       15.527      601.514      739.501      241.075        0.148        0.079       36.842       16.683        0.205      331.253       -0.851      860.078
02/01/2014  21:44:00        6.208       18.541       13.518       18.381       15.880       14.370      337.843      252.160      206.505        0.068        0.040       19.553        8.549        0.191      331.249       -0.858      860.092
02/01/2014  21:45:00       19.003       43.398        2.996       20.239       18.767       15.402      409.630      352.216      237.230        0.163        0.050       47.376       13.254        0.078      331.395       -0.617      860.088
02/01/2014  21:46:00       22.233       74.594       -9.653       16.220       17.700       11.109      263.099      313.300      123.408        0.343        0.035       77.837        6.180        0.006      331.389       -0.627      860.081
02/01/2014  21:47:00        4.837       81.202      -13.071        8.297        9.473        6.174       68.833       89.732       38.120        0.349        0.010       81.346        2.636        0.001      331.285       -0.799      860.079
02/01/2014  21:48:00        2.384       75.066      -10.765        9.684        9.511        6.765       93.784       90.463       45.769        0.299        0.012       75.104        4.227        0.003      331.237       -0.876      860.088
02/01/2014  21:49:00       -2.552       62.247       -7.351        6.231       14.086        5.492       38.823      198.427       30.166        0.210        0.013       62.299        3.412        0.003      331.299       -0.774      860.095
02/01/2014  21:50:00        4.944       44.554       -6.982       11.832       11.281        7.269      139.985      127.265       52.844        0.119        0.016       44.827        6.303        0.020      331.317       -0.745      860.098
02/01/2014  21:51:00      -27.564       18.980       -9.219       28.048       19.835       12.390      786.708      393.433      153.500        0.127        0.067       33.467       13.503        0.163      331.002       -1.264      860.098
02/01/2014  21:52:00      -38.695      -17.583       -9.075       11.470       17.309       10.959      131.558      299.613      120.106        0.122        0.028       42.503       10.653        0.063      330.810       -1.580      860.098
02/01/2014  21:53:00       -6.228        1.259       -5.868       16.670        6.220       11.373      277.879       38.692      129.341        0.026        0.022        6.354        9.050        2.029      331.020       -1.234      860.099
02/01/2014  21:54:00       -7.459       -4.701        3.959        9.254        6.370        5.973       85.628       40.577       35.678        0.013        0.008        8.817        6.175        0.491      330.989       -1.285      860.093
02/01/2014  21:55:00       20.892       15.590       10.823       23.121        9.506        8.709      534.569       90.360       75.839        0.075        0.035       26.068        2.516        0.009      331.130       -1.055      860.076
02/01/2014  21:56:00       58.773       22.001       10.891       18.045       16.573       15.082      325.638      274.671      227.463        0.244        0.041       62.756        8.803        0.020      331.157       -1.009      860.046
02/01/2014  21:57:00       65.659       43.258       11.468       23.728       22.417       19.826      563.020      502.504      393.055        0.389        0.073       78.629       14.006        0.032      331.076       -1.143      860.021
02/01/2014  21:58:00       57.075       50.795        0.762       24.343       21.739       16.703      592.594      472.592      278.983        0.359        0.067       76.405       11.674        0.023      331.115       -1.079      859.996
02/01/2014  21:59:00       38.085       37.958        1.848       21.377       18.854       17.554      456.996      355.473      308.126        0.201        0.056       53.770       14.008        0.068      331.037       -1.209      859.984
02/01/2014  22:00:00       36.639       41.045        0.863       18.191       25.868       14.495      330.906      669.137      210.104        0.212        0.061       55.019       13.536        0.061      331.016       -1.241      859.973
02/01/2014  22:01:00       55.223       29.060        5.486       19.008       13.992       12.584      361.286      195.789      158.359        0.232        0.036       62.403        8.956        0.021      331.025       -1.226      859.964
02/01/2014  22:02:00       41.791       29.088        2.495       13.824       12.233       11.291      191.101      149.642      127.490        0.153        0.023       50.918        6.920        0.018      330.996       -1.273      859.949
02/01/2014  22:03:00       57.823       47.004        5.750       19.832       16.422       14.936      393.319      269.677      223.071        0.324        0.044       74.517       10.227        0.019      330.982       -1.296      859.942
02/01/2014  22:04:00       66.104       57.966        1.513       24.199       20.920       16.859      585.608      437.660      284.236        0.452        0.065       87.919       13.828        0.025      330.901       -1.429      859.940
02/01/2014  22:05:00       76.550       53.161        7.996       26.637       25.069       18.875      709.539      628.478      356.265        0.522        0.085       93.199       15.067        0.026      330.834       -1.539      859.933
02/01/2014  22:06:00       93.202       51.098       -4.199       26.587       30.192       22.531      706.849      911.562      507.665        0.672        0.106      106.291       17.199        0.026      330.865       -1.488      859.937
02/01/2014  22:07:00       75.988       53.516        8.357       32.482       24.935       19.987     1055.077      621.769      399.484        0.539        0.104       92.941        8.643        0.009      330.837       -1.535      859.938
02/01/2014  22:08:00       79.172       43.399       10.514       24.889       25.201       18.646      619.468      635.068      347.687        0.493        0.080       90.286       12.081        0.018      330.822       -1.561      859.945
02/01/2014  22:09:00       33.061       30.633        0.894       27.053       15.399       17.313      731.851      237.140      299.752        0.165        0.063       45.071       11.857        0.069      330.788       -1.615      859.951
02/01/2014  22:10:00       21.794       30.859        0.388       18.219       23.917       15.961      331.933      572.037      254.750        0.129        0.058       37.779       15.365        0.165      330.784       -1.623      859.955
02/01/2014  22:11:00       15.483       47.895       -8.966       12.631       18.657       10.206      159.534      348.080      104.161        0.161        0.031       50.336       10.663        0.045      330.849       -1.514      859.953
02/01/2014  22:12:00       51.621       44.811       -3.410       28.367       27.829       13.329      804.698      774.455      177.668        0.322        0.088       68.358       10.889        0.025      330.863       -1.491      859.943
02/01/2014  22:13:00       84.820       60.770        9.800       30.730       22.363       23.162      944.351      500.121      536.460        0.648        0.099      104.342       20.506        0.039      330.797       -1.600      859.925
02/01/2014  22:14:00       87.918       53.633       13.332       31.863       21.536       24.375     1015.281      463.819      594.131        0.643        0.104      102.986       13.757        0.018      330.800       -1.596      859.921
02/01/2014  22:15:00       49.833       42.307       -0.819       23.474       16.710       12.444      551.046      279.223      154.849        0.263        0.049       65.370        9.435        0.021      330.729       -1.712      859.922
02/01/2014  22:16:00       52.691       34.080       -0.465       14.559       14.864        9.729      211.967      220.930       94.656        0.223        0.026       62.752        6.140        0.010      330.722       -1.724      859.924
02/01/2014  22:17:00       47.788       26.993        3.301       16.340       10.936        9.187      266.994      119.602       84.409        0.175        0.024       54.885        5.022        0.008      330.781       -1.628      859.932
02/01/2014  22:18:00       24.001       26.818       -4.314       11.625        9.961        7.943      135.141       99.225       63.090        0.081        0.015       35.989        5.268        0.021      330.819       -1.565      859.934
02/01/2014  22:19:00       13.559       26.702       -3.936       11.235       12.866        8.857      126.232      165.545       78.451        0.064        0.019       29.947        7.778        0.067      330.873       -1.475      859.950
02/01/2014  22:20:00       17.442       31.177       -5.541        9.240        7.362        5.678       85.380       54.192       32.242        0.074        0.009       35.724        5.361        0.023      330.940       -1.364      859.974
02/01/2014  22:21:00       24.619       33.434       -3.870        8.566        9.182        6.123       73.372       84.315       37.486        0.097        0.010       41.520        2.656        0.004      330.951       -1.345      859.993
02/01/2014  22:22:00       36.833       38.919       13.077       10.311       11.916       13.434      106.325      141.985      180.477        0.174        0.021       53.585        4.807        0.008      330.932       -1.376      859.996
02/01/2014  22:23:00       51.485       50.707       11.105       12.164        7.750        9.740      147.954       60.062       94.863        0.282        0.015       72.263        6.533        0.008      330.967       -1.320      859.990
02/01/2014  22:24:00       63.383       41.772       11.488       16.065       13.221        9.507      258.090      174.793       90.385        0.321        0.026       75.910        8.336        0.012      330.929       -1.380      859.977
02/01/2014  22:25:00       70.963       44.424        7.130       10.090       11.119        8.922      101.817      123.626       79.596        0.368        0.015       83.721        3.343        0.002      330.945       -1.357      859.963
02/01/2014  22:26:00       89.496       53.009        3.532       14.210       13.279        7.795      201.924      176.340       60.757        0.564        0.022      104.017        6.990        0.005      330.931       -1.378      859.950
02/01/2014  22:27:00       83.061       40.528       13.294       17.002       17.784       19.500      289.074      316.255      380.251        0.485        0.049       92.421        9.277        0.010      330.968       -1.317      859.943
02/01/2014  22:28:00       66.348       38.875       15.773       13.629       14.776       15.857      185.753      218.326      251.458        0.341        0.033       76.898        9.650        0.016      330.977       -1.303      859.951
02/01/2014  22:29:00       64.958       27.046       12.268       18.916       20.337       18.824      357.805      413.594      354.338        0.311        0.056       70.363       12.103        0.030      330.987       -1.287      859.952
02/01/2014  22:30:00       49.493       32.568        3.367       13.247       12.310       10.191      175.482      151.540      103.857        0.198        0.022       59.248        6.651        0.013      330.900       -1.431      859.960
02/01/2014  22:31:00       79.706       42.041        8.636       13.231       12.141       11.913      175.049      147.400      141.909        0.433        0.023       90.114       10.239        0.013      330.849       -1.516      859.950
02/01/2014  22:32:00       64.782       25.861       14.710       23.859       21.359       20.122      569.247      456.196      404.908        0.326        0.072       69.753       13.121        0.035      330.891       -1.445      859.935
02/01/2014  22:33:00       57.815       24.626       34.958       24.966       20.174       22.692      623.313      406.976      514.928        0.336        0.077       62.841       16.667        0.070      330.916       -1.404      859.916
02/01/2014  22:34:00       34.211       38.546       38.020       27.727       19.479       19.659      768.762      379.444      386.459        0.282        0.077       51.538       16.106        0.098      330.911       -1.413      859.894
02/01/2014  22:35:00       38.425       31.343       32.991       14.106       14.208       17.106      198.986      201.877      292.603        0.212        0.035       49.587       12.315        0.062      330.905       -1.422      859.882
02/01/2014  22:36:00       30.215       20.084       21.084       17.099       15.165       14.638      292.372      229.978      214.271        0.125        0.037       36.281       11.553        0.101      330.947       -1.352      859.877
02/01/2014  22:37:00       34.299       42.032       31.946       14.266       16.444       13.771      203.515      270.420      189.637        0.231        0.033       54.251       11.710        0.047      330.954       -1.343      859.876
02/01/2014  22:38:00       34.575       31.460       25.737       23.836       20.023       20.515      568.147      400.916      420.849        0.212        0.069       46.746       20.053        0.184      330.880       -1.464      859.872
02/01/2014  22:39:00       36.430       36.526       28.093       15.598       16.126       17.541      243.304      260.033      307.698        0.213        0.041       51.588       11.917        0.053      330.884       -1.457      859.868
02/01/2014  22:40:00       46.277       30.092       21.999       23.386       14.250       13.014      546.901      203.050      169.370        0.223        0.046       55.200       10.583        0.037      330.807       -1.583      859.864
02/01/2014  22:41:00       60.602       33.782        2.762       12.462       10.238        8.935      155.312      104.820       79.836        0.258        0.017       69.382        6.485        0.009      330.819       -1.564      859.857
02/01/2014  22:42:00       65.108       34.071        3.257        9.028        9.554       11.365       81.502       91.270      129.156        0.286        0.015       73.484        8.790        0.014      330.775       -1.635      859.847
02/01/2014  22:43:00       38.048       25.726       -0.442       15.316       13.138       10.091      234.567      172.598      101.826        0.131        0.025       45.929        4.044        0.008      330.732       -1.707      859.845
02/01/2014  22:44:00       34.897       43.102       -2.500       16.266       18.487       13.602      264.571      341.767      185.014        0.194        0.040       55.458       12.030        0.047      330.785       -1.619      859.844
02/01/2014  22:45:00       38.831       41.402       -2.559       27.155       26.402       15.838      737.383      697.070      250.836        0.246        0.084       56.763       13.828        0.059      330.712       -1.739      859.850
02/01/2014  22:46:00       17.647       65.009      -11.538       16.146       20.367        9.712      260.690      414.830       94.328        0.272        0.038       67.361        8.699        0.017      330.741       -1.693      859.857
02/01/2014  22:47:00      -36.685       48.471       -6.274       38.031       28.808       16.750     1446.370      829.872      280.547        0.315        0.128       60.788        8.267        0.018      330.708       -1.746      859.867
02/01/2014  22:48:00      -73.792       12.232      -12.962       19.848       14.295       13.279      393.954      204.351      176.325        0.327        0.039       74.799       10.679        0.020      330.542       -2.017      859.878
02/01/2014  22:49:00      -47.918       -0.596        0.987       32.466       24.192       18.579     1054.041      585.232      345.194        0.214        0.099       47.922       14.604        0.093      330.426       -2.208      859.888
02/01/2014  22:50:00      -97.513       10.459      -15.523       23.357       28.146       18.011      545.535      792.223      324.399        0.576        0.083       98.072       16.222        0.027      330.460       -2.154      859.888
02/01/2014  22:51:00      -68.107        4.266       -7.765       22.686       13.689       14.308      514.633      187.397      204.720        0.281        0.045       68.240       11.969        0.031      330.488       -2.108      859.882
02/01/2014  22:52:00      -56.362        3.150      -14.841       12.777       18.099       10.210      163.255      327.579      104.249        0.200        0.030       56.450        7.781        0.019      330.541       -2.019      859.864
02/01/2014  22:53:00      -69.800       36.554      -13.948       20.592       23.297       13.454      424.028      542.771      181.012        0.378        0.057       78.792       12.233        0.024      330.633       -1.868      859.840
02/01/2014  22:54:00      -53.497       28.452      -11.344       17.839       20.147       13.078      318.239      405.914      171.042        0.235        0.045       60.592        5.238        0.007      330.562       -1.986      859.813
02/01/2014  22:55:00      -66.808       27.206      -14.038       23.576       25.096       11.666      555.850      629.804      136.096        0.336        0.066       72.135       12.427        0.030      330.517       -2.060      859.796
02/01/2014  22:56:00      -54.796      -10.465      -11.949       17.617       13.873       11.428      310.344      192.457      130.599        0.194        0.032       55.786       10.927        0.038      330.329       -2.368      859.800
02/01/2014  22:57:00      -63.232      -28.735      -13.144       26.042       26.347       16.759      678.163      694.175      280.877        0.332        0.083       69.455       11.448        0.027      330.250       -2.497      859.810
02/01/2014  22:58:00      -70.966      -14.400       -9.308       30.214       22.024       15.102      912.892      485.052      228.065        0.348        0.081       72.412       11.721        0.026      330.189       -2.597      859.825
02/01/2014  22:59:00      -40.967       -9.735       -5.017       18.693       15.760        9.369      349.443      248.385       87.777        0.124        0.034       42.107        9.245        0.048      330.228       -2.533      859.837
02/01/2014  23:00:00      -10.089       -6.958        2.329       14.679       15.045       10.530      215.478      226.350      110.878        0.035        0.028       12.256        6.225        0.258      330.378       -2.287      859.831
02/01/2014  23:01:00       25.117       49.557       -2.081       12.908       26.661       10.534      166.614      710.807      110.962        0.204        0.049       55.559       14.397        0.067      330.542       -2.019      859.822
02/01/2014  23:02:00       15.266       78.950       -8.827       13.694       11.587        9.718      187.516      134.251       94.446        0.348        0.021       80.412        4.654        0.003      330.574       -1.967      859.808
02/01/2014  23:03:00       23.587       90.874      -19.009       14.716       14.345        9.605      216.558      205.782       92.262        0.485        0.026       93.886        6.921        0.005      330.539       -2.023      859.785
02/01/2014  23:04:00        2.010       87.808      -17.185       14.845       16.707        8.001      220.362      279.137       64.021        0.429        0.028       87.831        4.868        0.003      330.539       -2.023      859.767
02/01/2014  23:05:00      -12.673       46.453        3.764       14.200       31.891       15.721      201.636     1017.033      247.136        0.190        0.073       48.151       12.090        0.063      330.493       -2.098      859.761
02/01/2014  23:06:00      -63.174      -25.107      -10.644       18.241       14.054       13.518      332.725      197.526      182.733        0.272        0.036       67.980       11.159        0.027      330.278       -2.450      859.768
02/01/2014  23:07:00      -64.051       -2.186       -6.505       17.680       18.418       11.322      312.585      339.221      128.190        0.246        0.039       64.088        7.193        0.013      330.166       -2.636      859.756
02/01/2014  23:08:00      -79.834      -10.517       -9.822       19.267       14.634        9.852      371.204      214.168       97.063        0.363        0.034       80.523        7.594        0.009      330.183       -2.608      859.734
02/01/2014  23:09:00      -61.284      -14.180       -9.421       26.467       15.908       17.404      700.489      253.074      302.904        0.265        0.063       62.903       16.641        0.070      330.085       -2.768      859.710
02/01/2014  23:10:00      -65.653       -4.689       -7.873       29.146       17.799       15.910      849.490      316.793      253.117        0.291        0.071       65.820       14.224        0.047      329.993       -2.919      859.702
02/01/2014  23:11:00      -36.706       -3.894       -5.920       22.602       21.404       15.686      510.867      458.117      246.066        0.131        0.061       36.912       14.406        0.152      330.021       -2.873      859.699
02/01/2014  23:12:00      -24.069      -15.100       -8.841       23.272       10.556       10.891      541.600      111.426      118.604        0.083        0.039       28.414       11.481        0.163      330.173       -2.623      859.709
02/01/2014  23:13:00      -11.502       -5.106       -6.892        6.570        7.958        7.430       43.165       63.323       55.210        0.018        0.008       12.585        2.313        0.034      330.224       -2.540      859.722
02/01/2014  23:14:00       11.748       15.821       -1.051       16.074       11.970        8.542      258.371      143.275       72.967        0.043        0.024       19.706        6.030        0.094      330.441       -2.184      859.723
02/01/2014  23:15:00       12.031       31.003       -4.481       10.671        9.646        7.859      113.875       93.039       61.761        0.070        0.013       33.256        4.762        0.021      330.492       -2.100      859.727
02/01/2014  23:16:00        8.145        7.370        3.918       11.051        8.303        8.242      122.135       68.946       67.928        0.020        0.013       10.984        3.984        0.132      330.505       -2.079      859.718
02/01/2014  23:17:00       14.760       27.705       -4.906       13.552       10.907        7.994      183.656      118.961       63.899        0.069        0.018       31.392        7.849        0.063      330.482       -2.117      859.711
02/01/2014  23:18:00       32.922       16.307        7.839        9.931        9.469        8.595       98.622       89.653       73.881        0.084        0.013       36.739        3.813        0.011      330.469       -2.139      859.702
02/01/2014  23:19:00       31.385       19.971        7.572       14.996       14.517       11.841      224.873      210.757      140.221        0.101        0.029       37.200        9.617        0.067      330.457       -2.158      859.677
02/01/2014  23:20:00       34.055       60.564       -6.346       14.426       13.986        9.523      208.096      195.600       90.679        0.268        0.025       69.482        8.152        0.014      330.459       -2.155      859.655
02/01/2014  23:21:00       26.588       53.913       -6.625       13.490       18.643       11.970      181.986      347.556      143.290        0.217        0.034       60.113       11.067        0.034      330.417       -2.223      859.639
02/01/2014  23:22:00       25.800       29.832       -2.444       14.164       22.495       13.383      200.631      506.029      179.111        0.122        0.044       39.441       14.205        0.130      330.396       -2.258      859.629
02/01/2014  23:23:00       17.109       21.582       -4.825       12.857       12.336       10.838      165.310      152.186      117.452        0.061        0.022       27.541        9.565        0.121      330.412       -2.235      859.622
02/01/2014  23:24:00       11.113       17.639       -5.336       14.089       10.924        5.440      198.507      119.329       29.589        0.041        0.017       20.848        7.057        0.115      330.441       -2.185      859.625
02/01/2014  23:25:00       -3.383       19.016        3.058        7.982        8.444        7.274       63.716       71.297       52.913        0.029        0.009       19.315        4.791        0.062      330.425       -2.208      859.619
02/01/2014  23:26:00       -4.036       25.967       -6.703        9.458       11.471        6.073       89.456      131.590       36.879        0.050        0.013       26.279        7.350        0.078      330.456       -2.159      859.603
02/01/2014  23:27:00      -23.393        0.960       -5.372        8.377       10.950        7.913       70.167      119.892       62.617        0.041        0.013       23.412        4.537        0.038      330.223       -2.542      859.602
02/01/2014  23:28:00      -45.142      -14.896       -9.720       17.625       13.486       14.149      310.645      181.882      200.202        0.152        0.035       47.536        9.524        0.040      330.007       -2.894      859.605
02/01/2014  23:29:00      -50.273      -17.053       -6.904       15.604       18.646       12.606      243.480      347.671      158.905        0.181        0.038       53.086        5.071        0.009      330.095       -2.752      859.618
02/01/2014  23:30:00      -31.570      -24.512       -6.964       20.198       20.163       13.658      407.952      406.566      186.551        0.132        0.050       39.968       12.000        0.090      330.118       -2.714      859.631
02/01/2014  23:31:00       -9.506        3.699       -9.508       13.209       10.026       11.027      174.472      100.530      121.591        0.030        0.020       10.200        7.182        0.496      330.107       -2.733      859.641
02/01/2014  23:32:00      -18.082       21.857        0.517       13.972        9.488       13.306      195.220       90.024      177.056        0.063        0.023       28.368        3.450        0.015      330.242       -2.510      859.642
02/01/2014  23:33:00        4.201       11.481       21.307       12.968        9.575        6.558      168.181       91.685       43.010        0.045        0.015       12.225        7.443        0.371      330.262       -2.477      859.645
02/01/2014  23:34:00       12.704        8.214       13.467       14.038       13.436       10.943      197.051      180.532      119.740        0.045        0.025       15.128        9.832        0.422      330.307       -2.404      859.648
02/01/2014  23:35:00        1.218      -26.716        0.384       10.905       11.197       13.826      118.910      125.373      191.149        0.058        0.022       26.744        7.828        0.086      330.367       -2.306      859.663
02/01/2014  23:36:00      -17.829      -19.683       -2.833       25.152       15.463       14.543      632.620      239.116      211.512        0.090        0.054       26.558        8.074        0.092      330.158       -2.648      859.666
02/01/2014  23:37:00      -38.323      -12.780       -3.805       20.005       11.522       10.332      400.215      132.745      106.754        0.114        0.032       40.398        7.728        0.037      330.049       -2.827      859.662
02/01/2014  23:38:00      -36.014      -17.472       -7.770       17.471       11.508        7.128      305.245      132.427       50.807        0.108        0.024       40.028        5.093        0.016      330.165       -2.637      859.652
02/01/2014  23:39:00      -47.692       -4.936       -3.626        9.718        8.517        6.705       94.432       72.542       44.958        0.126        0.011       47.947        4.149        0.007      330.202       -2.576      859.629
02/01/2014  23:40:00      -30.782      -13.889        1.119        8.867       15.275        8.612       78.629      233.328       74.159        0.076        0.019       33.770        5.466        0.026      330.316       -2.390      859.615
02/01/2014  23:41:00      -54.156      -16.222       -9.010       14.426        9.840        8.628      208.103       96.820       74.436        0.183        0.019       56.533        8.143        0.021      330.256       -2.486      859.605
02/01/2014  23:42:00      -65.985      -16.346       -9.551       14.044       13.037       10.582      197.229      169.965      111.987        0.260        0.024       67.979        8.249        0.015      330.254       -2.490      859.606
02/01/2014  23:43:00      -42.332      -17.377        1.456       21.165       15.959       10.985      447.955      254.687      120.673        0.146        0.041       45.760        8.554        0.035      330.169       -2.631      859.603
02/01/2014  23:44:00      -52.687       -5.904       -1.996       14.822        8.803        8.531      219.703       77.501       72.772        0.159        0.018       53.016        6.608        0.016      330.263       -2.477      859.590
02/01/2014  23:45:00      -38.657        3.191       -6.776        7.239        4.261        4.911       52.409       18.157       24.118        0.082        0.005       38.789        3.219        0.007      330.342       -2.349      859.572
02/01/2014  23:46:00      -31.795        0.292       -5.752        6.385        4.753        5.203       40.768       22.588       27.075        0.057        0.005       31.796        2.486        0.006      330.414       -2.229      859.566
02/01/2014  23:47:00      -34.949       -3.676       -3.658        9.026        9.691        8.204       81.477       93.909       67.300        0.075        0.012       35.142        5.909        0.028      330.448       -2.172      859.567
02/01/2014  23:48:00      -25.900        0.852       -5.403       10.118        7.925        7.693      102.376       62.813       59.183        0.046        0.011       25.914        5.640        0.047      330.376       -2.292      859.573
02/01/2014  23:49:00      -33.200       29.704      -11.241        9.956        8.722        5.853       99.114       76.069       34.262        0.116        0.010       44.548        3.958        0.008      330.269       -2.464      859.581
02/01/2014  23:50:00      -31.390       12.380       -6.293        5.935        9.405        5.734       35.227       88.457       32.880        0.067        0.008       33.743        5.087        0.023      330.301       -2.412      859.580
02/01/2014  23:51:00      -26.493        1.141       -5.553        6.842        7.652        5.375       46.815       58.550       28.887        0.043        0.007       26.518        4.245        0.026      330.310       -2.400      859.580
02/01/2014  23:52:00      -46.210      -10.472       -5.434       10.283       12.512        7.848      105.740      156.539       61.586        0.130        0.016       47.382        7.598        0.026      330.290       -2.430      859.580
02/01/2014  23:53:00      -47.287       -3.789       -5.213       14.660        9.774        9.282      214.920       95.529       86.147        0.134        0.020       47.439        8.141        0.029      330.120       -2.711      859.588
02/01/2014  23:54:00      -69.311      -20.321       -5.547       17.006       15.292       11.047      289.199      233.831      122.041        0.295        0.032       72.228        9.073        0.016      329.939       -3.007      859.597
02/01/2014  23:55:00      -54.592      -26.981       -8.122       22.211       15.056       10.996      493.322      226.671      120.911        0.231        0.042       60.896        7.438        0.015      329.932       -3.020      859.611
02/01/2014  23:56:00      -70.266      -12.771       -5.817        9.516        9.826        8.716       90.556       96.557       75.974        0.270        0.013       71.417        5.999        0.007      329.812       -3.216      859.618
02/01/2014  23:57:00      -86.947      -20.312      -11.512       11.177       10.170        7.610      124.925      103.429       57.910        0.420        0.014       89.288        3.947        0.002      329.880       -3.103      859.607
02/01/2014  23:58:00      -94.391      -18.592      -13.004       12.648       15.827       11.026      159.961      250.485      121.564        0.498        0.027       96.205        5.782        0.004      329.815       -3.210      859.599
02/01/2014  23:59:00     -113.144       -5.675      -15.223       27.755       17.314       13.077      770.367      299.782      171.020        0.715        0.062      113.286       12.907        0.013      329.762       -3.297      859.575
